<?xml version="1.0" encoding="UTF-8" standalone="no" ?>
<gpx xmlns="http://www.topografix.com/GPX/1/1" xmlns:xsi="http://www.w3.org/2001/XMLSchema-instance" xsi:schemaLocation="http://www.topografix.com/GPX/1/1 http://www.topografix.com/GPX/1/1/gpx.xsd" version="1.1" creator="VisuGPX - https://www.visugpx.com">
  <metadata>
    <name>14 avr. 2022 à 09:02:40</name>
    <desc><![CDATA[grp_trc:[visibles]]]></desc>
  </metadata>
  <trk>
    <name><![CDATA[14 avr. 2022 à 09:02:40]]></name>
    <cmt><![CDATA[14 avr. 2022 à 09:02:40]]></cmt>
    <trkseg>
      <trkpt lat="45.94245" lon="6.71209">
        <ele>1038</ele>
        <time>2022-04-14T07:02:40Z</time>
      </trkpt>
      <trkpt lat="45.94245" lon="6.71209">
        <ele>1038</ele>
        <time>2022-04-14T07:02:41Z</time>
      </trkpt>
      <trkpt lat="45.94247" lon="6.71208">
        <ele>1039</ele>
        <time>2022-04-14T07:04:24Z</time>
      </trkpt>
      <trkpt lat="45.94247" lon="6.71201">
        <ele>1039</ele>
        <time>2022-04-14T07:04:29Z</time>
      </trkpt>
      <trkpt lat="45.94251" lon="6.71198">
        <ele>1039</ele>
        <time>2022-04-14T07:04:38Z</time>
      </trkpt>
      <trkpt lat="45.94265" lon="6.712">
        <ele>1041</ele>
        <time>2022-04-14T07:05:01Z</time>
      </trkpt>
      <trkpt lat="45.94269" lon="6.71203">
        <ele>1041</ele>
        <time>2022-04-14T07:05:05Z</time>
      </trkpt>
      <trkpt lat="45.94269" lon="6.71196">
        <ele>1042</ele>
        <time>2022-04-14T07:05:15Z</time>
      </trkpt>
      <trkpt lat="45.94262" lon="6.71188">
        <ele>1043</ele>
        <time>2022-04-14T07:05:22Z</time>
      </trkpt>
      <trkpt lat="45.94256" lon="6.71176">
        <ele>1044</ele>
        <time>2022-04-14T07:05:30Z</time>
      </trkpt>
      <trkpt lat="45.9425" lon="6.71164">
        <ele>1046</ele>
        <time>2022-04-14T07:05:41Z</time>
      </trkpt>
      <trkpt lat="45.9426" lon="6.71145">
        <ele>1049</ele>
        <time>2022-04-14T07:05:57Z</time>
      </trkpt>
      <trkpt lat="45.94262" lon="6.71138">
        <ele>1050</ele>
        <time>2022-04-14T07:06:01Z</time>
      </trkpt>
      <trkpt lat="45.94255" lon="6.71124">
        <ele>1053</ele>
        <time>2022-04-14T07:06:13Z</time>
      </trkpt>
      <trkpt lat="45.94252" lon="6.71121">
        <ele>1054</ele>
        <time>2022-04-14T07:06:15Z</time>
      </trkpt>
      <trkpt lat="45.94248" lon="6.71118">
        <ele>1054</ele>
        <time>2022-04-14T07:06:19Z</time>
      </trkpt>
      <trkpt lat="45.94244" lon="6.71117">
        <ele>1054</ele>
        <time>2022-04-14T07:06:24Z</time>
      </trkpt>
      <trkpt lat="45.94233" lon="6.71126">
        <ele>1051</ele>
        <time>2022-04-14T07:06:34Z</time>
      </trkpt>
      <trkpt lat="45.94228" lon="6.71125">
        <ele>1050</ele>
        <time>2022-04-14T07:06:37Z</time>
      </trkpt>
      <trkpt lat="45.94223" lon="6.71127">
        <ele>1049</ele>
        <time>2022-04-14T07:06:40Z</time>
      </trkpt>
      <trkpt lat="45.94198" lon="6.71122">
        <ele>1045</ele>
        <time>2022-04-14T07:06:53Z</time>
      </trkpt>
      <trkpt lat="45.94178" lon="6.7111">
        <ele>1043</ele>
        <time>2022-04-14T07:07:01Z</time>
      </trkpt>
      <trkpt lat="45.94172" lon="6.71107">
        <ele>1042</ele>
        <time>2022-04-14T07:07:05Z</time>
      </trkpt>
      <trkpt lat="45.94168" lon="6.71103">
        <ele>1041</ele>
        <time>2022-04-14T07:07:09Z</time>
      </trkpt>
      <trkpt lat="45.94167" lon="6.71095">
        <ele>1041</ele>
        <time>2022-04-14T07:07:18Z</time>
      </trkpt>
      <trkpt lat="45.9415" lon="6.71028">
        <ele>1045</ele>
        <time>2022-04-14T07:07:48Z</time>
      </trkpt>
      <trkpt lat="45.94146" lon="6.71016">
        <ele>1046</ele>
        <time>2022-04-14T07:07:53Z</time>
      </trkpt>
      <trkpt lat="45.94144" lon="6.7101">
        <ele>1046</ele>
        <time>2022-04-14T07:07:55Z</time>
      </trkpt>
      <trkpt lat="45.9414" lon="6.71">
        <ele>1046</ele>
        <time>2022-04-14T07:08:00Z</time>
      </trkpt>
      <trkpt lat="45.9412" lon="6.70918">
        <ele>1048</ele>
        <time>2022-04-14T07:08:27Z</time>
      </trkpt>
      <trkpt lat="45.94114" lon="6.70906">
        <ele>1048</ele>
        <time>2022-04-14T07:08:32Z</time>
      </trkpt>
      <trkpt lat="45.94113" lon="6.70892">
        <ele>1049</ele>
        <time>2022-04-14T07:08:37Z</time>
      </trkpt>
      <trkpt lat="45.94105" lon="6.70866">
        <ele>1049</ele>
        <time>2022-04-14T07:08:47Z</time>
      </trkpt>
      <trkpt lat="45.94103" lon="6.70861">
        <ele>1050</ele>
        <time>2022-04-14T07:08:50Z</time>
      </trkpt>
      <trkpt lat="45.9409" lon="6.70856">
        <ele>1048</ele>
        <time>2022-04-14T07:08:55Z</time>
      </trkpt>
      <trkpt lat="45.94085" lon="6.70848">
        <ele>1047</ele>
        <time>2022-04-14T07:08:57Z</time>
      </trkpt>
      <trkpt lat="45.94085" lon="6.70835">
        <ele>1046</ele>
        <time>2022-04-14T07:09:01Z</time>
      </trkpt>
      <trkpt lat="45.94086" lon="6.70817">
        <ele>1046</ele>
        <time>2022-04-14T07:09:08Z</time>
      </trkpt>
      <trkpt lat="45.94085" lon="6.7081">
        <ele>1046</ele>
        <time>2022-04-14T07:09:10Z</time>
      </trkpt>
      <trkpt lat="45.94086" lon="6.70802">
        <ele>1046</ele>
        <time>2022-04-14T07:09:13Z</time>
      </trkpt>
      <trkpt lat="45.94086" lon="6.70795">
        <ele>1046</ele>
        <time>2022-04-14T07:09:16Z</time>
      </trkpt>
      <trkpt lat="45.94088" lon="6.70781">
        <ele>1046</ele>
        <time>2022-04-14T07:09:23Z</time>
      </trkpt>
      <trkpt lat="45.94083" lon="6.70757">
        <ele>1046</ele>
        <time>2022-04-14T07:09:31Z</time>
      </trkpt>
      <trkpt lat="45.94082" lon="6.70727">
        <ele>1047</ele>
        <time>2022-04-14T07:09:43Z</time>
      </trkpt>
      <trkpt lat="45.94079" lon="6.7072">
        <ele>1048</ele>
        <time>2022-04-14T07:09:46Z</time>
      </trkpt>
      <trkpt lat="45.94077" lon="6.70706">
        <ele>1047</ele>
        <time>2022-04-14T07:09:52Z</time>
      </trkpt>
      <trkpt lat="45.94074" lon="6.707">
        <ele>1048</ele>
        <time>2022-04-14T07:09:55Z</time>
      </trkpt>
      <trkpt lat="45.94071" lon="6.70687">
        <ele>1048</ele>
        <time>2022-04-14T07:10:00Z</time>
      </trkpt>
      <trkpt lat="45.94062" lon="6.70662">
        <ele>1050</ele>
        <time>2022-04-14T07:10:11Z</time>
      </trkpt>
      <trkpt lat="45.94057" lon="6.70642">
        <ele>1051</ele>
        <time>2022-04-14T07:10:19Z</time>
      </trkpt>
      <trkpt lat="45.94051" lon="6.70631">
        <ele>1052</ele>
        <time>2022-04-14T07:10:24Z</time>
      </trkpt>
      <trkpt lat="45.94051" lon="6.70625">
        <ele>1051</ele>
        <time>2022-04-14T07:10:27Z</time>
      </trkpt>
      <trkpt lat="45.94048" lon="6.70618">
        <ele>1051</ele>
        <time>2022-04-14T07:10:30Z</time>
      </trkpt>
      <trkpt lat="45.94047" lon="6.70612">
        <ele>1051</ele>
        <time>2022-04-14T07:10:33Z</time>
      </trkpt>
      <trkpt lat="45.94044" lon="6.70607">
        <ele>1052</ele>
        <time>2022-04-14T07:10:36Z</time>
      </trkpt>
      <trkpt lat="45.94043" lon="6.706">
        <ele>1052</ele>
        <time>2022-04-14T07:10:39Z</time>
      </trkpt>
      <trkpt lat="45.94042" lon="6.70594">
        <ele>1052</ele>
        <time>2022-04-14T07:10:42Z</time>
      </trkpt>
      <trkpt lat="45.94039" lon="6.70589">
        <ele>1052</ele>
        <time>2022-04-14T07:10:45Z</time>
      </trkpt>
      <trkpt lat="45.94034" lon="6.70584">
        <ele>1052</ele>
        <time>2022-04-14T07:10:49Z</time>
      </trkpt>
      <trkpt lat="45.94029" lon="6.70582">
        <ele>1051</ele>
        <time>2022-04-14T07:10:52Z</time>
      </trkpt>
      <trkpt lat="45.94027" lon="6.70574">
        <ele>1050</ele>
        <time>2022-04-14T07:10:57Z</time>
      </trkpt>
      <trkpt lat="45.94026" lon="6.70569">
        <ele>1051</ele>
        <time>2022-04-14T07:11:00Z</time>
      </trkpt>
      <trkpt lat="45.94017" lon="6.70561">
        <ele>1052</ele>
        <time>2022-04-14T07:11:07Z</time>
      </trkpt>
      <trkpt lat="45.94016" lon="6.70554">
        <ele>1052</ele>
        <time>2022-04-14T07:11:10Z</time>
      </trkpt>
      <trkpt lat="45.94015" lon="6.70546">
        <ele>1053</ele>
        <time>2022-04-14T07:11:14Z</time>
      </trkpt>
      <trkpt lat="45.9401" lon="6.70543">
        <ele>1054</ele>
        <time>2022-04-14T07:11:17Z</time>
      </trkpt>
      <trkpt lat="45.94007" lon="6.70537">
        <ele>1054</ele>
        <time>2022-04-14T07:11:20Z</time>
      </trkpt>
      <trkpt lat="45.94" lon="6.70527">
        <ele>1054</ele>
        <time>2022-04-14T07:11:26Z</time>
      </trkpt>
      <trkpt lat="45.93999" lon="6.7052">
        <ele>1054</ele>
        <time>2022-04-14T07:11:29Z</time>
      </trkpt>
      <trkpt lat="45.93994" lon="6.70516">
        <ele>1055</ele>
        <time>2022-04-14T07:11:32Z</time>
      </trkpt>
      <trkpt lat="45.93993" lon="6.7051">
        <ele>1055</ele>
        <time>2022-04-14T07:11:34Z</time>
      </trkpt>
      <trkpt lat="45.93985" lon="6.705">
        <ele>1053</ele>
        <time>2022-04-14T07:11:40Z</time>
      </trkpt>
      <trkpt lat="45.93983" lon="6.70494">
        <ele>1053</ele>
        <time>2022-04-14T07:11:43Z</time>
      </trkpt>
      <trkpt lat="45.93978" lon="6.70488">
        <ele>1053</ele>
        <time>2022-04-14T07:11:46Z</time>
      </trkpt>
      <trkpt lat="45.93969" lon="6.70429">
        <ele>1058</ele>
        <time>2022-04-14T07:12:07Z</time>
      </trkpt>
      <trkpt lat="45.93966" lon="6.70422">
        <ele>1059</ele>
        <time>2022-04-14T07:12:10Z</time>
      </trkpt>
      <trkpt lat="45.93965" lon="6.70415">
        <ele>1060</ele>
        <time>2022-04-14T07:12:13Z</time>
      </trkpt>
      <trkpt lat="45.93957" lon="6.70397">
        <ele>1064</ele>
        <time>2022-04-14T07:12:25Z</time>
      </trkpt>
      <trkpt lat="45.93956" lon="6.7037">
        <ele>1067</ele>
        <time>2022-04-14T07:12:40Z</time>
      </trkpt>
      <trkpt lat="45.9395" lon="6.70342">
        <ele>1069</ele>
        <time>2022-04-14T07:12:53Z</time>
      </trkpt>
      <trkpt lat="45.9395" lon="6.70314">
        <ele>1071</ele>
        <time>2022-04-14T07:13:05Z</time>
      </trkpt>
      <trkpt lat="45.93948" lon="6.70307">
        <ele>1072</ele>
        <time>2022-04-14T07:13:09Z</time>
      </trkpt>
      <trkpt lat="45.93948" lon="6.70292">
        <ele>1074</ele>
        <time>2022-04-14T07:13:17Z</time>
      </trkpt>
      <trkpt lat="45.93945" lon="6.70286">
        <ele>1074</ele>
        <time>2022-04-14T07:13:20Z</time>
      </trkpt>
      <trkpt lat="45.93939" lon="6.70281">
        <ele>1074</ele>
        <time>2022-04-14T07:13:23Z</time>
      </trkpt>
      <trkpt lat="45.93931" lon="6.70271">
        <ele>1073</ele>
        <time>2022-04-14T07:13:28Z</time>
      </trkpt>
      <trkpt lat="45.93929" lon="6.70266">
        <ele>1074</ele>
        <time>2022-04-14T07:13:32Z</time>
      </trkpt>
      <trkpt lat="45.93926" lon="6.70261">
        <ele>1074</ele>
        <time>2022-04-14T07:13:39Z</time>
      </trkpt>
      <trkpt lat="45.93933" lon="6.70255">
        <ele>1075</ele>
        <time>2022-04-14T07:13:57Z</time>
      </trkpt>
      <trkpt lat="45.93962" lon="6.70226">
        <ele>1082</ele>
        <time>2022-04-14T07:14:24Z</time>
      </trkpt>
      <trkpt lat="45.93965" lon="6.70221">
        <ele>1084</ele>
        <time>2022-04-14T07:14:29Z</time>
      </trkpt>
      <trkpt lat="45.93973" lon="6.70214">
        <ele>1087</ele>
        <time>2022-04-14T07:14:39Z</time>
      </trkpt>
      <trkpt lat="45.93977" lon="6.70209">
        <ele>1090</ele>
        <time>2022-04-14T07:14:43Z</time>
      </trkpt>
      <trkpt lat="45.93982" lon="6.70205">
        <ele>1090</ele>
        <time>2022-04-14T07:14:47Z</time>
      </trkpt>
      <trkpt lat="45.93982" lon="6.70198">
        <ele>1091</ele>
        <time>2022-04-14T07:14:50Z</time>
      </trkpt>
      <trkpt lat="45.93986" lon="6.70177">
        <ele>1094</ele>
        <time>2022-04-14T07:15:02Z</time>
      </trkpt>
      <trkpt lat="45.93987" lon="6.7017">
        <ele>1094</ele>
        <time>2022-04-14T07:15:05Z</time>
      </trkpt>
      <trkpt lat="45.93981" lon="6.70135">
        <ele>1095</ele>
        <time>2022-04-14T07:15:20Z</time>
      </trkpt>
      <trkpt lat="45.93977" lon="6.70123">
        <ele>1095</ele>
        <time>2022-04-14T07:15:24Z</time>
      </trkpt>
      <trkpt lat="45.93974" lon="6.70109">
        <ele>1097</ele>
        <time>2022-04-14T07:15:32Z</time>
      </trkpt>
      <trkpt lat="45.93974" lon="6.70094">
        <ele>1097</ele>
        <time>2022-04-14T07:15:38Z</time>
      </trkpt>
      <trkpt lat="45.93975" lon="6.70058">
        <ele>1099</ele>
        <time>2022-04-14T07:15:54Z</time>
      </trkpt>
      <trkpt lat="45.93983" lon="6.70031">
        <ele>1101</ele>
        <time>2022-04-14T07:16:06Z</time>
      </trkpt>
      <trkpt lat="45.94001" lon="6.69988">
        <ele>1106</ele>
        <time>2022-04-14T07:16:33Z</time>
      </trkpt>
      <trkpt lat="45.94006" lon="6.6998">
        <ele>1106</ele>
        <time>2022-04-14T07:16:44Z</time>
      </trkpt>
      <trkpt lat="45.94009" lon="6.69975">
        <ele>1106</ele>
        <time>2022-04-14T07:16:47Z</time>
      </trkpt>
      <trkpt lat="45.94011" lon="6.6997">
        <ele>1107</ele>
        <time>2022-04-14T07:16:52Z</time>
      </trkpt>
      <trkpt lat="45.94018" lon="6.69971">
        <ele>1111</ele>
        <time>2022-04-14T07:17:01Z</time>
      </trkpt>
      <trkpt lat="45.94022" lon="6.69975">
        <ele>1112</ele>
        <time>2022-04-14T07:17:13Z</time>
      </trkpt>
      <trkpt lat="45.94014" lon="6.69982">
        <ele>1111</ele>
        <time>2022-04-14T07:17:24Z</time>
      </trkpt>
      <trkpt lat="45.94013" lon="6.6999">
        <ele>1110</ele>
        <time>2022-04-14T07:17:27Z</time>
      </trkpt>
      <trkpt lat="45.94013" lon="6.69997">
        <ele>1109</ele>
        <time>2022-04-14T07:17:30Z</time>
      </trkpt>
      <trkpt lat="45.94016" lon="6.70016">
        <ele>1110</ele>
        <time>2022-04-14T07:17:37Z</time>
      </trkpt>
      <trkpt lat="45.94018" lon="6.70022">
        <ele>1111</ele>
        <time>2022-04-14T07:17:40Z</time>
      </trkpt>
      <trkpt lat="45.94028" lon="6.70036">
        <ele>1114</ele>
        <time>2022-04-14T07:17:54Z</time>
      </trkpt>
      <trkpt lat="45.94022" lon="6.70032">
        <ele>1115</ele>
        <time>2022-04-14T07:18:07Z</time>
      </trkpt>
      <trkpt lat="45.9401" lon="6.70017">
        <ele>1110</ele>
        <time>2022-04-14T07:18:14Z</time>
      </trkpt>
      <trkpt lat="45.94004" lon="6.70002">
        <ele>1107</ele>
        <time>2022-04-14T07:18:19Z</time>
      </trkpt>
      <trkpt lat="45.94002" lon="6.69994">
        <ele>1106</ele>
        <time>2022-04-14T07:18:22Z</time>
      </trkpt>
      <trkpt lat="45.94003" lon="6.69986">
        <ele>1104</ele>
        <time>2022-04-14T07:18:25Z</time>
      </trkpt>
      <trkpt lat="45.94" lon="6.69974">
        <ele>1102</ele>
        <time>2022-04-14T07:18:29Z</time>
      </trkpt>
      <trkpt lat="45.93995" lon="6.69963">
        <ele>1099</ele>
        <time>2022-04-14T07:18:33Z</time>
      </trkpt>
      <trkpt lat="45.93995" lon="6.69955">
        <ele>1099</ele>
        <time>2022-04-14T07:18:36Z</time>
      </trkpt>
      <trkpt lat="45.93995" lon="6.69947">
        <ele>1099</ele>
        <time>2022-04-14T07:18:39Z</time>
      </trkpt>
      <trkpt lat="45.93995" lon="6.69938">
        <ele>1100</ele>
        <time>2022-04-14T07:18:42Z</time>
      </trkpt>
      <trkpt lat="45.93992" lon="6.69931">
        <ele>1099</ele>
        <time>2022-04-14T07:18:46Z</time>
      </trkpt>
      <trkpt lat="45.9399" lon="6.69924">
        <ele>1099</ele>
        <time>2022-04-14T07:18:48Z</time>
      </trkpt>
      <trkpt lat="45.93987" lon="6.69912">
        <ele>1099</ele>
        <time>2022-04-14T07:18:52Z</time>
      </trkpt>
      <trkpt lat="45.93984" lon="6.69905">
        <ele>1099</ele>
        <time>2022-04-14T07:18:54Z</time>
      </trkpt>
      <trkpt lat="45.93981" lon="6.69899">
        <ele>1099</ele>
        <time>2022-04-14T07:18:56Z</time>
      </trkpt>
      <trkpt lat="45.93976" lon="6.69882">
        <ele>1098</ele>
        <time>2022-04-14T07:19:04Z</time>
      </trkpt>
      <trkpt lat="45.93973" lon="6.69876">
        <ele>1098</ele>
        <time>2022-04-14T07:19:06Z</time>
      </trkpt>
      <trkpt lat="45.9397" lon="6.6987">
        <ele>1098</ele>
        <time>2022-04-14T07:19:09Z</time>
      </trkpt>
      <trkpt lat="45.93966" lon="6.69862">
        <ele>1098</ele>
        <time>2022-04-14T07:19:12Z</time>
      </trkpt>
      <trkpt lat="45.93965" lon="6.69856">
        <ele>1099</ele>
        <time>2022-04-14T07:19:14Z</time>
      </trkpt>
      <trkpt lat="45.93961" lon="6.69847">
        <ele>1099</ele>
        <time>2022-04-14T07:19:17Z</time>
      </trkpt>
      <trkpt lat="45.93958" lon="6.69824">
        <ele>1098</ele>
        <time>2022-04-14T07:19:25Z</time>
      </trkpt>
      <trkpt lat="45.93958" lon="6.69798">
        <ele>1097</ele>
        <time>2022-04-14T07:19:37Z</time>
      </trkpt>
      <trkpt lat="45.93956" lon="6.69785">
        <ele>1098</ele>
        <time>2022-04-14T07:19:44Z</time>
      </trkpt>
      <trkpt lat="45.93955" lon="6.69777">
        <ele>1097</ele>
        <time>2022-04-14T07:19:47Z</time>
      </trkpt>
      <trkpt lat="45.93954" lon="6.69754">
        <ele>1097</ele>
        <time>2022-04-14T07:19:55Z</time>
      </trkpt>
      <trkpt lat="45.93953" lon="6.69713">
        <ele>1097</ele>
        <time>2022-04-14T07:20:12Z</time>
      </trkpt>
      <trkpt lat="45.93952" lon="6.69706">
        <ele>1097</ele>
        <time>2022-04-14T07:20:15Z</time>
      </trkpt>
      <trkpt lat="45.93953" lon="6.69698">
        <ele>1097</ele>
        <time>2022-04-14T07:20:18Z</time>
      </trkpt>
      <trkpt lat="45.93959" lon="6.69677">
        <ele>1097</ele>
        <time>2022-04-14T07:20:27Z</time>
      </trkpt>
      <trkpt lat="45.93956" lon="6.69635">
        <ele>1097</ele>
        <time>2022-04-14T07:20:42Z</time>
      </trkpt>
      <trkpt lat="45.93953" lon="6.69623">
        <ele>1098</ele>
        <time>2022-04-14T07:20:46Z</time>
      </trkpt>
      <trkpt lat="45.93951" lon="6.69609">
        <ele>1097</ele>
        <time>2022-04-14T07:20:50Z</time>
      </trkpt>
      <trkpt lat="45.93952" lon="6.69595">
        <ele>1097</ele>
        <time>2022-04-14T07:20:55Z</time>
      </trkpt>
      <trkpt lat="45.93951" lon="6.69586">
        <ele>1097</ele>
        <time>2022-04-14T07:20:58Z</time>
      </trkpt>
      <trkpt lat="45.93959" lon="6.69557">
        <ele>1096</ele>
        <time>2022-04-14T07:21:10Z</time>
      </trkpt>
      <trkpt lat="45.9396" lon="6.69503">
        <ele>1095</ele>
        <time>2022-04-14T07:21:27Z</time>
      </trkpt>
      <trkpt lat="45.93958" lon="6.69496">
        <ele>1096</ele>
        <time>2022-04-14T07:21:29Z</time>
      </trkpt>
      <trkpt lat="45.93957" lon="6.69488">
        <ele>1096</ele>
        <time>2022-04-14T07:21:33Z</time>
      </trkpt>
      <trkpt lat="45.93955" lon="6.69473">
        <ele>1096</ele>
        <time>2022-04-14T07:21:40Z</time>
      </trkpt>
      <trkpt lat="45.93953" lon="6.69468">
        <ele>1096</ele>
        <time>2022-04-14T07:21:43Z</time>
      </trkpt>
      <trkpt lat="45.93953" lon="6.69463">
        <ele>1097</ele>
        <time>2022-04-14T07:21:46Z</time>
      </trkpt>
      <trkpt lat="45.93954" lon="6.69462">
        <ele>1097</ele>
        <time>2022-04-14T07:21:47Z</time>
      </trkpt>
      <trkpt lat="45.93955" lon="6.69454">
        <ele>1091</ele>
        <time>2022-04-14T07:21:51Z</time>
      </trkpt>
      <trkpt lat="45.93956" lon="6.69448">
        <ele>1091</ele>
        <time>2022-04-14T07:21:55Z</time>
      </trkpt>
      <trkpt lat="45.9396" lon="6.69416">
        <ele>1091</ele>
        <time>2022-04-14T07:22:15Z</time>
      </trkpt>
      <trkpt lat="45.93961" lon="6.69409">
        <ele>1091</ele>
        <time>2022-04-14T07:22:19Z</time>
      </trkpt>
      <trkpt lat="45.93963" lon="6.69396">
        <ele>1091</ele>
        <time>2022-04-14T07:22:26Z</time>
      </trkpt>
      <trkpt lat="45.93966" lon="6.69387">
        <ele>1091</ele>
        <time>2022-04-14T07:22:30Z</time>
      </trkpt>
      <trkpt lat="45.93964" lon="6.69381">
        <ele>1090</ele>
        <time>2022-04-14T07:22:33Z</time>
      </trkpt>
      <trkpt lat="45.93963" lon="6.69374">
        <ele>1091</ele>
        <time>2022-04-14T07:22:36Z</time>
      </trkpt>
      <trkpt lat="45.93962" lon="6.69368">
        <ele>1091</ele>
        <time>2022-04-14T07:22:39Z</time>
      </trkpt>
      <trkpt lat="45.93958" lon="6.69359">
        <ele>1091</ele>
        <time>2022-04-14T07:22:45Z</time>
      </trkpt>
      <trkpt lat="45.93956" lon="6.69352">
        <ele>1091</ele>
        <time>2022-04-14T07:22:49Z</time>
      </trkpt>
      <trkpt lat="45.93956" lon="6.69345">
        <ele>1090</ele>
        <time>2022-04-14T07:22:54Z</time>
      </trkpt>
      <trkpt lat="45.93952" lon="6.69337">
        <ele>1090</ele>
        <time>2022-04-14T07:22:59Z</time>
      </trkpt>
      <trkpt lat="45.93944" lon="6.69331">
        <ele>1087</ele>
        <time>2022-04-14T07:23:06Z</time>
      </trkpt>
      <trkpt lat="45.93939" lon="6.69328">
        <ele>1087</ele>
        <time>2022-04-14T07:23:10Z</time>
      </trkpt>
      <trkpt lat="45.93929" lon="6.69321">
        <ele>1088</ele>
        <time>2022-04-14T07:23:16Z</time>
      </trkpt>
      <trkpt lat="45.93926" lon="6.69316">
        <ele>1088</ele>
        <time>2022-04-14T07:23:20Z</time>
      </trkpt>
      <trkpt lat="45.9392" lon="6.69303">
        <ele>1089</ele>
        <time>2022-04-14T07:23:28Z</time>
      </trkpt>
      <trkpt lat="45.93915" lon="6.693">
        <ele>1089</ele>
        <time>2022-04-14T07:23:31Z</time>
      </trkpt>
      <trkpt lat="45.93913" lon="6.69294">
        <ele>1089</ele>
        <time>2022-04-14T07:23:34Z</time>
      </trkpt>
      <trkpt lat="45.93908" lon="6.69277">
        <ele>1090</ele>
        <time>2022-04-14T07:23:40Z</time>
      </trkpt>
      <trkpt lat="45.93907" lon="6.69271">
        <ele>1090</ele>
        <time>2022-04-14T07:23:43Z</time>
      </trkpt>
      <trkpt lat="45.93904" lon="6.69265">
        <ele>1090</ele>
        <time>2022-04-14T07:23:45Z</time>
      </trkpt>
      <trkpt lat="45.93903" lon="6.69251">
        <ele>1090</ele>
        <time>2022-04-14T07:23:49Z</time>
      </trkpt>
      <trkpt lat="45.93898" lon="6.69236">
        <ele>1090</ele>
        <time>2022-04-14T07:23:56Z</time>
      </trkpt>
      <trkpt lat="45.93893" lon="6.69232">
        <ele>1090</ele>
        <time>2022-04-14T07:24:00Z</time>
      </trkpt>
      <trkpt lat="45.9389" lon="6.69226">
        <ele>1090</ele>
        <time>2022-04-14T07:24:03Z</time>
      </trkpt>
      <trkpt lat="45.93888" lon="6.6922">
        <ele>1090</ele>
        <time>2022-04-14T07:24:06Z</time>
      </trkpt>
      <trkpt lat="45.93883" lon="6.69213">
        <ele>1090</ele>
        <time>2022-04-14T07:24:09Z</time>
      </trkpt>
      <trkpt lat="45.93879" lon="6.69209">
        <ele>1090</ele>
        <time>2022-04-14T07:24:12Z</time>
      </trkpt>
      <trkpt lat="45.93876" lon="6.69204">
        <ele>1089</ele>
        <time>2022-04-14T07:24:15Z</time>
      </trkpt>
      <trkpt lat="45.93868" lon="6.69198">
        <ele>1089</ele>
        <time>2022-04-14T07:24:19Z</time>
      </trkpt>
      <trkpt lat="45.93861" lon="6.69194">
        <ele>1089</ele>
        <time>2022-04-14T07:24:23Z</time>
      </trkpt>
      <trkpt lat="45.93852" lon="6.69184">
        <ele>1088</ele>
        <time>2022-04-14T07:24:29Z</time>
      </trkpt>
      <trkpt lat="45.93845" lon="6.69174">
        <ele>1089</ele>
        <time>2022-04-14T07:24:34Z</time>
      </trkpt>
      <trkpt lat="45.9384" lon="6.69169">
        <ele>1089</ele>
        <time>2022-04-14T07:24:38Z</time>
      </trkpt>
      <trkpt lat="45.93834" lon="6.69156">
        <ele>1089</ele>
        <time>2022-04-14T07:24:44Z</time>
      </trkpt>
      <trkpt lat="45.93831" lon="6.69139">
        <ele>1090</ele>
        <time>2022-04-14T07:24:50Z</time>
      </trkpt>
      <trkpt lat="45.93829" lon="6.69132">
        <ele>1091</ele>
        <time>2022-04-14T07:24:53Z</time>
      </trkpt>
      <trkpt lat="45.93824" lon="6.69125">
        <ele>1091</ele>
        <time>2022-04-14T07:24:56Z</time>
      </trkpt>
      <trkpt lat="45.93814" lon="6.69111">
        <ele>1089</ele>
        <time>2022-04-14T07:25:03Z</time>
      </trkpt>
      <trkpt lat="45.93811" lon="6.69104">
        <ele>1089</ele>
        <time>2022-04-14T07:25:06Z</time>
      </trkpt>
      <trkpt lat="45.93806" lon="6.69081">
        <ele>1090</ele>
        <time>2022-04-14T07:25:16Z</time>
      </trkpt>
      <trkpt lat="45.93798" lon="6.6907">
        <ele>1090</ele>
        <time>2022-04-14T07:25:22Z</time>
      </trkpt>
      <trkpt lat="45.93794" lon="6.69066">
        <ele>1090</ele>
        <time>2022-04-14T07:25:24Z</time>
      </trkpt>
      <trkpt lat="45.93791" lon="6.69062">
        <ele>1090</ele>
        <time>2022-04-14T07:25:27Z</time>
      </trkpt>
      <trkpt lat="45.93783" lon="6.69054">
        <ele>1090</ele>
        <time>2022-04-14T07:25:31Z</time>
      </trkpt>
      <trkpt lat="45.93778" lon="6.69047">
        <ele>1090</ele>
        <time>2022-04-14T07:25:34Z</time>
      </trkpt>
      <trkpt lat="45.93776" lon="6.69034">
        <ele>1091</ele>
        <time>2022-04-14T07:25:40Z</time>
      </trkpt>
      <trkpt lat="45.93771" lon="6.69031">
        <ele>1091</ele>
        <time>2022-04-14T07:25:43Z</time>
      </trkpt>
      <trkpt lat="45.93757" lon="6.69015">
        <ele>1090</ele>
        <time>2022-04-14T07:25:52Z</time>
      </trkpt>
      <trkpt lat="45.93753" lon="6.69007">
        <ele>1090</ele>
        <time>2022-04-14T07:25:55Z</time>
      </trkpt>
      <trkpt lat="45.9375" lon="6.69001">
        <ele>1091</ele>
        <time>2022-04-14T07:25:58Z</time>
      </trkpt>
      <trkpt lat="45.93746" lon="6.68997">
        <ele>1091</ele>
        <time>2022-04-14T07:26:01Z</time>
      </trkpt>
      <trkpt lat="45.93742" lon="6.68993">
        <ele>1091</ele>
        <time>2022-04-14T07:26:03Z</time>
      </trkpt>
      <trkpt lat="45.93738" lon="6.68987">
        <ele>1091</ele>
        <time>2022-04-14T07:26:06Z</time>
      </trkpt>
      <trkpt lat="45.93734" lon="6.68984">
        <ele>1091</ele>
        <time>2022-04-14T07:26:08Z</time>
      </trkpt>
      <trkpt lat="45.93728" lon="6.68972">
        <ele>1091</ele>
        <time>2022-04-14T07:26:12Z</time>
      </trkpt>
      <trkpt lat="45.93719" lon="6.6896">
        <ele>1090</ele>
        <time>2022-04-14T07:26:18Z</time>
      </trkpt>
      <trkpt lat="45.93715" lon="6.68957">
        <ele>1090</ele>
        <time>2022-04-14T07:26:20Z</time>
      </trkpt>
      <trkpt lat="45.93713" lon="6.68953">
        <ele>1089</ele>
        <time>2022-04-14T07:26:22Z</time>
      </trkpt>
      <trkpt lat="45.93712" lon="6.68947">
        <ele>1089</ele>
        <time>2022-04-14T07:26:25Z</time>
      </trkpt>
      <trkpt lat="45.9371" lon="6.68938">
        <ele>1090</ele>
        <time>2022-04-14T07:26:29Z</time>
      </trkpt>
      <trkpt lat="45.93712" lon="6.68931">
        <ele>1090</ele>
        <time>2022-04-14T07:26:32Z</time>
      </trkpt>
      <trkpt lat="45.93702" lon="6.68904">
        <ele>1089</ele>
        <time>2022-04-14T07:26:44Z</time>
      </trkpt>
      <trkpt lat="45.93692" lon="6.68858">
        <ele>1088</ele>
        <time>2022-04-14T07:26:59Z</time>
      </trkpt>
      <trkpt lat="45.93693" lon="6.68849">
        <ele>1088</ele>
        <time>2022-04-14T07:27:02Z</time>
      </trkpt>
      <trkpt lat="45.93692" lon="6.68841">
        <ele>1088</ele>
        <time>2022-04-14T07:27:05Z</time>
      </trkpt>
      <trkpt lat="45.93687" lon="6.68826">
        <ele>1089</ele>
        <time>2022-04-14T07:27:09Z</time>
      </trkpt>
      <trkpt lat="45.93686" lon="6.68773">
        <ele>1092</ele>
        <time>2022-04-14T07:27:28Z</time>
      </trkpt>
      <trkpt lat="45.93685" lon="6.68766">
        <ele>1091</ele>
        <time>2022-04-14T07:27:33Z</time>
      </trkpt>
      <trkpt lat="45.93682" lon="6.68759">
        <ele>1093</ele>
        <time>2022-04-14T07:27:36Z</time>
      </trkpt>
      <trkpt lat="45.93681" lon="6.68751">
        <ele>1093</ele>
        <time>2022-04-14T07:27:39Z</time>
      </trkpt>
      <trkpt lat="45.93673" lon="6.6873">
        <ele>1092</ele>
        <time>2022-04-14T07:27:47Z</time>
      </trkpt>
      <trkpt lat="45.93669" lon="6.68707">
        <ele>1091</ele>
        <time>2022-04-14T07:27:54Z</time>
      </trkpt>
      <trkpt lat="45.93667" lon="6.68693">
        <ele>1092</ele>
        <time>2022-04-14T07:27:59Z</time>
      </trkpt>
      <trkpt lat="45.93664" lon="6.6867">
        <ele>1092</ele>
        <time>2022-04-14T07:28:08Z</time>
      </trkpt>
      <trkpt lat="45.93659" lon="6.68646">
        <ele>1090</ele>
        <time>2022-04-14T07:28:14Z</time>
      </trkpt>
      <trkpt lat="45.93642" lon="6.68583">
        <ele>1085</ele>
        <time>2022-04-14T07:28:30Z</time>
      </trkpt>
      <trkpt lat="45.9364" lon="6.68575">
        <ele>1085</ele>
        <time>2022-04-14T07:28:32Z</time>
      </trkpt>
      <trkpt lat="45.93638" lon="6.68567">
        <ele>1085</ele>
        <time>2022-04-14T07:28:36Z</time>
      </trkpt>
      <trkpt lat="45.93628" lon="6.68542">
        <ele>1089</ele>
        <time>2022-04-14T07:28:49Z</time>
      </trkpt>
      <trkpt lat="45.93624" lon="6.6852">
        <ele>1093</ele>
        <time>2022-04-14T07:29:01Z</time>
      </trkpt>
      <trkpt lat="45.93623" lon="6.68493">
        <ele>1095</ele>
        <time>2022-04-14T07:29:10Z</time>
      </trkpt>
      <trkpt lat="45.93623" lon="6.68484">
        <ele>1095</ele>
        <time>2022-04-14T07:29:12Z</time>
      </trkpt>
      <trkpt lat="45.93624" lon="6.68477">
        <ele>1095</ele>
        <time>2022-04-14T07:29:14Z</time>
      </trkpt>
      <trkpt lat="45.93625" lon="6.6847">
        <ele>1094</ele>
        <time>2022-04-14T07:29:16Z</time>
      </trkpt>
      <trkpt lat="45.93623" lon="6.68452">
        <ele>1092</ele>
        <time>2022-04-14T07:29:23Z</time>
      </trkpt>
      <trkpt lat="45.93618" lon="6.68451">
        <ele>1092</ele>
        <time>2022-04-14T07:29:29Z</time>
      </trkpt>
      <trkpt lat="45.93608" lon="6.68453">
        <ele>1091</ele>
        <time>2022-04-14T07:29:36Z</time>
      </trkpt>
      <trkpt lat="45.93603" lon="6.68451">
        <ele>1091</ele>
        <time>2022-04-14T07:29:39Z</time>
      </trkpt>
      <trkpt lat="45.93602" lon="6.68443">
        <ele>1090</ele>
        <time>2022-04-14T07:29:42Z</time>
      </trkpt>
      <trkpt lat="45.93605" lon="6.68436">
        <ele>1089</ele>
        <time>2022-04-14T07:29:45Z</time>
      </trkpt>
      <trkpt lat="45.93611" lon="6.68423">
        <ele>1087</ele>
        <time>2022-04-14T07:29:51Z</time>
      </trkpt>
      <trkpt lat="45.93616" lon="6.68406">
        <ele>1085</ele>
        <time>2022-04-14T07:29:57Z</time>
      </trkpt>
      <trkpt lat="45.93616" lon="6.684">
        <ele>1085</ele>
        <time>2022-04-14T07:29:59Z</time>
      </trkpt>
      <trkpt lat="45.93614" lon="6.68377">
        <ele>1082</ele>
        <time>2022-04-14T07:30:05Z</time>
      </trkpt>
      <trkpt lat="45.93614" lon="6.68365">
        <ele>1082</ele>
        <time>2022-04-14T07:30:09Z</time>
      </trkpt>
      <trkpt lat="45.93613" lon="6.68343">
        <ele>1080</ele>
        <time>2022-04-14T07:30:15Z</time>
      </trkpt>
      <trkpt lat="45.93618" lon="6.6832">
        <ele>1078</ele>
        <time>2022-04-14T07:30:21Z</time>
      </trkpt>
      <trkpt lat="45.93619" lon="6.68271">
        <ele>1074</ele>
        <time>2022-04-14T07:30:35Z</time>
      </trkpt>
      <trkpt lat="45.9362" lon="6.68257">
        <ele>1073</ele>
        <time>2022-04-14T07:30:39Z</time>
      </trkpt>
      <trkpt lat="45.93616" lon="6.68235">
        <ele>1071</ele>
        <time>2022-04-14T07:30:45Z</time>
      </trkpt>
      <trkpt lat="45.93611" lon="6.68223">
        <ele>1070</ele>
        <time>2022-04-14T07:30:49Z</time>
      </trkpt>
      <trkpt lat="45.93606" lon="6.68209">
        <ele>1069</ele>
        <time>2022-04-14T07:30:53Z</time>
      </trkpt>
      <trkpt lat="45.936" lon="6.6818">
        <ele>1068</ele>
        <time>2022-04-14T07:31:02Z</time>
      </trkpt>
      <trkpt lat="45.936" lon="6.68172">
        <ele>1068</ele>
        <time>2022-04-14T07:31:05Z</time>
      </trkpt>
      <trkpt lat="45.93601" lon="6.68164">
        <ele>1068</ele>
        <time>2022-04-14T07:31:08Z</time>
      </trkpt>
      <trkpt lat="45.93595" lon="6.68136">
        <ele>1065</ele>
        <time>2022-04-14T07:31:18Z</time>
      </trkpt>
      <trkpt lat="45.93589" lon="6.68122">
        <ele>1065</ele>
        <time>2022-04-14T07:31:23Z</time>
      </trkpt>
      <trkpt lat="45.93582" lon="6.68102">
        <ele>1063</ele>
        <time>2022-04-14T07:31:29Z</time>
      </trkpt>
      <trkpt lat="45.9358" lon="6.68087">
        <ele>1061</ele>
        <time>2022-04-14T07:31:33Z</time>
      </trkpt>
      <trkpt lat="45.9358" lon="6.68057">
        <ele>1059</ele>
        <time>2022-04-14T07:31:41Z</time>
      </trkpt>
      <trkpt lat="45.93594" lon="6.67962">
        <ele>1052</ele>
        <time>2022-04-14T07:32:07Z</time>
      </trkpt>
      <trkpt lat="45.93597" lon="6.67926">
        <ele>1051</ele>
        <time>2022-04-14T07:32:17Z</time>
      </trkpt>
      <trkpt lat="45.93597" lon="6.67897">
        <ele>1049</ele>
        <time>2022-04-14T07:32:26Z</time>
      </trkpt>
      <trkpt lat="45.93602" lon="6.67847">
        <ele>1047</ele>
        <time>2022-04-14T07:32:40Z</time>
      </trkpt>
      <trkpt lat="45.93613" lon="6.678">
        <ele>1046</ele>
        <time>2022-04-14T07:32:54Z</time>
      </trkpt>
      <trkpt lat="45.93613" lon="6.67793">
        <ele>1046</ele>
        <time>2022-04-14T07:32:56Z</time>
      </trkpt>
      <trkpt lat="45.93616" lon="6.67778">
        <ele>1046</ele>
        <time>2022-04-14T07:33:01Z</time>
      </trkpt>
      <trkpt lat="45.93621" lon="6.6774">
        <ele>1044</ele>
        <time>2022-04-14T07:33:15Z</time>
      </trkpt>
      <trkpt lat="45.9362" lon="6.67732">
        <ele>1044</ele>
        <time>2022-04-14T07:33:18Z</time>
      </trkpt>
      <trkpt lat="45.93615" lon="6.67729">
        <ele>1043</ele>
        <time>2022-04-14T07:33:21Z</time>
      </trkpt>
      <trkpt lat="45.93609" lon="6.6773">
        <ele>1043</ele>
        <time>2022-04-14T07:33:24Z</time>
      </trkpt>
      <trkpt lat="45.93604" lon="6.67727">
        <ele>1043</ele>
        <time>2022-04-14T07:33:27Z</time>
      </trkpt>
      <trkpt lat="45.936" lon="6.67728">
        <ele>1042</ele>
        <time>2022-04-14T07:33:31Z</time>
      </trkpt>
      <trkpt lat="45.93596" lon="6.6773">
        <ele>1041</ele>
        <time>2022-04-14T07:33:34Z</time>
      </trkpt>
      <trkpt lat="45.93591" lon="6.67729">
        <ele>1039</ele>
        <time>2022-04-14T07:33:37Z</time>
      </trkpt>
      <trkpt lat="45.93586" lon="6.67732">
        <ele>1037</ele>
        <time>2022-04-14T07:33:40Z</time>
      </trkpt>
      <trkpt lat="45.93575" lon="6.67733">
        <ele>1033</ele>
        <time>2022-04-14T07:33:46Z</time>
      </trkpt>
      <trkpt lat="45.93571" lon="6.67738">
        <ele>1032</ele>
        <time>2022-04-14T07:33:48Z</time>
      </trkpt>
      <trkpt lat="45.93566" lon="6.6774">
        <ele>1031</ele>
        <time>2022-04-14T07:33:50Z</time>
      </trkpt>
      <trkpt lat="45.93554" lon="6.67736">
        <ele>1030</ele>
        <time>2022-04-14T07:33:54Z</time>
      </trkpt>
      <trkpt lat="45.93548" lon="6.67731">
        <ele>1028</ele>
        <time>2022-04-14T07:33:59Z</time>
      </trkpt>
      <trkpt lat="45.93547" lon="6.67725">
        <ele>1027</ele>
        <time>2022-04-14T07:34:01Z</time>
      </trkpt>
      <trkpt lat="45.93551" lon="6.67634">
        <ele>1020</ele>
        <time>2022-04-14T07:34:32Z</time>
      </trkpt>
      <trkpt lat="45.93552" lon="6.67627">
        <ele>1019</ele>
        <time>2022-04-14T07:34:34Z</time>
      </trkpt>
      <trkpt lat="45.93557" lon="6.67616">
        <ele>1018</ele>
        <time>2022-04-14T07:34:38Z</time>
      </trkpt>
      <trkpt lat="45.9356" lon="6.67609">
        <ele>1018</ele>
        <time>2022-04-14T07:34:41Z</time>
      </trkpt>
      <trkpt lat="45.93562" lon="6.67602">
        <ele>1018</ele>
        <time>2022-04-14T07:34:43Z</time>
      </trkpt>
      <trkpt lat="45.9357" lon="6.67592">
        <ele>1018</ele>
        <time>2022-04-14T07:34:47Z</time>
      </trkpt>
      <trkpt lat="45.93609" lon="6.6756">
        <ele>1015</ele>
        <time>2022-04-14T07:35:03Z</time>
      </trkpt>
      <trkpt lat="45.93612" lon="6.67555">
        <ele>1015</ele>
        <time>2022-04-14T07:35:05Z</time>
      </trkpt>
      <trkpt lat="45.93617" lon="6.67544">
        <ele>1014</ele>
        <time>2022-04-14T07:35:09Z</time>
      </trkpt>
      <trkpt lat="45.93636" lon="6.67529">
        <ele>1013</ele>
        <time>2022-04-14T07:35:19Z</time>
      </trkpt>
      <trkpt lat="45.93641" lon="6.67527">
        <ele>1013</ele>
        <time>2022-04-14T07:35:21Z</time>
      </trkpt>
      <trkpt lat="45.93647" lon="6.67517">
        <ele>1012</ele>
        <time>2022-04-14T07:35:25Z</time>
      </trkpt>
      <trkpt lat="45.9365" lon="6.67511">
        <ele>1012</ele>
        <time>2022-04-14T07:35:27Z</time>
      </trkpt>
      <trkpt lat="45.93652" lon="6.67506">
        <ele>1013</ele>
        <time>2022-04-14T07:35:29Z</time>
      </trkpt>
      <trkpt lat="45.93656" lon="6.67492">
        <ele>1013</ele>
        <time>2022-04-14T07:35:34Z</time>
      </trkpt>
      <trkpt lat="45.93657" lon="6.67486">
        <ele>1014</ele>
        <time>2022-04-14T07:35:36Z</time>
      </trkpt>
      <trkpt lat="45.93656" lon="6.67479">
        <ele>1014</ele>
        <time>2022-04-14T07:35:38Z</time>
      </trkpt>
      <trkpt lat="45.93654" lon="6.67474">
        <ele>1015</ele>
        <time>2022-04-14T07:35:40Z</time>
      </trkpt>
      <trkpt lat="45.93648" lon="6.67464">
        <ele>1015</ele>
        <time>2022-04-14T07:35:46Z</time>
      </trkpt>
      <trkpt lat="45.93645" lon="6.67458">
        <ele>1016</ele>
        <time>2022-04-14T07:35:49Z</time>
      </trkpt>
      <trkpt lat="45.93643" lon="6.67441">
        <ele>1016</ele>
        <time>2022-04-14T07:35:55Z</time>
      </trkpt>
      <trkpt lat="45.93637" lon="6.67429">
        <ele>1018</ele>
        <time>2022-04-14T07:36:00Z</time>
      </trkpt>
      <trkpt lat="45.93637" lon="6.67421">
        <ele>1019</ele>
        <time>2022-04-14T07:36:03Z</time>
      </trkpt>
      <trkpt lat="45.93641" lon="6.67416">
        <ele>1019</ele>
        <time>2022-04-14T07:36:06Z</time>
      </trkpt>
      <trkpt lat="45.93646" lon="6.67415">
        <ele>1021</ele>
        <time>2022-04-14T07:36:09Z</time>
      </trkpt>
      <trkpt lat="45.93655" lon="6.67419">
        <ele>1022</ele>
        <time>2022-04-14T07:36:15Z</time>
      </trkpt>
      <trkpt lat="45.93664" lon="6.67427">
        <ele>1023</ele>
        <time>2022-04-14T07:36:21Z</time>
      </trkpt>
      <trkpt lat="45.93665" lon="6.67422">
        <ele>1030</ele>
        <time>2022-04-14T07:37:24Z</time>
      </trkpt>
      <trkpt lat="45.93667" lon="6.67406">
        <ele>1032</ele>
        <time>2022-04-14T07:37:31Z</time>
      </trkpt>
      <trkpt lat="45.93669" lon="6.67399">
        <ele>1033</ele>
        <time>2022-04-14T07:37:36Z</time>
      </trkpt>
      <trkpt lat="45.93667" lon="6.67391">
        <ele>1033</ele>
        <time>2022-04-14T07:37:41Z</time>
      </trkpt>
      <trkpt lat="45.93664" lon="6.67385">
        <ele>1034</ele>
        <time>2022-04-14T07:37:44Z</time>
      </trkpt>
      <trkpt lat="45.9366" lon="6.6737">
        <ele>1037</ele>
        <time>2022-04-14T07:37:52Z</time>
      </trkpt>
      <trkpt lat="45.93654" lon="6.67358">
        <ele>1038</ele>
        <time>2022-04-14T07:37:59Z</time>
      </trkpt>
      <trkpt lat="45.93654" lon="6.67351">
        <ele>1040</ele>
        <time>2022-04-14T07:38:04Z</time>
      </trkpt>
      <trkpt lat="45.93656" lon="6.67345">
        <ele>1040</ele>
        <time>2022-04-14T07:38:08Z</time>
      </trkpt>
      <trkpt lat="45.93665" lon="6.67336">
        <ele>1043</ele>
        <time>2022-04-14T07:38:20Z</time>
      </trkpt>
      <trkpt lat="45.9367" lon="6.67333">
        <ele>1044</ele>
        <time>2022-04-14T07:38:26Z</time>
      </trkpt>
      <trkpt lat="45.93675" lon="6.67332">
        <ele>1045</ele>
        <time>2022-04-14T07:38:30Z</time>
      </trkpt>
      <trkpt lat="45.93688" lon="6.67343">
        <ele>1047</ele>
        <time>2022-04-14T07:38:40Z</time>
      </trkpt>
      <trkpt lat="45.93705" lon="6.67353">
        <ele>1049</ele>
        <time>2022-04-14T07:38:52Z</time>
      </trkpt>
      <trkpt lat="45.93723" lon="6.67387">
        <ele>1052</ele>
        <time>2022-04-14T07:39:11Z</time>
      </trkpt>
      <trkpt lat="45.93729" lon="6.67396">
        <ele>1053</ele>
        <time>2022-04-14T07:39:18Z</time>
      </trkpt>
      <trkpt lat="45.93734" lon="6.67401">
        <ele>1055</ele>
        <time>2022-04-14T07:39:24Z</time>
      </trkpt>
      <trkpt lat="45.93738" lon="6.67403">
        <ele>1056</ele>
        <time>2022-04-14T07:39:29Z</time>
      </trkpt>
      <trkpt lat="45.93743" lon="6.67402">
        <ele>1056</ele>
        <time>2022-04-14T07:39:33Z</time>
      </trkpt>
      <trkpt lat="45.9378" lon="6.67379">
        <ele>1064</ele>
        <time>2022-04-14T07:40:04Z</time>
      </trkpt>
      <trkpt lat="45.93805" lon="6.67355">
        <ele>1068</ele>
        <time>2022-04-14T07:40:25Z</time>
      </trkpt>
      <trkpt lat="45.93814" lon="6.67323">
        <ele>1074</ele>
        <time>2022-04-14T07:40:48Z</time>
      </trkpt>
      <trkpt lat="45.93825" lon="6.67308">
        <ele>1076</ele>
        <time>2022-04-14T07:41:01Z</time>
      </trkpt>
      <trkpt lat="45.93834" lon="6.67303">
        <ele>1078</ele>
        <time>2022-04-14T07:41:10Z</time>
      </trkpt>
      <trkpt lat="45.9385" lon="6.67282">
        <ele>1081</ele>
        <time>2022-04-14T07:41:29Z</time>
      </trkpt>
      <trkpt lat="45.93854" lon="6.67284">
        <ele>1082</ele>
        <time>2022-04-14T07:41:33Z</time>
      </trkpt>
      <trkpt lat="45.93853" lon="6.67295">
        <ele>1085</ele>
        <time>2022-04-14T07:41:43Z</time>
      </trkpt>
      <trkpt lat="45.93856" lon="6.67308">
        <ele>1086</ele>
        <time>2022-04-14T07:41:50Z</time>
      </trkpt>
      <trkpt lat="45.93857" lon="6.67315">
        <ele>1086</ele>
        <time>2022-04-14T07:41:53Z</time>
      </trkpt>
      <trkpt lat="45.93861" lon="6.6732">
        <ele>1087</ele>
        <time>2022-04-14T07:41:57Z</time>
      </trkpt>
      <trkpt lat="45.93866" lon="6.67325">
        <ele>1088</ele>
        <time>2022-04-14T07:42:01Z</time>
      </trkpt>
      <trkpt lat="45.93868" lon="6.67334">
        <ele>1088</ele>
        <time>2022-04-14T07:42:04Z</time>
      </trkpt>
      <trkpt lat="45.93869" lon="6.6734">
        <ele>1088</ele>
        <time>2022-04-14T07:42:06Z</time>
      </trkpt>
      <trkpt lat="45.93874" lon="6.67344">
        <ele>1088</ele>
        <time>2022-04-14T07:42:09Z</time>
      </trkpt>
      <trkpt lat="45.93881" lon="6.67348">
        <ele>1089</ele>
        <time>2022-04-14T07:42:16Z</time>
      </trkpt>
      <trkpt lat="45.93885" lon="6.67365">
        <ele>1090</ele>
        <time>2022-04-14T07:42:23Z</time>
      </trkpt>
      <trkpt lat="45.93884" lon="6.67376">
        <ele>1091</ele>
        <time>2022-04-14T07:42:29Z</time>
      </trkpt>
      <trkpt lat="45.93887" lon="6.67381">
        <ele>1092</ele>
        <time>2022-04-14T07:42:32Z</time>
      </trkpt>
      <trkpt lat="45.9389" lon="6.67386">
        <ele>1092</ele>
        <time>2022-04-14T07:42:35Z</time>
      </trkpt>
      <trkpt lat="45.93892" lon="6.67395">
        <ele>1093</ele>
        <time>2022-04-14T07:42:41Z</time>
      </trkpt>
      <trkpt lat="45.93895" lon="6.67401">
        <ele>1095</ele>
        <time>2022-04-14T07:42:48Z</time>
      </trkpt>
      <trkpt lat="45.939" lon="6.674">
        <ele>1097</ele>
        <time>2022-04-14T07:42:56Z</time>
      </trkpt>
      <trkpt lat="45.93906" lon="6.67401">
        <ele>1098</ele>
        <time>2022-04-14T07:43:01Z</time>
      </trkpt>
      <trkpt lat="45.93909" lon="6.67395">
        <ele>1099</ele>
        <time>2022-04-14T07:43:05Z</time>
      </trkpt>
      <trkpt lat="45.93914" lon="6.6739">
        <ele>1100</ele>
        <time>2022-04-14T07:43:09Z</time>
      </trkpt>
      <trkpt lat="45.93922" lon="6.67379">
        <ele>1101</ele>
        <time>2022-04-14T07:43:20Z</time>
      </trkpt>
      <trkpt lat="45.93934" lon="6.67363">
        <ele>1103</ele>
        <time>2022-04-14T07:43:32Z</time>
      </trkpt>
      <trkpt lat="45.93936" lon="6.67355">
        <ele>1104</ele>
        <time>2022-04-14T07:43:36Z</time>
      </trkpt>
      <trkpt lat="45.93936" lon="6.67349">
        <ele>1105</ele>
        <time>2022-04-14T07:43:40Z</time>
      </trkpt>
      <trkpt lat="45.93936" lon="6.67342">
        <ele>1106</ele>
        <time>2022-04-14T07:43:44Z</time>
      </trkpt>
      <trkpt lat="45.9394" lon="6.67319">
        <ele>1110</ele>
        <time>2022-04-14T07:44:02Z</time>
      </trkpt>
      <trkpt lat="45.93947" lon="6.67316">
        <ele>1113</ele>
        <time>2022-04-14T07:44:17Z</time>
      </trkpt>
      <trkpt lat="45.9396" lon="6.67305">
        <ele>1115</ele>
        <time>2022-04-14T07:44:26Z</time>
      </trkpt>
      <trkpt lat="45.93974" lon="6.67284">
        <ele>1117</ele>
        <time>2022-04-14T07:44:35Z</time>
      </trkpt>
      <trkpt lat="45.93978" lon="6.67279">
        <ele>1117</ele>
        <time>2022-04-14T07:44:38Z</time>
      </trkpt>
      <trkpt lat="45.93982" lon="6.6728">
        <ele>1118</ele>
        <time>2022-04-14T07:44:42Z</time>
      </trkpt>
      <trkpt lat="45.93988" lon="6.67279">
        <ele>1118</ele>
        <time>2022-04-14T07:44:45Z</time>
      </trkpt>
      <trkpt lat="45.93992" lon="6.67278">
        <ele>1118</ele>
        <time>2022-04-14T07:44:47Z</time>
      </trkpt>
      <trkpt lat="45.93996" lon="6.67277">
        <ele>1119</ele>
        <time>2022-04-14T07:44:50Z</time>
      </trkpt>
      <trkpt lat="45.9401" lon="6.67274">
        <ele>1121</ele>
        <time>2022-04-14T07:45:04Z</time>
      </trkpt>
      <trkpt lat="45.94019" lon="6.67268">
        <ele>1123</ele>
        <time>2022-04-14T07:45:13Z</time>
      </trkpt>
      <trkpt lat="45.94035" lon="6.67264">
        <ele>1126</ele>
        <time>2022-04-14T07:45:30Z</time>
      </trkpt>
      <trkpt lat="45.94056" lon="6.67273">
        <ele>1131</ele>
        <time>2022-04-14T07:45:56Z</time>
      </trkpt>
      <trkpt lat="45.94066" lon="6.67272">
        <ele>1134</ele>
        <time>2022-04-14T07:46:09Z</time>
      </trkpt>
      <trkpt lat="45.94075" lon="6.67265">
        <ele>1136</ele>
        <time>2022-04-14T07:46:18Z</time>
      </trkpt>
      <trkpt lat="45.94091" lon="6.67257">
        <ele>1140</ele>
        <time>2022-04-14T07:46:35Z</time>
      </trkpt>
      <trkpt lat="45.94104" lon="6.67247">
        <ele>1143</ele>
        <time>2022-04-14T07:46:48Z</time>
      </trkpt>
      <trkpt lat="45.94107" lon="6.67242">
        <ele>1144</ele>
        <time>2022-04-14T07:46:52Z</time>
      </trkpt>
      <trkpt lat="45.94117" lon="6.67234">
        <ele>1146</ele>
        <time>2022-04-14T07:47:04Z</time>
      </trkpt>
      <trkpt lat="45.94123" lon="6.67226">
        <ele>1148</ele>
        <time>2022-04-14T07:47:15Z</time>
      </trkpt>
      <trkpt lat="45.94128" lon="6.67223">
        <ele>1149</ele>
        <time>2022-04-14T07:47:20Z</time>
      </trkpt>
      <trkpt lat="45.9413" lon="6.67217">
        <ele>1150</ele>
        <time>2022-04-14T07:47:26Z</time>
      </trkpt>
      <trkpt lat="45.94134" lon="6.67214">
        <ele>1151</ele>
        <time>2022-04-14T07:47:31Z</time>
      </trkpt>
      <trkpt lat="45.94143" lon="6.67202">
        <ele>1154</ele>
        <time>2022-04-14T07:47:44Z</time>
      </trkpt>
      <trkpt lat="45.94147" lon="6.67199">
        <ele>1156</ele>
        <time>2022-04-14T07:47:51Z</time>
      </trkpt>
      <trkpt lat="45.94151" lon="6.67194">
        <ele>1158</ele>
        <time>2022-04-14T07:48:01Z</time>
      </trkpt>
      <trkpt lat="45.94157" lon="6.67202">
        <ele>1162</ele>
        <time>2022-04-14T07:48:21Z</time>
      </trkpt>
      <trkpt lat="45.94158" lon="6.67208">
        <ele>1163</ele>
        <time>2022-04-14T07:48:26Z</time>
      </trkpt>
      <trkpt lat="45.94161" lon="6.67213">
        <ele>1164</ele>
        <time>2022-04-14T07:48:30Z</time>
      </trkpt>
      <trkpt lat="45.94165" lon="6.67225">
        <ele>1167</ele>
        <time>2022-04-14T07:48:41Z</time>
      </trkpt>
      <trkpt lat="45.94169" lon="6.6723">
        <ele>1168</ele>
        <time>2022-04-14T07:48:45Z</time>
      </trkpt>
      <trkpt lat="45.94172" lon="6.67237">
        <ele>1169</ele>
        <time>2022-04-14T07:48:50Z</time>
      </trkpt>
      <trkpt lat="45.94176" lon="6.67242">
        <ele>1169</ele>
        <time>2022-04-14T07:48:54Z</time>
      </trkpt>
      <trkpt lat="45.94185" lon="6.6726">
        <ele>1172</ele>
        <time>2022-04-14T07:49:06Z</time>
      </trkpt>
      <trkpt lat="45.94188" lon="6.67275">
        <ele>1174</ele>
        <time>2022-04-14T07:49:16Z</time>
      </trkpt>
      <trkpt lat="45.94196" lon="6.67289">
        <ele>1177</ele>
        <time>2022-04-14T07:49:28Z</time>
      </trkpt>
      <trkpt lat="45.942" lon="6.67294">
        <ele>1178</ele>
        <time>2022-04-14T07:49:33Z</time>
      </trkpt>
      <trkpt lat="45.94209" lon="6.67299">
        <ele>1180</ele>
        <time>2022-04-14T07:49:44Z</time>
      </trkpt>
      <trkpt lat="45.94221" lon="6.67296">
        <ele>1184</ele>
        <time>2022-04-14T07:49:58Z</time>
      </trkpt>
      <trkpt lat="45.94228" lon="6.67289">
        <ele>1186</ele>
        <time>2022-04-14T07:50:09Z</time>
      </trkpt>
      <trkpt lat="45.94239" lon="6.67279">
        <ele>1189</ele>
        <time>2022-04-14T07:50:23Z</time>
      </trkpt>
      <trkpt lat="45.94254" lon="6.67257">
        <ele>1193</ele>
        <time>2022-04-14T07:50:40Z</time>
      </trkpt>
      <trkpt lat="45.94261" lon="6.67235">
        <ele>1195</ele>
        <time>2022-04-14T07:50:50Z</time>
      </trkpt>
      <trkpt lat="45.94263" lon="6.67219">
        <ele>1197</ele>
        <time>2022-04-14T07:50:57Z</time>
      </trkpt>
      <trkpt lat="45.94263" lon="6.67205">
        <ele>1199</ele>
        <time>2022-04-14T07:51:08Z</time>
      </trkpt>
      <trkpt lat="45.94261" lon="6.67182">
        <ele>1204</ele>
        <time>2022-04-14T07:51:26Z</time>
      </trkpt>
      <trkpt lat="45.94263" lon="6.67172">
        <ele>1207</ele>
        <time>2022-04-14T07:51:37Z</time>
      </trkpt>
      <trkpt lat="45.94268" lon="6.67162">
        <ele>1209</ele>
        <time>2022-04-14T07:51:48Z</time>
      </trkpt>
      <trkpt lat="45.94272" lon="6.6714">
        <ele>1213</ele>
        <time>2022-04-14T07:52:02Z</time>
      </trkpt>
      <trkpt lat="45.94271" lon="6.6713">
        <ele>1215</ele>
        <time>2022-04-14T07:52:10Z</time>
      </trkpt>
      <trkpt lat="45.94267" lon="6.67123">
        <ele>1216</ele>
        <time>2022-04-14T07:52:15Z</time>
      </trkpt>
      <trkpt lat="45.94265" lon="6.67114">
        <ele>1217</ele>
        <time>2022-04-14T07:52:22Z</time>
      </trkpt>
      <trkpt lat="45.94261" lon="6.67105">
        <ele>1219</ele>
        <time>2022-04-14T07:52:31Z</time>
      </trkpt>
      <trkpt lat="45.94253" lon="6.67094">
        <ele>1222</ele>
        <time>2022-04-14T07:52:43Z</time>
      </trkpt>
      <trkpt lat="45.9424" lon="6.67067">
        <ele>1229</ele>
        <time>2022-04-14T07:53:13Z</time>
      </trkpt>
      <trkpt lat="45.94237" lon="6.6706">
        <ele>1230</ele>
        <time>2022-04-14T07:53:19Z</time>
      </trkpt>
      <trkpt lat="45.94236" lon="6.6705">
        <ele>1231</ele>
        <time>2022-04-14T07:53:27Z</time>
      </trkpt>
      <trkpt lat="45.94227" lon="6.67027">
        <ele>1236</ele>
        <time>2022-04-14T07:53:49Z</time>
      </trkpt>
      <trkpt lat="45.94225" lon="6.6701">
        <ele>1239</ele>
        <time>2022-04-14T07:54:01Z</time>
      </trkpt>
      <trkpt lat="45.9422" lon="6.66997">
        <ele>1241</ele>
        <time>2022-04-14T07:54:10Z</time>
      </trkpt>
      <trkpt lat="45.9421" lon="6.66978">
        <ele>1244</ele>
        <time>2022-04-14T07:54:27Z</time>
      </trkpt>
      <trkpt lat="45.94208" lon="6.66968">
        <ele>1245</ele>
        <time>2022-04-14T07:54:35Z</time>
      </trkpt>
      <trkpt lat="45.94204" lon="6.66961">
        <ele>1246</ele>
        <time>2022-04-14T07:54:40Z</time>
      </trkpt>
      <trkpt lat="45.94203" lon="6.66955">
        <ele>1247</ele>
        <time>2022-04-14T07:54:47Z</time>
      </trkpt>
      <trkpt lat="45.94202" lon="6.66946">
        <ele>1250</ele>
        <time>2022-04-14T07:54:57Z</time>
      </trkpt>
      <trkpt lat="45.94203" lon="6.66937">
        <ele>1252</ele>
        <time>2022-04-14T07:55:07Z</time>
      </trkpt>
      <trkpt lat="45.94214" lon="6.66932">
        <ele>1255</ele>
        <time>2022-04-14T07:55:22Z</time>
      </trkpt>
      <trkpt lat="45.94225" lon="6.66934">
        <ele>1257</ele>
        <time>2022-04-14T07:55:37Z</time>
      </trkpt>
      <trkpt lat="45.94233" lon="6.66932">
        <ele>1259</ele>
        <time>2022-04-14T07:55:48Z</time>
      </trkpt>
      <trkpt lat="45.94233" lon="6.66923">
        <ele>1259</ele>
        <time>2022-04-14T07:56:01Z</time>
      </trkpt>
      <trkpt lat="45.94236" lon="6.66915">
        <ele>1260</ele>
        <time>2022-04-14T07:56:31Z</time>
      </trkpt>
      <trkpt lat="45.9424" lon="6.66898">
        <ele>1263</ele>
        <time>2022-04-14T07:56:46Z</time>
      </trkpt>
      <trkpt lat="45.94239" lon="6.6691">
        <ele>1263</ele>
        <time>2022-04-14T07:56:59Z</time>
      </trkpt>
      <trkpt lat="45.94238" lon="6.66916">
        <ele>1261</ele>
        <time>2022-04-14T07:57:02Z</time>
      </trkpt>
      <trkpt lat="45.94243" lon="6.66922">
        <ele>1262</ele>
        <time>2022-04-14T07:57:12Z</time>
      </trkpt>
      <trkpt lat="45.94248" lon="6.66924">
        <ele>1265</ele>
        <time>2022-04-14T07:57:22Z</time>
      </trkpt>
      <trkpt lat="45.94253" lon="6.66926">
        <ele>1263</ele>
        <time>2022-04-14T07:57:32Z</time>
      </trkpt>
      <trkpt lat="45.94257" lon="6.66926">
        <ele>1268</ele>
        <time>2022-04-14T07:57:43Z</time>
      </trkpt>
      <trkpt lat="45.94269" lon="6.66922">
        <ele>1271</ele>
        <time>2022-04-14T07:57:56Z</time>
      </trkpt>
      <trkpt lat="45.94277" lon="6.66926">
        <ele>1273</ele>
        <time>2022-04-14T07:58:06Z</time>
      </trkpt>
      <trkpt lat="45.94283" lon="6.66925">
        <ele>1275</ele>
        <time>2022-04-14T07:58:14Z</time>
      </trkpt>
      <trkpt lat="45.94302" lon="6.66932">
        <ele>1284</ele>
        <time>2022-04-14T07:58:46Z</time>
      </trkpt>
      <trkpt lat="45.94308" lon="6.66932">
        <ele>1286</ele>
        <time>2022-04-14T07:58:56Z</time>
      </trkpt>
      <trkpt lat="45.9432" lon="6.66942">
        <ele>1292</ele>
        <time>2022-04-14T07:59:21Z</time>
      </trkpt>
      <trkpt lat="45.94331" lon="6.66943">
        <ele>1297</ele>
        <time>2022-04-14T07:59:42Z</time>
      </trkpt>
      <trkpt lat="45.94349" lon="6.66936">
        <ele>1303</ele>
        <time>2022-04-14T08:00:07Z</time>
      </trkpt>
      <trkpt lat="45.94356" lon="6.66937">
        <ele>1305</ele>
        <time>2022-04-14T08:00:17Z</time>
      </trkpt>
      <trkpt lat="45.94363" lon="6.6693">
        <ele>1307</ele>
        <time>2022-04-14T08:00:24Z</time>
      </trkpt>
      <trkpt lat="45.94367" lon="6.66925">
        <ele>1307</ele>
        <time>2022-04-14T08:00:27Z</time>
      </trkpt>
      <trkpt lat="45.9437" lon="6.66921">
        <ele>1308</ele>
        <time>2022-04-14T08:00:32Z</time>
      </trkpt>
      <trkpt lat="45.94375" lon="6.6692">
        <ele>1309</ele>
        <time>2022-04-14T08:00:44Z</time>
      </trkpt>
      <trkpt lat="45.94381" lon="6.66922">
        <ele>1312</ele>
        <time>2022-04-14T08:00:54Z</time>
      </trkpt>
      <trkpt lat="45.94399" lon="6.66903">
        <ele>1319</ele>
        <time>2022-04-14T08:01:24Z</time>
      </trkpt>
      <trkpt lat="45.94405" lon="6.66891">
        <ele>1322</ele>
        <time>2022-04-14T08:01:36Z</time>
      </trkpt>
      <trkpt lat="45.94417" lon="6.66879">
        <ele>1325</ele>
        <time>2022-04-14T08:01:50Z</time>
      </trkpt>
      <trkpt lat="45.94419" lon="6.66872">
        <ele>1327</ele>
        <time>2022-04-14T08:01:55Z</time>
      </trkpt>
      <trkpt lat="45.94431" lon="6.66854">
        <ele>1330</ele>
        <time>2022-04-14T08:02:11Z</time>
      </trkpt>
      <trkpt lat="45.9445" lon="6.66827">
        <ele>1338</ele>
        <time>2022-04-14T08:02:40Z</time>
      </trkpt>
      <trkpt lat="45.94452" lon="6.66846">
        <ele>1344</ele>
        <time>2022-04-14T08:03:12Z</time>
      </trkpt>
      <trkpt lat="45.94451" lon="6.66863">
        <ele>1347</ele>
        <time>2022-04-14T08:03:26Z</time>
      </trkpt>
      <trkpt lat="45.94458" lon="6.669">
        <ele>1354</ele>
        <time>2022-04-14T08:03:56Z</time>
      </trkpt>
      <trkpt lat="45.94463" lon="6.6693">
        <ele>1359</ele>
        <time>2022-04-14T08:04:20Z</time>
      </trkpt>
      <trkpt lat="45.94473" lon="6.66958">
        <ele>1365</ele>
        <time>2022-04-14T08:04:50Z</time>
      </trkpt>
      <trkpt lat="45.94478" lon="6.66977">
        <ele>1369</ele>
        <time>2022-04-14T08:05:07Z</time>
      </trkpt>
      <trkpt lat="45.94493" lon="6.67008">
        <ele>1376</ele>
        <time>2022-04-14T08:05:37Z</time>
      </trkpt>
      <trkpt lat="45.9451" lon="6.67032">
        <ele>1384</ele>
        <time>2022-04-14T08:06:11Z</time>
      </trkpt>
      <trkpt lat="45.94517" lon="6.67044">
        <ele>1387</ele>
        <time>2022-04-14T08:06:25Z</time>
      </trkpt>
      <trkpt lat="45.94521" lon="6.67056">
        <ele>1389</ele>
        <time>2022-04-14T08:06:36Z</time>
      </trkpt>
      <trkpt lat="45.94525" lon="6.67061">
        <ele>1390</ele>
        <time>2022-04-14T08:06:40Z</time>
      </trkpt>
      <trkpt lat="45.94529" lon="6.67066">
        <ele>1392</ele>
        <time>2022-04-14T08:06:47Z</time>
      </trkpt>
      <trkpt lat="45.94534" lon="6.67069">
        <ele>1394</ele>
        <time>2022-04-14T08:06:57Z</time>
      </trkpt>
      <trkpt lat="45.94539" lon="6.6706">
        <ele>1397</ele>
        <time>2022-04-14T08:07:08Z</time>
      </trkpt>
      <trkpt lat="45.9454" lon="6.67029">
        <ele>1405</ele>
        <time>2022-04-14T08:07:40Z</time>
      </trkpt>
      <trkpt lat="45.94546" lon="6.67025">
        <ele>1408</ele>
        <time>2022-04-14T08:07:51Z</time>
      </trkpt>
      <trkpt lat="45.94551" lon="6.67014">
        <ele>1413</ele>
        <time>2022-04-14T08:08:13Z</time>
      </trkpt>
      <trkpt lat="45.94555" lon="6.66998">
        <ele>1416</ele>
        <time>2022-04-14T08:08:23Z</time>
      </trkpt>
      <trkpt lat="45.94554" lon="6.6699">
        <ele>1419</ele>
        <time>2022-04-14T08:08:35Z</time>
      </trkpt>
      <trkpt lat="45.94558" lon="6.66961">
        <ele>1424</ele>
        <time>2022-04-14T08:08:58Z</time>
      </trkpt>
      <trkpt lat="45.94556" lon="6.66952">
        <ele>1427</ele>
        <time>2022-04-14T08:09:06Z</time>
      </trkpt>
      <trkpt lat="45.94559" lon="6.66942">
        <ele>1429</ele>
        <time>2022-04-14T08:09:16Z</time>
      </trkpt>
      <trkpt lat="45.94562" lon="6.66926">
        <ele>1433</ele>
        <time>2022-04-14T08:09:31Z</time>
      </trkpt>
      <trkpt lat="45.94565" lon="6.66922">
        <ele>1436</ele>
        <time>2022-04-14T08:09:39Z</time>
      </trkpt>
      <trkpt lat="45.94574" lon="6.66923">
        <ele>1442</ele>
        <time>2022-04-14T08:10:04Z</time>
      </trkpt>
      <trkpt lat="45.94578" lon="6.66915">
        <ele>1444</ele>
        <time>2022-04-14T08:10:15Z</time>
      </trkpt>
      <trkpt lat="45.94582" lon="6.6691">
        <ele>1445</ele>
        <time>2022-04-14T08:10:19Z</time>
      </trkpt>
      <trkpt lat="45.94585" lon="6.66906">
        <ele>1447</ele>
        <time>2022-04-14T08:10:24Z</time>
      </trkpt>
      <trkpt lat="45.94587" lon="6.669">
        <ele>1449</ele>
        <time>2022-04-14T08:10:32Z</time>
      </trkpt>
      <trkpt lat="45.94594" lon="6.66895">
        <ele>1452</ele>
        <time>2022-04-14T08:10:48Z</time>
      </trkpt>
      <trkpt lat="45.946" lon="6.66896">
        <ele>1455</ele>
        <time>2022-04-14T08:10:58Z</time>
      </trkpt>
      <trkpt lat="45.94604" lon="6.66893">
        <ele>1456</ele>
        <time>2022-04-14T08:11:03Z</time>
      </trkpt>
      <trkpt lat="45.94611" lon="6.66892">
        <ele>1459</ele>
        <time>2022-04-14T08:11:14Z</time>
      </trkpt>
      <trkpt lat="45.94619" lon="6.66893">
        <ele>1462</ele>
        <time>2022-04-14T08:11:26Z</time>
      </trkpt>
      <trkpt lat="45.94623" lon="6.66904">
        <ele>1468</ele>
        <time>2022-04-14T08:11:51Z</time>
      </trkpt>
      <trkpt lat="45.94625" lon="6.66925">
        <ele>1474</ele>
        <time>2022-04-14T08:12:18Z</time>
      </trkpt>
      <trkpt lat="45.94626" lon="6.66932">
        <ele>1475</ele>
        <time>2022-04-14T08:12:23Z</time>
      </trkpt>
      <trkpt lat="45.9463" lon="6.6694">
        <ele>1476</ele>
        <time>2022-04-14T08:12:33Z</time>
      </trkpt>
      <trkpt lat="45.94631" lon="6.66954">
        <ele>1479</ele>
        <time>2022-04-14T08:12:45Z</time>
      </trkpt>
      <trkpt lat="45.94634" lon="6.66962">
        <ele>1480</ele>
        <time>2022-04-14T08:12:52Z</time>
      </trkpt>
      <trkpt lat="45.94636" lon="6.66979">
        <ele>1482</ele>
        <time>2022-04-14T08:13:04Z</time>
      </trkpt>
      <trkpt lat="45.94641" lon="6.66994">
        <ele>1484</ele>
        <time>2022-04-14T08:13:14Z</time>
      </trkpt>
      <trkpt lat="45.94641" lon="6.67002">
        <ele>1485</ele>
        <time>2022-04-14T08:13:19Z</time>
      </trkpt>
      <trkpt lat="45.94652" lon="6.67034">
        <ele>1489</ele>
        <time>2022-04-14T08:13:41Z</time>
      </trkpt>
      <trkpt lat="45.94656" lon="6.67062">
        <ele>1493</ele>
        <time>2022-04-14T08:14:01Z</time>
      </trkpt>
      <trkpt lat="45.94656" lon="6.67069">
        <ele>1494</ele>
        <time>2022-04-14T08:14:06Z</time>
      </trkpt>
      <trkpt lat="45.94665" lon="6.67116">
        <ele>1503</ele>
        <time>2022-04-14T08:14:41Z</time>
      </trkpt>
      <trkpt lat="45.94664" lon="6.67123">
        <ele>1503</ele>
        <time>2022-04-14T08:14:46Z</time>
      </trkpt>
      <trkpt lat="45.94664" lon="6.67131">
        <ele>1504</ele>
        <time>2022-04-14T08:14:50Z</time>
      </trkpt>
      <trkpt lat="45.94666" lon="6.67138">
        <ele>1504</ele>
        <time>2022-04-14T08:14:54Z</time>
      </trkpt>
      <trkpt lat="45.9467" lon="6.6715">
        <ele>1506</ele>
        <time>2022-04-14T08:15:03Z</time>
      </trkpt>
      <trkpt lat="45.94673" lon="6.67173">
        <ele>1511</ele>
        <time>2022-04-14T08:15:21Z</time>
      </trkpt>
      <trkpt lat="45.94677" lon="6.67189">
        <ele>1514</ele>
        <time>2022-04-14T08:15:36Z</time>
      </trkpt>
      <trkpt lat="45.94679" lon="6.67198">
        <ele>1516</ele>
        <time>2022-04-14T08:15:44Z</time>
      </trkpt>
      <trkpt lat="45.94684" lon="6.67203">
        <ele>1519</ele>
        <time>2022-04-14T08:15:56Z</time>
      </trkpt>
      <trkpt lat="45.94685" lon="6.67211">
        <ele>1523</ele>
        <time>2022-04-14T08:16:11Z</time>
      </trkpt>
      <trkpt lat="45.9469" lon="6.67211">
        <ele>1525</ele>
        <time>2022-04-14T08:16:21Z</time>
      </trkpt>
      <trkpt lat="45.94695" lon="6.67208">
        <ele>1529</ele>
        <time>2022-04-14T08:16:38Z</time>
      </trkpt>
      <trkpt lat="45.94701" lon="6.67205">
        <ele>1532</ele>
        <time>2022-04-14T08:16:49Z</time>
      </trkpt>
      <trkpt lat="45.94703" lon="6.67199">
        <ele>1535</ele>
        <time>2022-04-14T08:16:59Z</time>
      </trkpt>
      <trkpt lat="45.94705" lon="6.67205">
        <ele>1536</ele>
        <time>2022-04-14T08:17:09Z</time>
      </trkpt>
      <trkpt lat="45.94705" lon="6.67211">
        <ele>1539</ele>
        <time>2022-04-14T08:17:24Z</time>
      </trkpt>
      <trkpt lat="45.94702" lon="6.67216">
        <ele>1541</ele>
        <time>2022-04-14T08:17:29Z</time>
      </trkpt>
      <trkpt lat="45.94697" lon="6.67218">
        <ele>1541</ele>
        <time>2022-04-14T08:17:34Z</time>
      </trkpt>
      <trkpt lat="45.94695" lon="6.67228">
        <ele>1543</ele>
        <time>2022-04-14T08:17:41Z</time>
      </trkpt>
      <trkpt lat="45.94695" lon="6.6725">
        <ele>1545</ele>
        <time>2022-04-14T08:17:54Z</time>
      </trkpt>
      <trkpt lat="45.94696" lon="6.6726">
        <ele>1546</ele>
        <time>2022-04-14T08:18:02Z</time>
      </trkpt>
      <trkpt lat="45.94695" lon="6.67269">
        <ele>1548</ele>
        <time>2022-04-14T08:18:11Z</time>
      </trkpt>
      <trkpt lat="45.94704" lon="6.6729">
        <ele>1552</ele>
        <time>2022-04-14T08:18:31Z</time>
      </trkpt>
      <trkpt lat="45.94716" lon="6.67307">
        <ele>1557</ele>
        <time>2022-04-14T08:18:53Z</time>
      </trkpt>
      <trkpt lat="45.94721" lon="6.67312">
        <ele>1558</ele>
        <time>2022-04-14T08:19:00Z</time>
      </trkpt>
      <trkpt lat="45.94734" lon="6.67325">
        <ele>1560</ele>
        <time>2022-04-14T08:19:24Z</time>
      </trkpt>
      <trkpt lat="45.94738" lon="6.6733">
        <ele>1559</ele>
        <time>2022-04-14T08:19:28Z</time>
      </trkpt>
      <trkpt lat="45.94739" lon="6.67336">
        <ele>1559</ele>
        <time>2022-04-14T08:19:33Z</time>
      </trkpt>
      <trkpt lat="45.94743" lon="6.6734">
        <ele>1560</ele>
        <time>2022-04-14T08:19:37Z</time>
      </trkpt>
      <trkpt lat="45.94741" lon="6.67347">
        <ele>1560</ele>
        <time>2022-04-14T08:19:56Z</time>
      </trkpt>
      <trkpt lat="45.94733" lon="6.67362">
        <ele>1557</ele>
        <time>2022-04-14T08:20:21Z</time>
      </trkpt>
      <trkpt lat="45.94729" lon="6.67352">
        <ele>1554</ele>
        <time>2022-04-14T08:20:53Z</time>
      </trkpt>
      <trkpt lat="45.94724" lon="6.67366">
        <ele>1552</ele>
        <time>2022-04-14T08:21:57Z</time>
      </trkpt>
      <trkpt lat="45.94719" lon="6.67375">
        <ele>1551</ele>
        <time>2022-04-14T08:22:01Z</time>
      </trkpt>
      <trkpt lat="45.9473" lon="6.67379">
        <ele>1547</ele>
        <time>2022-04-14T08:22:09Z</time>
      </trkpt>
      <trkpt lat="45.94741" lon="6.67389">
        <ele>1546</ele>
        <time>2022-04-14T08:22:14Z</time>
      </trkpt>
      <trkpt lat="45.94747" lon="6.67404">
        <ele>1544</ele>
        <time>2022-04-14T08:22:19Z</time>
      </trkpt>
      <trkpt lat="45.94767" lon="6.67478">
        <ele>1539</ele>
        <time>2022-04-14T08:22:46Z</time>
      </trkpt>
      <trkpt lat="45.94767" lon="6.67495">
        <ele>1538</ele>
        <time>2022-04-14T08:22:51Z</time>
      </trkpt>
      <trkpt lat="45.94762" lon="6.67523">
        <ele>1536</ele>
        <time>2022-04-14T08:22:58Z</time>
      </trkpt>
      <trkpt lat="45.94764" lon="6.67534">
        <ele>1536</ele>
        <time>2022-04-14T08:23:01Z</time>
      </trkpt>
      <trkpt lat="45.94769" lon="6.67544">
        <ele>1535</ele>
        <time>2022-04-14T08:23:04Z</time>
      </trkpt>
      <trkpt lat="45.94774" lon="6.67545">
        <ele>1535</ele>
        <time>2022-04-14T08:23:06Z</time>
      </trkpt>
      <trkpt lat="45.94785" lon="6.67558">
        <ele>1534</ele>
        <time>2022-04-14T08:23:44Z</time>
      </trkpt>
      <trkpt lat="45.94791" lon="6.67566">
        <ele>1533</ele>
        <time>2022-04-14T08:23:48Z</time>
      </trkpt>
      <trkpt lat="45.94794" lon="6.67583">
        <ele>1532</ele>
        <time>2022-04-14T08:23:52Z</time>
      </trkpt>
      <trkpt lat="45.94793" lon="6.67592">
        <ele>1531</ele>
        <time>2022-04-14T08:23:55Z</time>
      </trkpt>
      <trkpt lat="45.94792" lon="6.676">
        <ele>1531</ele>
        <time>2022-04-14T08:23:57Z</time>
      </trkpt>
      <trkpt lat="45.94787" lon="6.67605">
        <ele>1530</ele>
        <time>2022-04-14T08:23:59Z</time>
      </trkpt>
      <trkpt lat="45.94778" lon="6.67613">
        <ele>1529</ele>
        <time>2022-04-14T08:24:03Z</time>
      </trkpt>
      <trkpt lat="45.94763" lon="6.67638">
        <ele>1525</ele>
        <time>2022-04-14T08:24:12Z</time>
      </trkpt>
      <trkpt lat="45.9476" lon="6.67642">
        <ele>1525</ele>
        <time>2022-04-14T08:24:14Z</time>
      </trkpt>
      <trkpt lat="45.94755" lon="6.67645">
        <ele>1524</ele>
        <time>2022-04-14T08:24:17Z</time>
      </trkpt>
      <trkpt lat="45.9475" lon="6.67647">
        <ele>1524</ele>
        <time>2022-04-14T08:24:20Z</time>
      </trkpt>
      <trkpt lat="45.94696" lon="6.67638">
        <ele>1518</ele>
        <time>2022-04-14T08:24:43Z</time>
      </trkpt>
      <trkpt lat="45.9469" lon="6.67639">
        <ele>1517</ele>
        <time>2022-04-14T08:24:46Z</time>
      </trkpt>
      <trkpt lat="45.94684" lon="6.67642">
        <ele>1516</ele>
        <time>2022-04-14T08:24:49Z</time>
      </trkpt>
      <trkpt lat="45.94683" lon="6.67654">
        <ele>1514</ele>
        <time>2022-04-14T08:25:19Z</time>
      </trkpt>
      <trkpt lat="45.9468" lon="6.6766">
        <ele>1514</ele>
        <time>2022-04-14T08:25:22Z</time>
      </trkpt>
      <trkpt lat="45.94674" lon="6.67707">
        <ele>1508</ele>
        <time>2022-04-14T08:25:36Z</time>
      </trkpt>
      <trkpt lat="45.94692" lon="6.67775">
        <ele>1498</ele>
        <time>2022-04-14T08:25:57Z</time>
      </trkpt>
      <trkpt lat="45.94701" lon="6.67792">
        <ele>1494</ele>
        <time>2022-04-14T08:26:03Z</time>
      </trkpt>
      <trkpt lat="45.94703" lon="6.67804">
        <ele>1493</ele>
        <time>2022-04-14T08:26:06Z</time>
      </trkpt>
      <trkpt lat="45.94692" lon="6.67834">
        <ele>1489</ele>
        <time>2022-04-14T08:26:15Z</time>
      </trkpt>
      <trkpt lat="45.94687" lon="6.67857">
        <ele>1486</ele>
        <time>2022-04-14T08:26:21Z</time>
      </trkpt>
      <trkpt lat="45.94685" lon="6.67864">
        <ele>1486</ele>
        <time>2022-04-14T08:26:23Z</time>
      </trkpt>
      <trkpt lat="45.94683" lon="6.67874">
        <ele>1484</ele>
        <time>2022-04-14T08:26:26Z</time>
      </trkpt>
      <trkpt lat="45.94679" lon="6.67879">
        <ele>1484</ele>
        <time>2022-04-14T08:26:28Z</time>
      </trkpt>
      <trkpt lat="45.94672" lon="6.67878">
        <ele>1483</ele>
        <time>2022-04-14T08:26:30Z</time>
      </trkpt>
      <trkpt lat="45.94668" lon="6.67871">
        <ele>1482</ele>
        <time>2022-04-14T08:26:32Z</time>
      </trkpt>
      <trkpt lat="45.94671" lon="6.67841">
        <ele>1478</ele>
        <time>2022-04-14T08:26:40Z</time>
      </trkpt>
      <trkpt lat="45.94672" lon="6.67825">
        <ele>1477</ele>
        <time>2022-04-14T08:26:44Z</time>
      </trkpt>
      <trkpt lat="45.94671" lon="6.67818">
        <ele>1476</ele>
        <time>2022-04-14T08:26:46Z</time>
      </trkpt>
      <trkpt lat="45.94668" lon="6.67812">
        <ele>1475</ele>
        <time>2022-04-14T08:26:48Z</time>
      </trkpt>
      <trkpt lat="45.94663" lon="6.67807">
        <ele>1475</ele>
        <time>2022-04-14T08:26:50Z</time>
      </trkpt>
      <trkpt lat="45.94649" lon="6.67799">
        <ele>1472</ele>
        <time>2022-04-14T08:26:57Z</time>
      </trkpt>
      <trkpt lat="45.94634" lon="6.67769">
        <ele>1467</ele>
        <time>2022-04-14T08:27:10Z</time>
      </trkpt>
      <trkpt lat="45.94632" lon="6.6776">
        <ele>1466</ele>
        <time>2022-04-14T08:27:13Z</time>
      </trkpt>
      <trkpt lat="45.94625" lon="6.6775">
        <ele>1465</ele>
        <time>2022-04-14T08:27:17Z</time>
      </trkpt>
      <trkpt lat="45.94618" lon="6.67758">
        <ele>1462</ele>
        <time>2022-04-14T08:27:22Z</time>
      </trkpt>
      <trkpt lat="45.94619" lon="6.67765">
        <ele>1461</ele>
        <time>2022-04-14T08:27:24Z</time>
      </trkpt>
      <trkpt lat="45.94629" lon="6.6781">
        <ele>1454</ele>
        <time>2022-04-14T08:27:39Z</time>
      </trkpt>
      <trkpt lat="45.94626" lon="6.67817">
        <ele>1453</ele>
        <time>2022-04-14T08:27:42Z</time>
      </trkpt>
      <trkpt lat="45.94622" lon="6.67821">
        <ele>1453</ele>
        <time>2022-04-14T08:27:46Z</time>
      </trkpt>
      <trkpt lat="45.94631" lon="6.67822">
        <ele>1453</ele>
        <time>2022-04-14T08:27:52Z</time>
      </trkpt>
      <trkpt lat="45.94626" lon="6.67833">
        <ele>1452</ele>
        <time>2022-04-14T08:27:58Z</time>
      </trkpt>
      <trkpt lat="45.94624" lon="6.6785">
        <ele>1449</ele>
        <time>2022-04-14T08:28:04Z</time>
      </trkpt>
      <trkpt lat="45.9462" lon="6.67857">
        <ele>1448</ele>
        <time>2022-04-14T08:28:06Z</time>
      </trkpt>
      <trkpt lat="45.94614" lon="6.67859">
        <ele>1447</ele>
        <time>2022-04-14T08:28:08Z</time>
      </trkpt>
      <trkpt lat="45.94598" lon="6.67846">
        <ele>1443</ele>
        <time>2022-04-14T08:28:15Z</time>
      </trkpt>
      <trkpt lat="45.94597" lon="6.67839">
        <ele>1442</ele>
        <time>2022-04-14T08:28:17Z</time>
      </trkpt>
      <trkpt lat="45.94599" lon="6.67822">
        <ele>1439</ele>
        <time>2022-04-14T08:28:22Z</time>
      </trkpt>
      <trkpt lat="45.94599" lon="6.67813">
        <ele>1438</ele>
        <time>2022-04-14T08:28:25Z</time>
      </trkpt>
      <trkpt lat="45.94593" lon="6.67809">
        <ele>1437</ele>
        <time>2022-04-14T08:28:27Z</time>
      </trkpt>
      <trkpt lat="45.94588" lon="6.67816">
        <ele>1435</ele>
        <time>2022-04-14T08:28:30Z</time>
      </trkpt>
      <trkpt lat="45.94578" lon="6.67834">
        <ele>1433</ele>
        <time>2022-04-14T08:28:37Z</time>
      </trkpt>
      <trkpt lat="45.94574" lon="6.67848">
        <ele>1431</ele>
        <time>2022-04-14T08:28:41Z</time>
      </trkpt>
      <trkpt lat="45.94575" lon="6.67857">
        <ele>1431</ele>
        <time>2022-04-14T08:28:43Z</time>
      </trkpt>
      <trkpt lat="45.94578" lon="6.67865">
        <ele>1431</ele>
        <time>2022-04-14T08:28:45Z</time>
      </trkpt>
      <trkpt lat="45.94581" lon="6.67871">
        <ele>1430</ele>
        <time>2022-04-14T08:28:47Z</time>
      </trkpt>
      <trkpt lat="45.94582" lon="6.67881">
        <ele>1430</ele>
        <time>2022-04-14T08:28:50Z</time>
      </trkpt>
      <trkpt lat="45.94578" lon="6.67887">
        <ele>1430</ele>
        <time>2022-04-14T08:28:53Z</time>
      </trkpt>
      <trkpt lat="45.94565" lon="6.67891">
        <ele>1429</ele>
        <time>2022-04-14T08:28:58Z</time>
      </trkpt>
      <trkpt lat="45.94552" lon="6.67892">
        <ele>1427</ele>
        <time>2022-04-14T08:29:03Z</time>
      </trkpt>
      <trkpt lat="45.94548" lon="6.67897">
        <ele>1426</ele>
        <time>2022-04-14T08:29:06Z</time>
      </trkpt>
      <trkpt lat="45.94541" lon="6.67895">
        <ele>1425</ele>
        <time>2022-04-14T08:29:09Z</time>
      </trkpt>
      <trkpt lat="45.94534" lon="6.67893">
        <ele>1425</ele>
        <time>2022-04-14T08:29:12Z</time>
      </trkpt>
      <trkpt lat="45.94528" lon="6.67894">
        <ele>1425</ele>
        <time>2022-04-14T08:29:15Z</time>
      </trkpt>
      <trkpt lat="45.94524" lon="6.67898">
        <ele>1424</ele>
        <time>2022-04-14T08:29:17Z</time>
      </trkpt>
      <trkpt lat="45.94519" lon="6.67895">
        <ele>1424</ele>
        <time>2022-04-14T08:29:19Z</time>
      </trkpt>
      <trkpt lat="45.94507" lon="6.67883">
        <ele>1423</ele>
        <time>2022-04-14T08:29:26Z</time>
      </trkpt>
      <trkpt lat="45.94497" lon="6.67883">
        <ele>1423</ele>
        <time>2022-04-14T08:29:30Z</time>
      </trkpt>
      <trkpt lat="45.94493" lon="6.67886">
        <ele>1422</ele>
        <time>2022-04-14T08:29:32Z</time>
      </trkpt>
      <trkpt lat="45.94487" lon="6.67887">
        <ele>1422</ele>
        <time>2022-04-14T08:29:35Z</time>
      </trkpt>
      <trkpt lat="45.9448" lon="6.67886">
        <ele>1421</ele>
        <time>2022-04-14T08:29:38Z</time>
      </trkpt>
      <trkpt lat="45.94469" lon="6.67873">
        <ele>1420</ele>
        <time>2022-04-14T08:29:44Z</time>
      </trkpt>
      <trkpt lat="45.94465" lon="6.67867">
        <ele>1420</ele>
        <time>2022-04-14T08:29:47Z</time>
      </trkpt>
      <trkpt lat="45.94459" lon="6.67854">
        <ele>1419</ele>
        <time>2022-04-14T08:29:54Z</time>
      </trkpt>
      <trkpt lat="45.94451" lon="6.67859">
        <ele>1424</ele>
        <time>2022-04-14T08:30:31Z</time>
      </trkpt>
      <trkpt lat="45.94428" lon="6.67874">
        <ele>1431</ele>
        <time>2022-04-14T08:31:05Z</time>
      </trkpt>
      <trkpt lat="45.94425" lon="6.6788">
        <ele>1432</ele>
        <time>2022-04-14T08:31:10Z</time>
      </trkpt>
      <trkpt lat="45.94423" lon="6.67887">
        <ele>1434</ele>
        <time>2022-04-14T08:31:18Z</time>
      </trkpt>
      <trkpt lat="45.94421" lon="6.67893">
        <ele>1436</ele>
        <time>2022-04-14T08:31:23Z</time>
      </trkpt>
      <trkpt lat="45.94419" lon="6.679">
        <ele>1437</ele>
        <time>2022-04-14T08:31:28Z</time>
      </trkpt>
      <trkpt lat="45.94408" lon="6.67932">
        <ele>1442</ele>
        <time>2022-04-14T08:31:55Z</time>
      </trkpt>
      <trkpt lat="45.94399" lon="6.67941">
        <ele>1444</ele>
        <time>2022-04-14T08:32:03Z</time>
      </trkpt>
      <trkpt lat="45.94394" lon="6.67944">
        <ele>1444</ele>
        <time>2022-04-14T08:32:07Z</time>
      </trkpt>
      <trkpt lat="45.94378" lon="6.67949">
        <ele>1442</ele>
        <time>2022-04-14T08:32:16Z</time>
      </trkpt>
      <trkpt lat="45.94365" lon="6.67953">
        <ele>1442</ele>
        <time>2022-04-14T08:32:21Z</time>
      </trkpt>
      <trkpt lat="45.94356" lon="6.67962">
        <ele>1441</ele>
        <time>2022-04-14T08:32:25Z</time>
      </trkpt>
      <trkpt lat="45.9435" lon="6.67974">
        <ele>1440</ele>
        <time>2022-04-14T08:32:29Z</time>
      </trkpt>
      <trkpt lat="45.94349" lon="6.67984">
        <ele>1439</ele>
        <time>2022-04-14T08:32:32Z</time>
      </trkpt>
      <trkpt lat="45.9434" lon="6.68003">
        <ele>1436</ele>
        <time>2022-04-14T08:32:40Z</time>
      </trkpt>
      <trkpt lat="45.94323" lon="6.68022">
        <ele>1433</ele>
        <time>2022-04-14T08:32:49Z</time>
      </trkpt>
      <trkpt lat="45.94318" lon="6.68024">
        <ele>1432</ele>
        <time>2022-04-14T08:32:51Z</time>
      </trkpt>
      <trkpt lat="45.94314" lon="6.68031">
        <ele>1431</ele>
        <time>2022-04-14T08:32:53Z</time>
      </trkpt>
      <trkpt lat="45.94309" lon="6.68046">
        <ele>1430</ele>
        <time>2022-04-14T08:32:57Z</time>
      </trkpt>
      <trkpt lat="45.94293" lon="6.68075">
        <ele>1428</ele>
        <time>2022-04-14T08:33:09Z</time>
      </trkpt>
      <trkpt lat="45.94268" lon="6.68102">
        <ele>1424</ele>
        <time>2022-04-14T08:33:24Z</time>
      </trkpt>
      <trkpt lat="45.94262" lon="6.68107">
        <ele>1423</ele>
        <time>2022-04-14T08:33:27Z</time>
      </trkpt>
      <trkpt lat="45.9423" lon="6.6814">
        <ele>1416</ele>
        <time>2022-04-14T08:33:45Z</time>
      </trkpt>
      <trkpt lat="45.94222" lon="6.68152">
        <ele>1413</ele>
        <time>2022-04-14T08:33:50Z</time>
      </trkpt>
      <trkpt lat="45.94208" lon="6.68164">
        <ele>1410</ele>
        <time>2022-04-14T08:33:57Z</time>
      </trkpt>
      <trkpt lat="45.94207" lon="6.6817">
        <ele>1409</ele>
        <time>2022-04-14T08:34:06Z</time>
      </trkpt>
      <trkpt lat="45.94205" lon="6.68177">
        <ele>1409</ele>
        <time>2022-04-14T08:34:09Z</time>
      </trkpt>
      <trkpt lat="45.94199" lon="6.68191">
        <ele>1411</ele>
        <time>2022-04-14T08:34:22Z</time>
      </trkpt>
      <trkpt lat="45.94194" lon="6.682">
        <ele>1412</ele>
        <time>2022-04-14T08:34:28Z</time>
      </trkpt>
      <trkpt lat="45.94188" lon="6.68208">
        <ele>1411</ele>
        <time>2022-04-14T08:34:35Z</time>
      </trkpt>
      <trkpt lat="45.94182" lon="6.68224">
        <ele>1413</ele>
        <time>2022-04-14T08:34:42Z</time>
      </trkpt>
      <trkpt lat="45.94183" lon="6.68232">
        <ele>1414</ele>
        <time>2022-04-14T08:34:46Z</time>
      </trkpt>
      <trkpt lat="45.94185" lon="6.68239">
        <ele>1414</ele>
        <time>2022-04-14T08:34:50Z</time>
      </trkpt>
      <trkpt lat="45.94191" lon="6.68253">
        <ele>1415</ele>
        <time>2022-04-14T08:34:56Z</time>
      </trkpt>
      <trkpt lat="45.94192" lon="6.68261">
        <ele>1415</ele>
        <time>2022-04-14T08:34:59Z</time>
      </trkpt>
      <trkpt lat="45.94192" lon="6.6827">
        <ele>1413</ele>
        <time>2022-04-14T08:35:07Z</time>
      </trkpt>
      <trkpt lat="45.9419" lon="6.68283">
        <ele>1411</ele>
        <time>2022-04-14T08:35:16Z</time>
      </trkpt>
      <trkpt lat="45.94187" lon="6.68289">
        <ele>1410</ele>
        <time>2022-04-14T08:35:21Z</time>
      </trkpt>
      <trkpt lat="45.9418" lon="6.68298">
        <ele>1407</ele>
        <time>2022-04-14T08:35:31Z</time>
      </trkpt>
      <trkpt lat="45.9418" lon="6.68311">
        <ele>1405</ele>
        <time>2022-04-14T08:35:45Z</time>
      </trkpt>
      <trkpt lat="45.94179" lon="6.68322">
        <ele>1406</ele>
        <time>2022-04-14T08:35:49Z</time>
      </trkpt>
      <trkpt lat="45.94181" lon="6.6833">
        <ele>1407</ele>
        <time>2022-04-14T08:35:53Z</time>
      </trkpt>
      <trkpt lat="45.94182" lon="6.68338">
        <ele>1408</ele>
        <time>2022-04-14T08:35:57Z</time>
      </trkpt>
      <trkpt lat="45.94181" lon="6.68345">
        <ele>1408</ele>
        <time>2022-04-14T08:36:02Z</time>
      </trkpt>
      <trkpt lat="45.94182" lon="6.68352">
        <ele>1407</ele>
        <time>2022-04-14T08:36:07Z</time>
      </trkpt>
      <trkpt lat="45.94182" lon="6.68359">
        <ele>1406</ele>
        <time>2022-04-14T08:36:11Z</time>
      </trkpt>
      <trkpt lat="45.94184" lon="6.68366">
        <ele>1406</ele>
        <time>2022-04-14T08:36:15Z</time>
      </trkpt>
      <trkpt lat="45.94189" lon="6.68379">
        <ele>1408</ele>
        <time>2022-04-14T08:36:26Z</time>
      </trkpt>
      <trkpt lat="45.94193" lon="6.68393">
        <ele>1410</ele>
        <time>2022-04-14T08:36:35Z</time>
      </trkpt>
      <trkpt lat="45.9419" lon="6.68433">
        <ele>1418</ele>
        <time>2022-04-14T08:37:06Z</time>
      </trkpt>
      <trkpt lat="45.94189" lon="6.68459">
        <ele>1421</ele>
        <time>2022-04-14T08:37:26Z</time>
      </trkpt>
      <trkpt lat="45.94183" lon="6.68473">
        <ele>1424</ele>
        <time>2022-04-14T08:37:39Z</time>
      </trkpt>
      <trkpt lat="45.94184" lon="6.6848">
        <ele>1424</ele>
        <time>2022-04-14T08:37:43Z</time>
      </trkpt>
      <trkpt lat="45.94187" lon="6.68494">
        <ele>1426</ele>
        <time>2022-04-14T08:37:53Z</time>
      </trkpt>
      <trkpt lat="45.94191" lon="6.685">
        <ele>1427</ele>
        <time>2022-04-14T08:37:58Z</time>
      </trkpt>
      <trkpt lat="45.94197" lon="6.68504">
        <ele>1428</ele>
        <time>2022-04-14T08:38:06Z</time>
      </trkpt>
      <trkpt lat="45.94206" lon="6.68495">
        <ele>1431</ele>
        <time>2022-04-14T08:38:19Z</time>
      </trkpt>
      <trkpt lat="45.94212" lon="6.68499">
        <ele>1432</ele>
        <time>2022-04-14T08:38:26Z</time>
      </trkpt>
      <trkpt lat="45.94213" lon="6.68515">
        <ele>1434</ele>
        <time>2022-04-14T08:38:37Z</time>
      </trkpt>
      <trkpt lat="45.94209" lon="6.68539">
        <ele>1438</ele>
        <time>2022-04-14T08:38:54Z</time>
      </trkpt>
      <trkpt lat="45.94209" lon="6.68546">
        <ele>1439</ele>
        <time>2022-04-14T08:39:01Z</time>
      </trkpt>
      <trkpt lat="45.94209" lon="6.68553">
        <ele>1440</ele>
        <time>2022-04-14T08:39:06Z</time>
      </trkpt>
      <trkpt lat="45.94211" lon="6.68562">
        <ele>1442</ele>
        <time>2022-04-14T08:39:12Z</time>
      </trkpt>
      <trkpt lat="45.94214" lon="6.68567">
        <ele>1442</ele>
        <time>2022-04-14T08:39:16Z</time>
      </trkpt>
      <trkpt lat="45.94218" lon="6.68571">
        <ele>1445</ele>
        <time>2022-04-14T08:39:24Z</time>
      </trkpt>
      <trkpt lat="45.94232" lon="6.68577">
        <ele>1448</ele>
        <time>2022-04-14T08:39:38Z</time>
      </trkpt>
      <trkpt lat="45.94238" lon="6.68578">
        <ele>1448</ele>
        <time>2022-04-14T08:39:42Z</time>
      </trkpt>
      <trkpt lat="45.94242" lon="6.68583">
        <ele>1449</ele>
        <time>2022-04-14T08:39:46Z</time>
      </trkpt>
      <trkpt lat="45.94249" lon="6.68585">
        <ele>1451</ele>
        <time>2022-04-14T08:39:56Z</time>
      </trkpt>
      <trkpt lat="45.94251" lon="6.68577">
        <ele>1454</ele>
        <time>2022-04-14T08:40:06Z</time>
      </trkpt>
      <trkpt lat="45.94254" lon="6.6856">
        <ele>1457</ele>
        <time>2022-04-14T08:40:21Z</time>
      </trkpt>
      <trkpt lat="45.9426" lon="6.68561">
        <ele>1459</ele>
        <time>2022-04-14T08:40:27Z</time>
      </trkpt>
      <trkpt lat="45.94283" lon="6.68599">
        <ele>1466</ele>
        <time>2022-04-14T08:40:57Z</time>
      </trkpt>
      <trkpt lat="45.94294" lon="6.68618">
        <ele>1470</ele>
        <time>2022-04-14T08:41:13Z</time>
      </trkpt>
      <trkpt lat="45.94296" lon="6.68624">
        <ele>1471</ele>
        <time>2022-04-14T08:41:18Z</time>
      </trkpt>
      <trkpt lat="45.94302" lon="6.68622">
        <ele>1473</ele>
        <time>2022-04-14T08:41:25Z</time>
      </trkpt>
      <trkpt lat="45.94299" lon="6.68614">
        <ele>1474</ele>
        <time>2022-04-14T08:41:32Z</time>
      </trkpt>
      <trkpt lat="45.94297" lon="6.68585">
        <ele>1479</ele>
        <time>2022-04-14T08:41:54Z</time>
      </trkpt>
      <trkpt lat="45.94298" lon="6.68577">
        <ele>1481</ele>
        <time>2022-04-14T08:42:02Z</time>
      </trkpt>
      <trkpt lat="45.94305" lon="6.68585">
        <ele>1483</ele>
        <time>2022-04-14T08:42:12Z</time>
      </trkpt>
      <trkpt lat="45.94306" lon="6.68592">
        <ele>1484</ele>
        <time>2022-04-14T08:42:17Z</time>
      </trkpt>
      <trkpt lat="45.94317" lon="6.6861">
        <ele>1487</ele>
        <time>2022-04-14T08:42:33Z</time>
      </trkpt>
      <trkpt lat="45.94324" lon="6.68613">
        <ele>1489</ele>
        <time>2022-04-14T08:42:43Z</time>
      </trkpt>
      <trkpt lat="45.94328" lon="6.68609">
        <ele>1490</ele>
        <time>2022-04-14T08:42:47Z</time>
      </trkpt>
      <trkpt lat="45.94324" lon="6.68601">
        <ele>1492</ele>
        <time>2022-04-14T08:42:55Z</time>
      </trkpt>
      <trkpt lat="45.94322" lon="6.68594">
        <ele>1493</ele>
        <time>2022-04-14T08:43:02Z</time>
      </trkpt>
      <trkpt lat="45.94315" lon="6.6855">
        <ele>1501</ele>
        <time>2022-04-14T08:43:37Z</time>
      </trkpt>
      <trkpt lat="45.94311" lon="6.68534">
        <ele>1505</ele>
        <time>2022-04-14T08:43:54Z</time>
      </trkpt>
      <trkpt lat="45.94319" lon="6.68529">
        <ele>1508</ele>
        <time>2022-04-14T08:44:04Z</time>
      </trkpt>
      <trkpt lat="45.94327" lon="6.68536">
        <ele>1511</ele>
        <time>2022-04-14T08:44:16Z</time>
      </trkpt>
      <trkpt lat="45.9433" lon="6.68541">
        <ele>1512</ele>
        <time>2022-04-14T08:44:21Z</time>
      </trkpt>
      <trkpt lat="45.9435" lon="6.68584">
        <ele>1517</ele>
        <time>2022-04-14T08:44:50Z</time>
      </trkpt>
      <trkpt lat="45.94352" lon="6.68591">
        <ele>1518</ele>
        <time>2022-04-14T08:44:55Z</time>
      </trkpt>
      <trkpt lat="45.94359" lon="6.68611">
        <ele>1520</ele>
        <time>2022-04-14T08:45:07Z</time>
      </trkpt>
      <trkpt lat="45.94361" lon="6.68623">
        <ele>1521</ele>
        <time>2022-04-14T08:45:11Z</time>
      </trkpt>
      <trkpt lat="45.94363" lon="6.6863">
        <ele>1521</ele>
        <time>2022-04-14T08:45:14Z</time>
      </trkpt>
      <trkpt lat="45.94368" lon="6.68635">
        <ele>1521</ele>
        <time>2022-04-14T08:45:18Z</time>
      </trkpt>
      <trkpt lat="45.94377" lon="6.68641">
        <ele>1524</ele>
        <time>2022-04-14T08:45:28Z</time>
      </trkpt>
      <trkpt lat="45.94379" lon="6.68647">
        <ele>1525</ele>
        <time>2022-04-14T08:45:33Z</time>
      </trkpt>
      <trkpt lat="45.94385" lon="6.68659">
        <ele>1527</ele>
        <time>2022-04-14T08:45:42Z</time>
      </trkpt>
      <trkpt lat="45.94393" lon="6.68686">
        <ele>1530</ele>
        <time>2022-04-14T08:46:00Z</time>
      </trkpt>
      <trkpt lat="45.94398" lon="6.68678">
        <ele>1533</ele>
        <time>2022-04-14T08:46:13Z</time>
      </trkpt>
      <trkpt lat="45.94396" lon="6.68671">
        <ele>1535</ele>
        <time>2022-04-14T08:46:18Z</time>
      </trkpt>
      <trkpt lat="45.94397" lon="6.68663">
        <ele>1536</ele>
        <time>2022-04-14T08:46:25Z</time>
      </trkpt>
      <trkpt lat="45.94397" lon="6.68635">
        <ele>1541</ele>
        <time>2022-04-14T08:46:45Z</time>
      </trkpt>
      <trkpt lat="45.94398" lon="6.68628">
        <ele>1542</ele>
        <time>2022-04-14T08:46:50Z</time>
      </trkpt>
      <trkpt lat="45.94394" lon="6.686">
        <ele>1545</ele>
        <time>2022-04-14T08:47:06Z</time>
      </trkpt>
      <trkpt lat="45.94396" lon="6.6858">
        <ele>1547</ele>
        <time>2022-04-14T08:47:19Z</time>
      </trkpt>
      <trkpt lat="45.94408" lon="6.68536">
        <ele>1554</ele>
        <time>2022-04-14T08:47:51Z</time>
      </trkpt>
      <trkpt lat="45.94411" lon="6.68531">
        <ele>1555</ele>
        <time>2022-04-14T08:47:56Z</time>
      </trkpt>
      <trkpt lat="45.94411" lon="6.68525">
        <ele>1557</ele>
        <time>2022-04-14T08:48:02Z</time>
      </trkpt>
      <trkpt lat="45.9441" lon="6.68518">
        <ele>1558</ele>
        <time>2022-04-14T08:48:10Z</time>
      </trkpt>
      <trkpt lat="45.94406" lon="6.68516">
        <ele>1559</ele>
        <time>2022-04-14T08:48:15Z</time>
      </trkpt>
      <trkpt lat="45.94401" lon="6.68512">
        <ele>1559</ele>
        <time>2022-04-14T08:48:21Z</time>
      </trkpt>
      <trkpt lat="45.94397" lon="6.68508">
        <ele>1559</ele>
        <time>2022-04-14T08:48:26Z</time>
      </trkpt>
      <trkpt lat="45.94392" lon="6.68505">
        <ele>1560</ele>
        <time>2022-04-14T08:48:32Z</time>
      </trkpt>
      <trkpt lat="45.94387" lon="6.68502">
        <ele>1560</ele>
        <time>2022-04-14T08:48:36Z</time>
      </trkpt>
      <trkpt lat="45.9438" lon="6.68491">
        <ele>1561</ele>
        <time>2022-04-14T08:48:45Z</time>
      </trkpt>
      <trkpt lat="45.94371" lon="6.68468">
        <ele>1563</ele>
        <time>2022-04-14T08:48:57Z</time>
      </trkpt>
      <trkpt lat="45.94354" lon="6.68444">
        <ele>1566</ele>
        <time>2022-04-14T08:49:16Z</time>
      </trkpt>
      <trkpt lat="45.94351" lon="6.68438">
        <ele>1567</ele>
        <time>2022-04-14T08:49:21Z</time>
      </trkpt>
      <trkpt lat="45.94349" lon="6.68423">
        <ele>1568</ele>
        <time>2022-04-14T08:49:29Z</time>
      </trkpt>
      <trkpt lat="45.94349" lon="6.68416">
        <ele>1569</ele>
        <time>2022-04-14T08:49:33Z</time>
      </trkpt>
      <trkpt lat="45.94351" lon="6.68409">
        <ele>1569</ele>
        <time>2022-04-14T08:49:37Z</time>
      </trkpt>
      <trkpt lat="45.94361" lon="6.68393">
        <ele>1572</ele>
        <time>2022-04-14T08:49:51Z</time>
      </trkpt>
      <trkpt lat="45.94365" lon="6.68392">
        <ele>1573</ele>
        <time>2022-04-14T08:49:55Z</time>
      </trkpt>
      <trkpt lat="45.9437" lon="6.68392">
        <ele>1574</ele>
        <time>2022-04-14T08:49:59Z</time>
      </trkpt>
      <trkpt lat="45.94375" lon="6.68393">
        <ele>1576</ele>
        <time>2022-04-14T08:50:04Z</time>
      </trkpt>
      <trkpt lat="45.9438" lon="6.68399">
        <ele>1577</ele>
        <time>2022-04-14T08:50:10Z</time>
      </trkpt>
      <trkpt lat="45.94382" lon="6.68405">
        <ele>1578</ele>
        <time>2022-04-14T08:50:14Z</time>
      </trkpt>
      <trkpt lat="45.94383" lon="6.68412">
        <ele>1579</ele>
        <time>2022-04-14T08:50:18Z</time>
      </trkpt>
      <trkpt lat="45.94385" lon="6.68417">
        <ele>1580</ele>
        <time>2022-04-14T08:50:22Z</time>
      </trkpt>
      <trkpt lat="45.9439" lon="6.68419">
        <ele>1581</ele>
        <time>2022-04-14T08:50:26Z</time>
      </trkpt>
      <trkpt lat="45.94394" lon="6.68419">
        <ele>1582</ele>
        <time>2022-04-14T08:50:31Z</time>
      </trkpt>
      <trkpt lat="45.94402" lon="6.68409">
        <ele>1584</ele>
        <time>2022-04-14T08:50:43Z</time>
      </trkpt>
      <trkpt lat="45.94405" lon="6.68397">
        <ele>1587</ele>
        <time>2022-04-14T08:50:53Z</time>
      </trkpt>
      <trkpt lat="45.94405" lon="6.6838">
        <ele>1590</ele>
        <time>2022-04-14T08:51:06Z</time>
      </trkpt>
      <trkpt lat="45.94414" lon="6.68353">
        <ele>1594</ele>
        <time>2022-04-14T08:51:27Z</time>
      </trkpt>
      <trkpt lat="45.94413" lon="6.68321">
        <ele>1600</ele>
        <time>2022-04-14T08:51:54Z</time>
      </trkpt>
      <trkpt lat="45.94419" lon="6.6831">
        <ele>1603</ele>
        <time>2022-04-14T08:52:04Z</time>
      </trkpt>
      <trkpt lat="45.94428" lon="6.68301">
        <ele>1605</ele>
        <time>2022-04-14T08:52:15Z</time>
      </trkpt>
      <trkpt lat="45.94433" lon="6.68299">
        <ele>1606</ele>
        <time>2022-04-14T08:52:19Z</time>
      </trkpt>
      <trkpt lat="45.94439" lon="6.68298">
        <ele>1608</ele>
        <time>2022-04-14T08:52:26Z</time>
      </trkpt>
      <trkpt lat="45.94449" lon="6.68302">
        <ele>1610</ele>
        <time>2022-04-14T08:52:36Z</time>
      </trkpt>
      <trkpt lat="45.94471" lon="6.68321">
        <ele>1617</ele>
        <time>2022-04-14T08:53:04Z</time>
      </trkpt>
      <trkpt lat="45.94475" lon="6.68318">
        <ele>1618</ele>
        <time>2022-04-14T08:53:11Z</time>
      </trkpt>
      <trkpt lat="45.94477" lon="6.68311">
        <ele>1620</ele>
        <time>2022-04-14T08:53:21Z</time>
      </trkpt>
      <trkpt lat="45.94483" lon="6.68305">
        <ele>1623</ele>
        <time>2022-04-14T08:53:32Z</time>
      </trkpt>
      <trkpt lat="45.94488" lon="6.68304">
        <ele>1624</ele>
        <time>2022-04-14T08:53:37Z</time>
      </trkpt>
      <trkpt lat="45.94496" lon="6.6831">
        <ele>1626</ele>
        <time>2022-04-14T08:53:45Z</time>
      </trkpt>
      <trkpt lat="45.94501" lon="6.68314">
        <ele>1627</ele>
        <time>2022-04-14T08:53:50Z</time>
      </trkpt>
      <trkpt lat="45.94505" lon="6.68315">
        <ele>1628</ele>
        <time>2022-04-14T08:53:54Z</time>
      </trkpt>
      <trkpt lat="45.9451" lon="6.6832">
        <ele>1629</ele>
        <time>2022-04-14T08:54:00Z</time>
      </trkpt>
      <trkpt lat="45.94515" lon="6.68324">
        <ele>1630</ele>
        <time>2022-04-14T08:54:08Z</time>
      </trkpt>
      <trkpt lat="45.94519" lon="6.68331">
        <ele>1632</ele>
        <time>2022-04-14T08:54:15Z</time>
      </trkpt>
      <trkpt lat="45.9453" lon="6.68342">
        <ele>1634</ele>
        <time>2022-04-14T08:54:25Z</time>
      </trkpt>
      <trkpt lat="45.94547" lon="6.68369">
        <ele>1636</ele>
        <time>2022-04-14T08:54:40Z</time>
      </trkpt>
      <trkpt lat="45.94553" lon="6.6838">
        <ele>1636</ele>
        <time>2022-04-14T08:54:46Z</time>
      </trkpt>
      <trkpt lat="45.94562" lon="6.68396">
        <ele>1637</ele>
        <time>2022-04-14T08:54:55Z</time>
      </trkpt>
      <trkpt lat="45.94573" lon="6.68446">
        <ele>1640</ele>
        <time>2022-04-14T08:55:15Z</time>
      </trkpt>
      <trkpt lat="45.94574" lon="6.68479">
        <ele>1640</ele>
        <time>2022-04-14T08:55:28Z</time>
      </trkpt>
      <trkpt lat="45.94572" lon="6.68494">
        <ele>1641</ele>
        <time>2022-04-14T08:55:34Z</time>
      </trkpt>
      <trkpt lat="45.94571" lon="6.68502">
        <ele>1641</ele>
        <time>2022-04-14T08:55:37Z</time>
      </trkpt>
      <trkpt lat="45.9457" lon="6.68509">
        <ele>1640</ele>
        <time>2022-04-14T08:55:40Z</time>
      </trkpt>
      <trkpt lat="45.94578" lon="6.68569">
        <ele>1637</ele>
        <time>2022-04-14T08:55:58Z</time>
      </trkpt>
      <trkpt lat="45.94578" lon="6.68576">
        <ele>1637</ele>
        <time>2022-04-14T08:56:00Z</time>
      </trkpt>
      <trkpt lat="45.94574" lon="6.68596">
        <ele>1637</ele>
        <time>2022-04-14T08:56:06Z</time>
      </trkpt>
      <trkpt lat="45.94561" lon="6.68625">
        <ele>1637</ele>
        <time>2022-04-14T08:56:17Z</time>
      </trkpt>
      <trkpt lat="45.94559" lon="6.6864">
        <ele>1637</ele>
        <time>2022-04-14T08:56:21Z</time>
      </trkpt>
      <trkpt lat="45.94559" lon="6.6866">
        <ele>1636</ele>
        <time>2022-04-14T08:56:27Z</time>
      </trkpt>
      <trkpt lat="45.94564" lon="6.68671">
        <ele>1635</ele>
        <time>2022-04-14T08:56:31Z</time>
      </trkpt>
      <trkpt lat="45.94589" lon="6.68703">
        <ele>1631</ele>
        <time>2022-04-14T08:56:46Z</time>
      </trkpt>
      <trkpt lat="45.94597" lon="6.68711">
        <ele>1629</ele>
        <time>2022-04-14T08:56:50Z</time>
      </trkpt>
      <trkpt lat="45.94599" lon="6.68717">
        <ele>1629</ele>
        <time>2022-04-14T08:56:52Z</time>
      </trkpt>
      <trkpt lat="45.94599" lon="6.68725">
        <ele>1628</ele>
        <time>2022-04-14T08:56:54Z</time>
      </trkpt>
      <trkpt lat="45.94582" lon="6.68764">
        <ele>1625</ele>
        <time>2022-04-14T08:57:11Z</time>
      </trkpt>
      <trkpt lat="45.94579" lon="6.6878">
        <ele>1624</ele>
        <time>2022-04-14T08:57:17Z</time>
      </trkpt>
      <trkpt lat="45.94569" lon="6.68798">
        <ele>1622</ele>
        <time>2022-04-14T08:57:26Z</time>
      </trkpt>
      <trkpt lat="45.94567" lon="6.68823">
        <ele>1621</ele>
        <time>2022-04-14T08:57:34Z</time>
      </trkpt>
      <trkpt lat="45.94571" lon="6.68859">
        <ele>1620</ele>
        <time>2022-04-14T08:57:45Z</time>
      </trkpt>
      <trkpt lat="45.94572" lon="6.68865">
        <ele>1619</ele>
        <time>2022-04-14T08:57:47Z</time>
      </trkpt>
      <trkpt lat="45.94572" lon="6.68872">
        <ele>1618</ele>
        <time>2022-04-14T08:57:49Z</time>
      </trkpt>
      <trkpt lat="45.94566" lon="6.6888">
        <ele>1616</ele>
        <time>2022-04-14T08:58:00Z</time>
      </trkpt>
      <trkpt lat="45.94572" lon="6.68889">
        <ele>1616</ele>
        <time>2022-04-14T08:58:15Z</time>
      </trkpt>
      <trkpt lat="45.94573" lon="6.68896">
        <ele>1615</ele>
        <time>2022-04-14T08:58:18Z</time>
      </trkpt>
      <trkpt lat="45.94567" lon="6.68896">
        <ele>1615</ele>
        <time>2022-04-14T08:58:31Z</time>
      </trkpt>
      <trkpt lat="45.94562" lon="6.689">
        <ele>1615</ele>
        <time>2022-04-14T08:58:33Z</time>
      </trkpt>
      <trkpt lat="45.94557" lon="6.68906">
        <ele>1614</ele>
        <time>2022-04-14T08:58:36Z</time>
      </trkpt>
      <trkpt lat="45.94553" lon="6.68911">
        <ele>1615</ele>
        <time>2022-04-14T08:58:41Z</time>
      </trkpt>
      <trkpt lat="45.94541" lon="6.68913">
        <ele>1616</ele>
        <time>2022-04-14T08:58:47Z</time>
      </trkpt>
      <trkpt lat="45.9454" lon="6.6892">
        <ele>1616</ele>
        <time>2022-04-14T08:59:05Z</time>
      </trkpt>
      <trkpt lat="45.94539" lon="6.68926">
        <ele>1617</ele>
        <time>2022-04-14T08:59:09Z</time>
      </trkpt>
      <trkpt lat="45.94538" lon="6.68932">
        <ele>1616</ele>
        <time>2022-04-14T08:59:13Z</time>
      </trkpt>
      <trkpt lat="45.94543" lon="6.68944">
        <ele>1615</ele>
        <time>2022-04-14T08:59:20Z</time>
      </trkpt>
      <trkpt lat="45.94537" lon="6.68947">
        <ele>1613</ele>
        <time>2022-04-14T08:59:58Z</time>
      </trkpt>
      <trkpt lat="45.94533" lon="6.68942">
        <ele>1610</ele>
        <time>2022-04-14T09:00:02Z</time>
      </trkpt>
      <trkpt lat="45.9453" lon="6.68952">
        <ele>1607</ele>
        <time>2022-04-14T09:00:09Z</time>
      </trkpt>
      <trkpt lat="45.94529" lon="6.68974">
        <ele>1602</ele>
        <time>2022-04-14T09:00:20Z</time>
      </trkpt>
      <trkpt lat="45.94531" lon="6.6898">
        <ele>1600</ele>
        <time>2022-04-14T09:00:23Z</time>
      </trkpt>
      <trkpt lat="45.9453" lon="6.69011">
        <ele>1592</ele>
        <time>2022-04-14T09:00:34Z</time>
      </trkpt>
      <trkpt lat="45.94528" lon="6.69018">
        <ele>1590</ele>
        <time>2022-04-14T09:00:36Z</time>
      </trkpt>
      <trkpt lat="45.94521" lon="6.6903">
        <ele>1588</ele>
        <time>2022-04-14T09:00:40Z</time>
      </trkpt>
      <trkpt lat="45.94509" lon="6.69049">
        <ele>1584</ele>
        <time>2022-04-14T09:00:49Z</time>
      </trkpt>
      <trkpt lat="45.94504" lon="6.69051">
        <ele>1583</ele>
        <time>2022-04-14T09:00:52Z</time>
      </trkpt>
      <trkpt lat="45.94501" lon="6.69056">
        <ele>1581</ele>
        <time>2022-04-14T09:00:55Z</time>
      </trkpt>
      <trkpt lat="45.94499" lon="6.69068">
        <ele>1579</ele>
        <time>2022-04-14T09:01:00Z</time>
      </trkpt>
      <trkpt lat="45.94506" lon="6.6908">
        <ele>1577</ele>
        <time>2022-04-14T09:01:06Z</time>
      </trkpt>
      <trkpt lat="45.9451" lon="6.69102">
        <ele>1570</ele>
        <time>2022-04-14T09:01:18Z</time>
      </trkpt>
      <trkpt lat="45.9451" lon="6.69109">
        <ele>1568</ele>
        <time>2022-04-14T09:01:21Z</time>
      </trkpt>
      <trkpt lat="45.94524" lon="6.69167">
        <ele>1554</ele>
        <time>2022-04-14T09:01:51Z</time>
      </trkpt>
      <trkpt lat="45.94523" lon="6.69175">
        <ele>1553</ele>
        <time>2022-04-14T09:01:54Z</time>
      </trkpt>
      <trkpt lat="45.94527" lon="6.69188">
        <ele>1550</ele>
        <time>2022-04-14T09:01:58Z</time>
      </trkpt>
      <trkpt lat="45.94531" lon="6.69218">
        <ele>1545</ele>
        <time>2022-04-14T09:02:09Z</time>
      </trkpt>
      <trkpt lat="45.94534" lon="6.69227">
        <ele>1544</ele>
        <time>2022-04-14T09:02:12Z</time>
      </trkpt>
      <trkpt lat="45.94535" lon="6.69237">
        <ele>1543</ele>
        <time>2022-04-14T09:02:15Z</time>
      </trkpt>
      <trkpt lat="45.94533" lon="6.69251">
        <ele>1541</ele>
        <time>2022-04-14T09:02:20Z</time>
      </trkpt>
      <trkpt lat="45.94534" lon="6.69262">
        <ele>1538</ele>
        <time>2022-04-14T09:02:24Z</time>
      </trkpt>
      <trkpt lat="45.94537" lon="6.69268">
        <ele>1537</ele>
        <time>2022-04-14T09:02:28Z</time>
      </trkpt>
      <trkpt lat="45.94541" lon="6.6927">
        <ele>1536</ele>
        <time>2022-04-14T09:02:32Z</time>
      </trkpt>
      <trkpt lat="45.94541" lon="6.6928">
        <ele>1534</ele>
        <time>2022-04-14T09:02:38Z</time>
      </trkpt>
      <trkpt lat="45.94543" lon="6.69287">
        <ele>1533</ele>
        <time>2022-04-14T09:02:41Z</time>
      </trkpt>
      <trkpt lat="45.94547" lon="6.69296">
        <ele>1532</ele>
        <time>2022-04-14T09:02:47Z</time>
      </trkpt>
      <trkpt lat="45.94547" lon="6.69305">
        <ele>1533</ele>
        <time>2022-04-14T09:02:50Z</time>
      </trkpt>
      <trkpt lat="45.94549" lon="6.69313">
        <ele>1533</ele>
        <time>2022-04-14T09:02:54Z</time>
      </trkpt>
      <trkpt lat="45.94551" lon="6.69329">
        <ele>1533</ele>
        <time>2022-04-14T09:03:03Z</time>
      </trkpt>
      <trkpt lat="45.94557" lon="6.6934">
        <ele>1536</ele>
        <time>2022-04-14T09:03:14Z</time>
      </trkpt>
      <trkpt lat="45.94562" lon="6.69345">
        <ele>1536</ele>
        <time>2022-04-14T09:03:18Z</time>
      </trkpt>
      <trkpt lat="45.94565" lon="6.69352">
        <ele>1538</ele>
        <time>2022-04-14T09:03:26Z</time>
      </trkpt>
      <trkpt lat="45.94577" lon="6.69368">
        <ele>1544</ele>
        <time>2022-04-14T09:03:52Z</time>
      </trkpt>
      <trkpt lat="45.94577" lon="6.6938">
        <ele>1545</ele>
        <time>2022-04-14T09:04:01Z</time>
      </trkpt>
      <trkpt lat="45.94579" lon="6.69387">
        <ele>1546</ele>
        <time>2022-04-14T09:04:07Z</time>
      </trkpt>
      <trkpt lat="45.94583" lon="6.69393">
        <ele>1546</ele>
        <time>2022-04-14T09:04:11Z</time>
      </trkpt>
      <trkpt lat="45.94596" lon="6.69433">
        <ele>1553</ele>
        <time>2022-04-14T09:04:42Z</time>
      </trkpt>
      <trkpt lat="45.94598" lon="6.6944">
        <ele>1554</ele>
        <time>2022-04-14T09:04:47Z</time>
      </trkpt>
      <trkpt lat="45.94599" lon="6.69449">
        <ele>1555</ele>
        <time>2022-04-14T09:04:54Z</time>
      </trkpt>
      <trkpt lat="45.94605" lon="6.69463">
        <ele>1558</ele>
        <time>2022-04-14T09:05:08Z</time>
      </trkpt>
      <trkpt lat="45.94606" lon="6.69473">
        <ele>1560</ele>
        <time>2022-04-14T09:05:19Z</time>
      </trkpt>
      <trkpt lat="45.94611" lon="6.69474">
        <ele>1562</ele>
        <time>2022-04-14T09:05:25Z</time>
      </trkpt>
      <trkpt lat="45.94618" lon="6.69485">
        <ele>1565</ele>
        <time>2022-04-14T09:05:41Z</time>
      </trkpt>
      <trkpt lat="45.94623" lon="6.69488">
        <ele>1566</ele>
        <time>2022-04-14T09:05:47Z</time>
      </trkpt>
      <trkpt lat="45.94628" lon="6.69499">
        <ele>1569</ele>
        <time>2022-04-14T09:05:57Z</time>
      </trkpt>
      <trkpt lat="45.94637" lon="6.69515">
        <ele>1573</ele>
        <time>2022-04-14T09:06:14Z</time>
      </trkpt>
      <trkpt lat="45.94638" lon="6.69524">
        <ele>1573</ele>
        <time>2022-04-14T09:06:19Z</time>
      </trkpt>
      <trkpt lat="45.9464" lon="6.69538">
        <ele>1573</ele>
        <time>2022-04-14T09:06:25Z</time>
      </trkpt>
      <trkpt lat="45.94641" lon="6.69555">
        <ele>1574</ele>
        <time>2022-04-14T09:06:32Z</time>
      </trkpt>
      <trkpt lat="45.94644" lon="6.69568">
        <ele>1575</ele>
        <time>2022-04-14T09:06:38Z</time>
      </trkpt>
      <trkpt lat="45.94646" lon="6.69575">
        <ele>1575</ele>
        <time>2022-04-14T09:06:41Z</time>
      </trkpt>
      <trkpt lat="45.94648" lon="6.69582">
        <ele>1575</ele>
        <time>2022-04-14T09:06:44Z</time>
      </trkpt>
      <trkpt lat="45.94651" lon="6.69588">
        <ele>1575</ele>
        <time>2022-04-14T09:06:47Z</time>
      </trkpt>
      <trkpt lat="45.94658" lon="6.69599">
        <ele>1577</ele>
        <time>2022-04-14T09:06:55Z</time>
      </trkpt>
      <trkpt lat="45.94663" lon="6.69618">
        <ele>1579</ele>
        <time>2022-04-14T09:07:10Z</time>
      </trkpt>
      <trkpt lat="45.94663" lon="6.69625">
        <ele>1580</ele>
        <time>2022-04-14T09:07:15Z</time>
      </trkpt>
      <trkpt lat="45.94672" lon="6.69648">
        <ele>1583</ele>
        <time>2022-04-14T09:07:35Z</time>
      </trkpt>
      <trkpt lat="45.94673" lon="6.69655">
        <ele>1583</ele>
        <time>2022-04-14T09:07:39Z</time>
      </trkpt>
      <trkpt lat="45.94677" lon="6.69659">
        <ele>1584</ele>
        <time>2022-04-14T09:07:43Z</time>
      </trkpt>
      <trkpt lat="45.94692" lon="6.69671">
        <ele>1587</ele>
        <time>2022-04-14T09:08:05Z</time>
      </trkpt>
      <trkpt lat="45.94696" lon="6.69671">
        <ele>1589</ele>
        <time>2022-04-14T09:08:15Z</time>
      </trkpt>
      <trkpt lat="45.94706" lon="6.69686">
        <ele>1593</ele>
        <time>2022-04-14T09:08:31Z</time>
      </trkpt>
      <trkpt lat="45.9471" lon="6.69689">
        <ele>1595</ele>
        <time>2022-04-14T09:08:38Z</time>
      </trkpt>
      <trkpt lat="45.9472" lon="6.69702">
        <ele>1599</ele>
        <time>2022-04-14T09:08:59Z</time>
      </trkpt>
      <trkpt lat="45.94735" lon="6.69719">
        <ele>1607</ele>
        <time>2022-04-14T09:09:33Z</time>
      </trkpt>
      <trkpt lat="45.9474" lon="6.69724">
        <ele>1609</ele>
        <time>2022-04-14T09:09:43Z</time>
      </trkpt>
      <trkpt lat="45.94746" lon="6.69728">
        <ele>1612</ele>
        <time>2022-04-14T09:09:54Z</time>
      </trkpt>
      <trkpt lat="45.94754" lon="6.69743">
        <ele>1617</ele>
        <time>2022-04-14T09:10:19Z</time>
      </trkpt>
      <trkpt lat="45.94754" lon="6.69757">
        <ele>1623</ele>
        <time>2022-04-14T09:10:39Z</time>
      </trkpt>
      <trkpt lat="45.94754" lon="6.69766">
        <ele>1626</ele>
        <time>2022-04-14T09:10:49Z</time>
      </trkpt>
      <trkpt lat="45.94758" lon="6.69777">
        <ele>1627</ele>
        <time>2022-04-14T09:10:58Z</time>
      </trkpt>
      <trkpt lat="45.94761" lon="6.69782">
        <ele>1629</ele>
        <time>2022-04-14T09:11:06Z</time>
      </trkpt>
      <trkpt lat="45.94766" lon="6.69791">
        <ele>1630</ele>
        <time>2022-04-14T09:11:14Z</time>
      </trkpt>
      <trkpt lat="45.94766" lon="6.69796">
        <ele>1631</ele>
        <time>2022-04-14T09:11:20Z</time>
      </trkpt>
      <trkpt lat="45.94771" lon="6.69799">
        <ele>1633</ele>
        <time>2022-04-14T09:11:30Z</time>
      </trkpt>
      <trkpt lat="45.94775" lon="6.69796">
        <ele>1634</ele>
        <time>2022-04-14T09:11:40Z</time>
      </trkpt>
      <trkpt lat="45.94783" lon="6.69805">
        <ele>1638</ele>
        <time>2022-04-14T09:11:56Z</time>
      </trkpt>
      <trkpt lat="45.94789" lon="6.69804">
        <ele>1640</ele>
        <time>2022-04-14T09:12:08Z</time>
      </trkpt>
      <trkpt lat="45.94793" lon="6.6981">
        <ele>1644</ele>
        <time>2022-04-14T09:12:23Z</time>
      </trkpt>
      <trkpt lat="45.94795" lon="6.69817">
        <ele>1646</ele>
        <time>2022-04-14T09:12:33Z</time>
      </trkpt>
      <trkpt lat="45.94799" lon="6.69821">
        <ele>1649</ele>
        <time>2022-04-14T09:12:43Z</time>
      </trkpt>
      <trkpt lat="45.94799" lon="6.69829">
        <ele>1651</ele>
        <time>2022-04-14T09:12:53Z</time>
      </trkpt>
      <trkpt lat="45.94804" lon="6.69831">
        <ele>1652</ele>
        <time>2022-04-14T09:13:03Z</time>
      </trkpt>
      <trkpt lat="45.94805" lon="6.69841">
        <ele>1654</ele>
        <time>2022-04-14T09:13:14Z</time>
      </trkpt>
      <trkpt lat="45.94807" lon="6.6985">
        <ele>1656</ele>
        <time>2022-04-14T09:13:24Z</time>
      </trkpt>
      <trkpt lat="45.94806" lon="6.69879">
        <ele>1663</ele>
        <time>2022-04-14T09:13:54Z</time>
      </trkpt>
      <trkpt lat="45.94807" lon="6.69886">
        <ele>1664</ele>
        <time>2022-04-14T09:14:00Z</time>
      </trkpt>
      <trkpt lat="45.94807" lon="6.69899">
        <ele>1667</ele>
        <time>2022-04-14T09:14:12Z</time>
      </trkpt>
      <trkpt lat="45.94817" lon="6.69949">
        <ele>1672</ele>
        <time>2022-04-14T09:14:43Z</time>
      </trkpt>
      <trkpt lat="45.94822" lon="6.69963">
        <ele>1674</ele>
        <time>2022-04-14T09:14:52Z</time>
      </trkpt>
      <trkpt lat="45.94825" lon="6.69984">
        <ele>1677</ele>
        <time>2022-04-14T09:15:04Z</time>
      </trkpt>
      <trkpt lat="45.94824" lon="6.6999">
        <ele>1677</ele>
        <time>2022-04-14T09:15:07Z</time>
      </trkpt>
      <trkpt lat="45.94826" lon="6.69997">
        <ele>1678</ele>
        <time>2022-04-14T09:15:10Z</time>
      </trkpt>
      <trkpt lat="45.94829" lon="6.70004">
        <ele>1678</ele>
        <time>2022-04-14T09:15:14Z</time>
      </trkpt>
      <trkpt lat="45.9483" lon="6.70011">
        <ele>1678</ele>
        <time>2022-04-14T09:15:17Z</time>
      </trkpt>
      <trkpt lat="45.94831" lon="6.70018">
        <ele>1678</ele>
        <time>2022-04-14T09:15:20Z</time>
      </trkpt>
      <trkpt lat="45.94832" lon="6.70033">
        <ele>1677</ele>
        <time>2022-04-14T09:15:26Z</time>
      </trkpt>
      <trkpt lat="45.94834" lon="6.7005">
        <ele>1678</ele>
        <time>2022-04-14T09:15:34Z</time>
      </trkpt>
      <trkpt lat="45.94835" lon="6.70083">
        <ele>1679</ele>
        <time>2022-04-14T09:15:46Z</time>
      </trkpt>
      <trkpt lat="45.94848" lon="6.70125">
        <ele>1678</ele>
        <time>2022-04-14T09:16:00Z</time>
      </trkpt>
      <trkpt lat="45.94853" lon="6.70136">
        <ele>1678</ele>
        <time>2022-04-14T09:16:05Z</time>
      </trkpt>
      <trkpt lat="45.94859" lon="6.70158">
        <ele>1680</ele>
        <time>2022-04-14T09:16:15Z</time>
      </trkpt>
      <trkpt lat="45.94865" lon="6.7017">
        <ele>1680</ele>
        <time>2022-04-14T09:16:20Z</time>
      </trkpt>
      <trkpt lat="45.94868" lon="6.70178">
        <ele>1680</ele>
        <time>2022-04-14T09:16:23Z</time>
      </trkpt>
      <trkpt lat="45.94872" lon="6.70184">
        <ele>1680</ele>
        <time>2022-04-14T09:16:26Z</time>
      </trkpt>
      <trkpt lat="45.94876" lon="6.70196">
        <ele>1680</ele>
        <time>2022-04-14T09:16:32Z</time>
      </trkpt>
      <trkpt lat="45.9488" lon="6.70204">
        <ele>1681</ele>
        <time>2022-04-14T09:16:39Z</time>
      </trkpt>
      <trkpt lat="45.94881" lon="6.7021">
        <ele>1681</ele>
        <time>2022-04-14T09:16:42Z</time>
      </trkpt>
      <trkpt lat="45.94883" lon="6.70216">
        <ele>1681</ele>
        <time>2022-04-14T09:16:45Z</time>
      </trkpt>
      <trkpt lat="45.94903" lon="6.70241">
        <ele>1683</ele>
        <time>2022-04-14T09:17:14Z</time>
      </trkpt>
      <trkpt lat="45.94912" lon="6.7025">
        <ele>1684</ele>
        <time>2022-04-14T09:17:21Z</time>
      </trkpt>
      <trkpt lat="45.94916" lon="6.70256">
        <ele>1685</ele>
        <time>2022-04-14T09:17:25Z</time>
      </trkpt>
      <trkpt lat="45.9492" lon="6.70261">
        <ele>1685</ele>
        <time>2022-04-14T09:17:30Z</time>
      </trkpt>
      <trkpt lat="45.94924" lon="6.70265">
        <ele>1684</ele>
        <time>2022-04-14T09:17:33Z</time>
      </trkpt>
      <trkpt lat="45.94923" lon="6.70274">
        <ele>1684</ele>
        <time>2022-04-14T09:17:37Z</time>
      </trkpt>
      <trkpt lat="45.94926" lon="6.7028">
        <ele>1683</ele>
        <time>2022-04-14T09:17:40Z</time>
      </trkpt>
      <trkpt lat="45.94929" lon="6.70283">
        <ele>1684</ele>
        <time>2022-04-14T09:17:43Z</time>
      </trkpt>
      <trkpt lat="45.9493" lon="6.70293">
        <ele>1684</ele>
        <time>2022-04-14T09:17:46Z</time>
      </trkpt>
      <trkpt lat="45.94933" lon="6.70306">
        <ele>1684</ele>
        <time>2022-04-14T09:17:51Z</time>
      </trkpt>
      <trkpt lat="45.94934" lon="6.70319">
        <ele>1683</ele>
        <time>2022-04-14T09:17:55Z</time>
      </trkpt>
      <trkpt lat="45.94936" lon="6.7033">
        <ele>1683</ele>
        <time>2022-04-14T09:17:59Z</time>
      </trkpt>
      <trkpt lat="45.94937" lon="6.7035">
        <ele>1682</ele>
        <time>2022-04-14T09:18:05Z</time>
      </trkpt>
      <trkpt lat="45.94943" lon="6.70361">
        <ele>1682</ele>
        <time>2022-04-14T09:18:10Z</time>
      </trkpt>
      <trkpt lat="45.94944" lon="6.70369">
        <ele>1682</ele>
        <time>2022-04-14T09:18:16Z</time>
      </trkpt>
      <trkpt lat="45.94963" lon="6.70384">
        <ele>1677</ele>
        <time>2022-04-14T09:18:35Z</time>
      </trkpt>
      <trkpt lat="45.94967" lon="6.70387">
        <ele>1677</ele>
        <time>2022-04-14T09:18:37Z</time>
      </trkpt>
      <trkpt lat="45.94972" lon="6.70397">
        <ele>1678</ele>
        <time>2022-04-14T09:18:42Z</time>
      </trkpt>
      <trkpt lat="45.94977" lon="6.70401">
        <ele>1679</ele>
        <time>2022-04-14T09:18:46Z</time>
      </trkpt>
      <trkpt lat="45.94981" lon="6.704">
        <ele>1678</ele>
        <time>2022-04-14T09:19:04Z</time>
      </trkpt>
      <trkpt lat="45.94986" lon="6.70403">
        <ele>1676</ele>
        <time>2022-04-14T09:19:19Z</time>
      </trkpt>
      <trkpt lat="45.94987" lon="6.70411">
        <ele>1674</ele>
        <time>2022-04-14T09:19:24Z</time>
      </trkpt>
      <trkpt lat="45.94987" lon="6.70418">
        <ele>1672</ele>
        <time>2022-04-14T09:19:28Z</time>
      </trkpt>
      <trkpt lat="45.9499" lon="6.70434">
        <ele>1666</ele>
        <time>2022-04-14T09:19:41Z</time>
      </trkpt>
      <trkpt lat="45.94994" lon="6.70437">
        <ele>1664</ele>
        <time>2022-04-14T09:19:45Z</time>
      </trkpt>
      <trkpt lat="45.94998" lon="6.70444">
        <ele>1660</ele>
        <time>2022-04-14T09:19:54Z</time>
      </trkpt>
      <trkpt lat="45.95013" lon="6.70459">
        <ele>1655</ele>
        <time>2022-04-14T09:20:07Z</time>
      </trkpt>
      <trkpt lat="45.9502" lon="6.70471">
        <ele>1652</ele>
        <time>2022-04-14T09:20:13Z</time>
      </trkpt>
      <trkpt lat="45.95027" lon="6.70479">
        <ele>1649</ele>
        <time>2022-04-14T09:20:19Z</time>
      </trkpt>
      <trkpt lat="45.95044" lon="6.70513">
        <ele>1640</ele>
        <time>2022-04-14T09:20:45Z</time>
      </trkpt>
      <trkpt lat="45.95052" lon="6.70525">
        <ele>1634</ele>
        <time>2022-04-14T09:20:56Z</time>
      </trkpt>
      <trkpt lat="45.95058" lon="6.70546">
        <ele>1628</ele>
        <time>2022-04-14T09:21:09Z</time>
      </trkpt>
      <trkpt lat="45.95058" lon="6.70554">
        <ele>1626</ele>
        <time>2022-04-14T09:21:18Z</time>
      </trkpt>
      <trkpt lat="45.95061" lon="6.70559">
        <ele>1625</ele>
        <time>2022-04-14T09:21:22Z</time>
      </trkpt>
      <trkpt lat="45.95066" lon="6.70559">
        <ele>1627</ele>
        <time>2022-04-14T09:21:30Z</time>
      </trkpt>
      <trkpt lat="45.95075" lon="6.70566">
        <ele>1629</ele>
        <time>2022-04-14T09:21:38Z</time>
      </trkpt>
      <trkpt lat="45.95072" lon="6.70563">
        <ele>1630</ele>
        <time>2022-04-14T09:22:22Z</time>
      </trkpt>
      <trkpt lat="45.95064" lon="6.70558">
        <ele>1627</ele>
        <time>2022-04-14T09:22:29Z</time>
      </trkpt>
      <trkpt lat="45.95057" lon="6.70556">
        <ele>1626</ele>
        <time>2022-04-14T09:22:35Z</time>
      </trkpt>
      <trkpt lat="45.95053" lon="6.70561">
        <ele>1624</ele>
        <time>2022-04-14T09:22:39Z</time>
      </trkpt>
      <trkpt lat="45.95048" lon="6.7056">
        <ele>1622</ele>
        <time>2022-04-14T09:22:43Z</time>
      </trkpt>
      <trkpt lat="45.95049" lon="6.70567">
        <ele>1619</ele>
        <time>2022-04-14T09:23:05Z</time>
      </trkpt>
      <trkpt lat="45.95048" lon="6.70576">
        <ele>1617</ele>
        <time>2022-04-14T09:23:10Z</time>
      </trkpt>
      <trkpt lat="45.95041" lon="6.70576">
        <ele>1613</ele>
        <time>2022-04-14T09:23:17Z</time>
      </trkpt>
      <trkpt lat="45.95036" lon="6.70575">
        <ele>1611</ele>
        <time>2022-04-14T09:23:20Z</time>
      </trkpt>
      <trkpt lat="45.95022" lon="6.70578">
        <ele>1606</ele>
        <time>2022-04-14T09:23:29Z</time>
      </trkpt>
      <trkpt lat="45.95016" lon="6.70576">
        <ele>1604</ele>
        <time>2022-04-14T09:23:33Z</time>
      </trkpt>
      <trkpt lat="45.95012" lon="6.70582">
        <ele>1602</ele>
        <time>2022-04-14T09:23:37Z</time>
      </trkpt>
      <trkpt lat="45.95008" lon="6.70583">
        <ele>1600</ele>
        <time>2022-04-14T09:23:39Z</time>
      </trkpt>
      <trkpt lat="45.95004" lon="6.70588">
        <ele>1598</ele>
        <time>2022-04-14T09:23:42Z</time>
      </trkpt>
      <trkpt lat="45.94999" lon="6.70588">
        <ele>1596</ele>
        <time>2022-04-14T09:23:46Z</time>
      </trkpt>
      <trkpt lat="45.94992" lon="6.70587">
        <ele>1592</ele>
        <time>2022-04-14T09:23:53Z</time>
      </trkpt>
      <trkpt lat="45.94986" lon="6.70589">
        <ele>1591</ele>
        <time>2022-04-14T09:24:04Z</time>
      </trkpt>
      <trkpt lat="45.94982" lon="6.70595">
        <ele>1590</ele>
        <time>2022-04-14T09:24:10Z</time>
      </trkpt>
      <trkpt lat="45.94985" lon="6.706">
        <ele>1589</ele>
        <time>2022-04-14T09:24:18Z</time>
      </trkpt>
      <trkpt lat="45.94992" lon="6.70604">
        <ele>1588</ele>
        <time>2022-04-14T09:24:23Z</time>
      </trkpt>
      <trkpt lat="45.94999" lon="6.70615">
        <ele>1585</ele>
        <time>2022-04-14T09:24:28Z</time>
      </trkpt>
      <trkpt lat="45.95005" lon="6.70637">
        <ele>1583</ele>
        <time>2022-04-14T09:24:38Z</time>
      </trkpt>
      <trkpt lat="45.95014" lon="6.70656">
        <ele>1579</ele>
        <time>2022-04-14T09:24:47Z</time>
      </trkpt>
      <trkpt lat="45.95035" lon="6.70687">
        <ele>1571</ele>
        <time>2022-04-14T09:25:10Z</time>
      </trkpt>
      <trkpt lat="45.95025" lon="6.70691">
        <ele>1569</ele>
        <time>2022-04-14T09:25:25Z</time>
      </trkpt>
      <trkpt lat="45.95027" lon="6.70713">
        <ele>1563</ele>
        <time>2022-04-14T09:25:42Z</time>
      </trkpt>
      <trkpt lat="45.95023" lon="6.70716">
        <ele>1562</ele>
        <time>2022-04-14T09:25:46Z</time>
      </trkpt>
      <trkpt lat="45.95018" lon="6.70731">
        <ele>1555</ele>
        <time>2022-04-14T09:25:57Z</time>
      </trkpt>
      <trkpt lat="45.95011" lon="6.70757">
        <ele>1544</ele>
        <time>2022-04-14T09:26:12Z</time>
      </trkpt>
      <trkpt lat="45.9501" lon="6.70764">
        <ele>1542</ele>
        <time>2022-04-14T09:26:16Z</time>
      </trkpt>
      <trkpt lat="45.95005" lon="6.70775">
        <ele>1537</ele>
        <time>2022-04-14T09:26:26Z</time>
      </trkpt>
      <trkpt lat="45.95001" lon="6.70778">
        <ele>1534</ele>
        <time>2022-04-14T09:26:30Z</time>
      </trkpt>
      <trkpt lat="45.94995" lon="6.70777">
        <ele>1532</ele>
        <time>2022-04-14T09:26:34Z</time>
      </trkpt>
      <trkpt lat="45.94983" lon="6.70772">
        <ele>1529</ele>
        <time>2022-04-14T09:26:55Z</time>
      </trkpt>
      <trkpt lat="45.94979" lon="6.70768">
        <ele>1528</ele>
        <time>2022-04-14T09:27:00Z</time>
      </trkpt>
      <trkpt lat="45.9497" lon="6.70761">
        <ele>1527</ele>
        <time>2022-04-14T09:27:06Z</time>
      </trkpt>
      <trkpt lat="45.94965" lon="6.70761">
        <ele>1526</ele>
        <time>2022-04-14T09:27:08Z</time>
      </trkpt>
      <trkpt lat="45.9496" lon="6.70758">
        <ele>1524</ele>
        <time>2022-04-14T09:27:11Z</time>
      </trkpt>
      <trkpt lat="45.94955" lon="6.70752">
        <ele>1523</ele>
        <time>2022-04-14T09:27:15Z</time>
      </trkpt>
      <trkpt lat="45.94951" lon="6.70743">
        <ele>1521</ele>
        <time>2022-04-14T09:27:19Z</time>
      </trkpt>
      <trkpt lat="45.94946" lon="6.7074">
        <ele>1521</ele>
        <time>2022-04-14T09:27:26Z</time>
      </trkpt>
      <trkpt lat="45.94936" lon="6.70737">
        <ele>1520</ele>
        <time>2022-04-14T09:27:33Z</time>
      </trkpt>
      <trkpt lat="45.94931" lon="6.70741">
        <ele>1518</ele>
        <time>2022-04-14T09:27:36Z</time>
      </trkpt>
      <trkpt lat="45.94932" lon="6.70747">
        <ele>1517</ele>
        <time>2022-04-14T09:27:38Z</time>
      </trkpt>
      <trkpt lat="45.94934" lon="6.70752">
        <ele>1516</ele>
        <time>2022-04-14T09:27:41Z</time>
      </trkpt>
      <trkpt lat="45.94939" lon="6.70757">
        <ele>1514</ele>
        <time>2022-04-14T09:27:44Z</time>
      </trkpt>
      <trkpt lat="45.94942" lon="6.70763">
        <ele>1514</ele>
        <time>2022-04-14T09:27:46Z</time>
      </trkpt>
      <trkpt lat="45.94944" lon="6.70772">
        <ele>1513</ele>
        <time>2022-04-14T09:27:49Z</time>
      </trkpt>
      <trkpt lat="45.94952" lon="6.70793">
        <ele>1511</ele>
        <time>2022-04-14T09:27:56Z</time>
      </trkpt>
      <trkpt lat="45.94987" lon="6.70846">
        <ele>1501</ele>
        <time>2022-04-14T09:28:21Z</time>
      </trkpt>
      <trkpt lat="45.94994" lon="6.70852">
        <ele>1499</ele>
        <time>2022-04-14T09:28:25Z</time>
      </trkpt>
      <trkpt lat="45.95021" lon="6.70896">
        <ele>1492</ele>
        <time>2022-04-14T09:28:49Z</time>
      </trkpt>
      <trkpt lat="45.95021" lon="6.70904">
        <ele>1491</ele>
        <time>2022-04-14T09:28:53Z</time>
      </trkpt>
      <trkpt lat="45.95059" lon="6.70911">
        <ele>1481</ele>
        <time>2022-04-14T09:29:24Z</time>
      </trkpt>
      <trkpt lat="45.95071" lon="6.70914">
        <ele>1479</ele>
        <time>2022-04-14T09:29:31Z</time>
      </trkpt>
      <trkpt lat="45.95077" lon="6.70914">
        <ele>1478</ele>
        <time>2022-04-14T09:29:34Z</time>
      </trkpt>
      <trkpt lat="45.95083" lon="6.70917">
        <ele>1478</ele>
        <time>2022-04-14T09:29:37Z</time>
      </trkpt>
      <trkpt lat="45.95087" lon="6.70923">
        <ele>1477</ele>
        <time>2022-04-14T09:29:39Z</time>
      </trkpt>
      <trkpt lat="45.95084" lon="6.70929">
        <ele>1475</ele>
        <time>2022-04-14T09:29:43Z</time>
      </trkpt>
      <trkpt lat="45.95065" lon="6.70945">
        <ele>1471</ele>
        <time>2022-04-14T09:29:56Z</time>
      </trkpt>
      <trkpt lat="45.95062" lon="6.70951">
        <ele>1470</ele>
        <time>2022-04-14T09:29:59Z</time>
      </trkpt>
      <trkpt lat="45.95061" lon="6.70958">
        <ele>1468</ele>
        <time>2022-04-14T09:30:03Z</time>
      </trkpt>
      <trkpt lat="45.95079" lon="6.70972">
        <ele>1463</ele>
        <time>2022-04-14T09:30:16Z</time>
      </trkpt>
      <trkpt lat="45.95122" lon="6.71034">
        <ele>1450</ele>
        <time>2022-04-14T09:30:50Z</time>
      </trkpt>
      <trkpt lat="45.95142" lon="6.71048">
        <ele>1446</ele>
        <time>2022-04-14T09:31:03Z</time>
      </trkpt>
      <trkpt lat="45.9516" lon="6.71053">
        <ele>1443</ele>
        <time>2022-04-14T09:31:09Z</time>
      </trkpt>
      <trkpt lat="45.95179" lon="6.7106">
        <ele>1441</ele>
        <time>2022-04-14T09:31:17Z</time>
      </trkpt>
      <trkpt lat="45.95208" lon="6.71062">
        <ele>1437</ele>
        <time>2022-04-14T09:31:30Z</time>
      </trkpt>
      <trkpt lat="45.95212" lon="6.71056">
        <ele>1437</ele>
        <time>2022-04-14T09:31:44Z</time>
      </trkpt>
      <trkpt lat="45.95227" lon="6.71061">
        <ele>1435</ele>
        <time>2022-04-14T09:32:02Z</time>
      </trkpt>
      <trkpt lat="45.95232" lon="6.71064">
        <ele>1435</ele>
        <time>2022-04-14T09:32:05Z</time>
      </trkpt>
      <trkpt lat="45.95244" lon="6.71072">
        <ele>1434</ele>
        <time>2022-04-14T09:32:11Z</time>
      </trkpt>
      <trkpt lat="45.95251" lon="6.71076">
        <ele>1434</ele>
        <time>2022-04-14T09:32:14Z</time>
      </trkpt>
      <trkpt lat="45.95266" lon="6.71081">
        <ele>1433</ele>
        <time>2022-04-14T09:32:19Z</time>
      </trkpt>
      <trkpt lat="45.95297" lon="6.71083">
        <ele>1431</ele>
        <time>2022-04-14T09:32:33Z</time>
      </trkpt>
      <trkpt lat="45.95307" lon="6.71088">
        <ele>1430</ele>
        <time>2022-04-14T09:32:38Z</time>
      </trkpt>
      <trkpt lat="45.95309" lon="6.71094">
        <ele>1430</ele>
        <time>2022-04-14T09:32:40Z</time>
      </trkpt>
      <trkpt lat="45.95264" lon="6.71129">
        <ele>1422</ele>
        <time>2022-04-14T09:33:03Z</time>
      </trkpt>
      <trkpt lat="45.95235" lon="6.71133">
        <ele>1419</ele>
        <time>2022-04-14T09:33:15Z</time>
      </trkpt>
      <trkpt lat="45.95229" lon="6.71134">
        <ele>1418</ele>
        <time>2022-04-14T09:33:18Z</time>
      </trkpt>
      <trkpt lat="45.95225" lon="6.71138">
        <ele>1418</ele>
        <time>2022-04-14T09:33:25Z</time>
      </trkpt>
      <trkpt lat="45.95234" lon="6.71144">
        <ele>1416</ele>
        <time>2022-04-14T09:33:35Z</time>
      </trkpt>
      <trkpt lat="45.9527" lon="6.71168">
        <ele>1411</ele>
        <time>2022-04-14T09:33:55Z</time>
      </trkpt>
      <trkpt lat="45.95266" lon="6.71173">
        <ele>1410</ele>
        <time>2022-04-14T09:34:21Z</time>
      </trkpt>
      <trkpt lat="45.95255" lon="6.71161">
        <ele>1411</ele>
        <time>2022-04-14T09:34:37Z</time>
      </trkpt>
      <trkpt lat="45.95248" lon="6.71159">
        <ele>1412</ele>
        <time>2022-04-14T09:34:45Z</time>
      </trkpt>
      <trkpt lat="45.95239" lon="6.71153">
        <ele>1413</ele>
        <time>2022-04-14T09:34:54Z</time>
      </trkpt>
      <trkpt lat="45.95236" lon="6.71148">
        <ele>1413</ele>
        <time>2022-04-14T09:35:00Z</time>
      </trkpt>
      <trkpt lat="45.9523" lon="6.71143">
        <ele>1414</ele>
        <time>2022-04-14T09:35:11Z</time>
      </trkpt>
      <trkpt lat="45.95225" lon="6.71136">
        <ele>1416</ele>
        <time>2022-04-14T09:35:22Z</time>
      </trkpt>
      <trkpt lat="45.95236" lon="6.7113">
        <ele>1417</ele>
        <time>2022-04-14T09:35:33Z</time>
      </trkpt>
      <trkpt lat="45.95257" lon="6.71124">
        <ele>1420</ele>
        <time>2022-04-14T09:35:53Z</time>
      </trkpt>
      <trkpt lat="45.95287" lon="6.71108">
        <ele>1424</ele>
        <time>2022-04-14T09:36:23Z</time>
      </trkpt>
      <trkpt lat="45.95302" lon="6.71096">
        <ele>1427</ele>
        <time>2022-04-14T09:36:39Z</time>
      </trkpt>
      <trkpt lat="45.95307" lon="6.71094">
        <ele>1427</ele>
        <time>2022-04-14T09:36:43Z</time>
      </trkpt>
      <trkpt lat="45.9531" lon="6.7109">
        <ele>1428</ele>
        <time>2022-04-14T09:36:47Z</time>
      </trkpt>
      <trkpt lat="45.95316" lon="6.71088">
        <ele>1430</ele>
        <time>2022-04-14T09:36:54Z</time>
      </trkpt>
      <trkpt lat="45.95323" lon="6.71089">
        <ele>1429</ele>
        <time>2022-04-14T09:37:00Z</time>
      </trkpt>
      <trkpt lat="45.95329" lon="6.71082">
        <ele>1429</ele>
        <time>2022-04-14T09:37:09Z</time>
      </trkpt>
      <trkpt lat="45.95335" lon="6.71091">
        <ele>1429</ele>
        <time>2022-04-14T09:37:26Z</time>
      </trkpt>
      <trkpt lat="45.95341" lon="6.71089">
        <ele>1427</ele>
        <time>2022-04-14T09:37:52Z</time>
      </trkpt>
      <trkpt lat="45.95348" lon="6.71094">
        <ele>1428</ele>
        <time>2022-04-14T09:38:07Z</time>
      </trkpt>
      <trkpt lat="45.95353" lon="6.71098">
        <ele>1427</ele>
        <time>2022-04-14T09:38:27Z</time>
      </trkpt>
      <trkpt lat="45.95352" lon="6.71106">
        <ele>1427</ele>
        <time>2022-04-14T09:38:33Z</time>
      </trkpt>
      <trkpt lat="45.95352" lon="6.71115">
        <ele>1427</ele>
        <time>2022-04-14T09:38:42Z</time>
      </trkpt>
      <trkpt lat="45.95352" lon="6.71123">
        <ele>1427</ele>
        <time>2022-04-14T09:38:48Z</time>
      </trkpt>
      <trkpt lat="45.95355" lon="6.71128">
        <ele>1426</ele>
        <time>2022-04-14T09:38:52Z</time>
      </trkpt>
      <trkpt lat="45.95359" lon="6.71141">
        <ele>1426</ele>
        <time>2022-04-14T09:39:02Z</time>
      </trkpt>
      <trkpt lat="45.95365" lon="6.71144">
        <ele>1425</ele>
        <time>2022-04-14T09:39:10Z</time>
      </trkpt>
      <trkpt lat="45.95376" lon="6.71152">
        <ele>1426</ele>
        <time>2022-04-14T09:39:24Z</time>
      </trkpt>
      <trkpt lat="45.9538" lon="6.71157">
        <ele>1426</ele>
        <time>2022-04-14T09:39:28Z</time>
      </trkpt>
      <trkpt lat="45.95375" lon="6.71159">
        <ele>1426</ele>
        <time>2022-04-14T09:39:35Z</time>
      </trkpt>
      <trkpt lat="45.9537" lon="6.71156">
        <ele>1426</ele>
        <time>2022-04-14T09:39:39Z</time>
      </trkpt>
      <trkpt lat="45.95365" lon="6.71154">
        <ele>1426</ele>
        <time>2022-04-14T09:39:46Z</time>
      </trkpt>
      <trkpt lat="45.9536" lon="6.71147">
        <ele>1426</ele>
        <time>2022-04-14T09:39:55Z</time>
      </trkpt>
      <trkpt lat="45.95355" lon="6.71136">
        <ele>1427</ele>
        <time>2022-04-14T09:40:03Z</time>
      </trkpt>
      <trkpt lat="45.95351" lon="6.71128">
        <ele>1427</ele>
        <time>2022-04-14T09:40:09Z</time>
      </trkpt>
      <trkpt lat="45.95346" lon="6.71127">
        <ele>1427</ele>
        <time>2022-04-14T09:40:14Z</time>
      </trkpt>
      <trkpt lat="45.95343" lon="6.71122">
        <ele>1425</ele>
        <time>2022-04-14T09:40:21Z</time>
      </trkpt>
      <trkpt lat="45.95339" lon="6.71117">
        <ele>1422</ele>
        <time>2022-04-14T09:40:31Z</time>
      </trkpt>
      <trkpt lat="45.95335" lon="6.7112">
        <ele>1421</ele>
        <time>2022-04-14T09:40:38Z</time>
      </trkpt>
      <trkpt lat="45.95332" lon="6.71125">
        <ele>1420</ele>
        <time>2022-04-14T09:40:46Z</time>
      </trkpt>
      <trkpt lat="45.95328" lon="6.7113">
        <ele>1418</ele>
        <time>2022-04-14T09:41:01Z</time>
      </trkpt>
      <trkpt lat="45.95322" lon="6.71133">
        <ele>1417</ele>
        <time>2022-04-14T09:41:08Z</time>
      </trkpt>
      <trkpt lat="45.95316" lon="6.71145">
        <ele>1413</ele>
        <time>2022-04-14T09:41:31Z</time>
      </trkpt>
      <trkpt lat="45.95314" lon="6.71152">
        <ele>1412</ele>
        <time>2022-04-14T09:41:35Z</time>
      </trkpt>
      <trkpt lat="45.95302" lon="6.71169">
        <ele>1409</ele>
        <time>2022-04-14T09:41:44Z</time>
      </trkpt>
      <trkpt lat="45.95304" lon="6.71163">
        <ele>1409</ele>
        <time>2022-04-14T09:41:58Z</time>
      </trkpt>
      <trkpt lat="45.95309" lon="6.71155">
        <ele>1408</ele>
        <time>2022-04-14T09:42:01Z</time>
      </trkpt>
      <trkpt lat="45.95315" lon="6.71152">
        <ele>1409</ele>
        <time>2022-04-14T09:42:04Z</time>
      </trkpt>
      <trkpt lat="45.95321" lon="6.71152">
        <ele>1409</ele>
        <time>2022-04-14T09:42:07Z</time>
      </trkpt>
      <trkpt lat="45.95326" lon="6.71157">
        <ele>1410</ele>
        <time>2022-04-14T09:42:10Z</time>
      </trkpt>
      <trkpt lat="45.9533" lon="6.71165">
        <ele>1410</ele>
        <time>2022-04-14T09:42:14Z</time>
      </trkpt>
      <trkpt lat="45.95332" lon="6.71173">
        <ele>1409</ele>
        <time>2022-04-14T09:42:18Z</time>
      </trkpt>
      <trkpt lat="45.95339" lon="6.71177">
        <ele>1406</ele>
        <time>2022-04-14T09:42:42Z</time>
      </trkpt>
      <trkpt lat="45.95343" lon="6.71209">
        <ele>1403</ele>
        <time>2022-04-14T09:42:57Z</time>
      </trkpt>
      <trkpt lat="45.95369" lon="6.71274">
        <ele>1396</ele>
        <time>2022-04-14T09:43:21Z</time>
      </trkpt>
      <trkpt lat="45.95372" lon="6.71286">
        <ele>1395</ele>
        <time>2022-04-14T09:43:24Z</time>
      </trkpt>
      <trkpt lat="45.95379" lon="6.71347">
        <ele>1388</ele>
        <time>2022-04-14T09:43:42Z</time>
      </trkpt>
      <trkpt lat="45.9538" lon="6.7137">
        <ele>1386</ele>
        <time>2022-04-14T09:43:49Z</time>
      </trkpt>
      <trkpt lat="45.95381" lon="6.71381">
        <ele>1386</ele>
        <time>2022-04-14T09:43:52Z</time>
      </trkpt>
      <trkpt lat="45.95379" lon="6.71411">
        <ele>1382</ele>
        <time>2022-04-14T09:44:01Z</time>
      </trkpt>
      <trkpt lat="45.95375" lon="6.71419">
        <ele>1381</ele>
        <time>2022-04-14T09:44:04Z</time>
      </trkpt>
      <trkpt lat="45.95364" lon="6.71445">
        <ele>1380</ele>
        <time>2022-04-14T09:44:13Z</time>
      </trkpt>
      <trkpt lat="45.95351" lon="6.71455">
        <ele>1380</ele>
        <time>2022-04-14T09:44:19Z</time>
      </trkpt>
      <trkpt lat="45.95321" lon="6.71477">
        <ele>1374</ele>
        <time>2022-04-14T09:44:34Z</time>
      </trkpt>
      <trkpt lat="45.95291" lon="6.71474">
        <ele>1370</ele>
        <time>2022-04-14T09:44:45Z</time>
      </trkpt>
      <trkpt lat="45.95238" lon="6.71495">
        <ele>1363</ele>
        <time>2022-04-14T09:45:06Z</time>
      </trkpt>
      <trkpt lat="45.95226" lon="6.71505">
        <ele>1360</ele>
        <time>2022-04-14T09:45:12Z</time>
      </trkpt>
      <trkpt lat="45.95221" lon="6.71513">
        <ele>1359</ele>
        <time>2022-04-14T09:45:15Z</time>
      </trkpt>
      <trkpt lat="45.95218" lon="6.71523">
        <ele>1358</ele>
        <time>2022-04-14T09:45:18Z</time>
      </trkpt>
      <trkpt lat="45.95216" lon="6.71534">
        <ele>1357</ele>
        <time>2022-04-14T09:45:21Z</time>
      </trkpt>
      <trkpt lat="45.95199" lon="6.71579">
        <ele>1357</ele>
        <time>2022-04-14T09:45:36Z</time>
      </trkpt>
      <trkpt lat="45.95198" lon="6.71588">
        <ele>1357</ele>
        <time>2022-04-14T09:45:38Z</time>
      </trkpt>
      <trkpt lat="45.95199" lon="6.71616">
        <ele>1355</ele>
        <time>2022-04-14T09:45:47Z</time>
      </trkpt>
      <trkpt lat="45.95202" lon="6.71646">
        <ele>1353</ele>
        <time>2022-04-14T09:45:56Z</time>
      </trkpt>
      <trkpt lat="45.95202" lon="6.71656">
        <ele>1353</ele>
        <time>2022-04-14T09:45:59Z</time>
      </trkpt>
      <trkpt lat="45.95195" lon="6.71692">
        <ele>1354</ele>
        <time>2022-04-14T09:46:12Z</time>
      </trkpt>
      <trkpt lat="45.95193" lon="6.717">
        <ele>1354</ele>
        <time>2022-04-14T09:46:15Z</time>
      </trkpt>
      <trkpt lat="45.9519" lon="6.71708">
        <ele>1354</ele>
        <time>2022-04-14T09:46:18Z</time>
      </trkpt>
      <trkpt lat="45.95152" lon="6.71748">
        <ele>1346</ele>
        <time>2022-04-14T09:46:39Z</time>
      </trkpt>
      <trkpt lat="45.95147" lon="6.71754">
        <ele>1345</ele>
        <time>2022-04-14T09:46:42Z</time>
      </trkpt>
      <trkpt lat="45.95138" lon="6.71756">
        <ele>1344</ele>
        <time>2022-04-14T09:46:46Z</time>
      </trkpt>
      <trkpt lat="45.95124" lon="6.71766">
        <ele>1341</ele>
        <time>2022-04-14T09:46:53Z</time>
      </trkpt>
      <trkpt lat="45.95112" lon="6.71768">
        <ele>1338</ele>
        <time>2022-04-14T09:46:59Z</time>
      </trkpt>
      <trkpt lat="45.95101" lon="6.71771">
        <ele>1335</ele>
        <time>2022-04-14T09:47:04Z</time>
      </trkpt>
      <trkpt lat="45.95091" lon="6.71778">
        <ele>1333</ele>
        <time>2022-04-14T09:47:08Z</time>
      </trkpt>
      <trkpt lat="45.95084" lon="6.7179">
        <ele>1331</ele>
        <time>2022-04-14T09:47:12Z</time>
      </trkpt>
      <trkpt lat="45.95075" lon="6.71817">
        <ele>1326</ele>
        <time>2022-04-14T09:47:20Z</time>
      </trkpt>
      <trkpt lat="45.95065" lon="6.71853">
        <ele>1320</ele>
        <time>2022-04-14T09:47:32Z</time>
      </trkpt>
      <trkpt lat="45.95064" lon="6.71863">
        <ele>1318</ele>
        <time>2022-04-14T09:47:35Z</time>
      </trkpt>
      <trkpt lat="45.95058" lon="6.71879">
        <ele>1316</ele>
        <time>2022-04-14T09:47:41Z</time>
      </trkpt>
      <trkpt lat="45.95056" lon="6.7192">
        <ele>1309</ele>
        <time>2022-04-14T09:47:53Z</time>
      </trkpt>
      <trkpt lat="45.9505" lon="6.71931">
        <ele>1308</ele>
        <time>2022-04-14T09:47:57Z</time>
      </trkpt>
      <trkpt lat="45.9503" lon="6.71955">
        <ele>1303</ele>
        <time>2022-04-14T09:48:07Z</time>
      </trkpt>
      <trkpt lat="45.95017" lon="6.71963">
        <ele>1301</ele>
        <time>2022-04-14T09:48:13Z</time>
      </trkpt>
      <trkpt lat="45.95011" lon="6.71963">
        <ele>1300</ele>
        <time>2022-04-14T09:48:15Z</time>
      </trkpt>
      <trkpt lat="45.95007" lon="6.71961">
        <ele>1299</ele>
        <time>2022-04-14T09:48:17Z</time>
      </trkpt>
      <trkpt lat="45.95004" lon="6.71953">
        <ele>1297</ele>
        <time>2022-04-14T09:48:20Z</time>
      </trkpt>
      <trkpt lat="45.95004" lon="6.71943">
        <ele>1295</ele>
        <time>2022-04-14T09:48:23Z</time>
      </trkpt>
      <trkpt lat="45.95007" lon="6.71901">
        <ele>1289</ele>
        <time>2022-04-14T09:48:36Z</time>
      </trkpt>
      <trkpt lat="45.95003" lon="6.71887">
        <ele>1288</ele>
        <time>2022-04-14T09:48:40Z</time>
      </trkpt>
      <trkpt lat="45.94989" lon="6.71849">
        <ele>1282</ele>
        <time>2022-04-14T09:48:53Z</time>
      </trkpt>
      <trkpt lat="45.94982" lon="6.71825">
        <ele>1279</ele>
        <time>2022-04-14T09:49:01Z</time>
      </trkpt>
      <trkpt lat="45.94981" lon="6.71815">
        <ele>1277</ele>
        <time>2022-04-14T09:49:03Z</time>
      </trkpt>
      <trkpt lat="45.94987" lon="6.71801">
        <ele>1275</ele>
        <time>2022-04-14T09:49:08Z</time>
      </trkpt>
      <trkpt lat="45.94985" lon="6.71794">
        <ele>1274</ele>
        <time>2022-04-14T09:49:10Z</time>
      </trkpt>
      <trkpt lat="45.94981" lon="6.71789">
        <ele>1272</ele>
        <time>2022-04-14T09:49:12Z</time>
      </trkpt>
      <trkpt lat="45.94975" lon="6.71792">
        <ele>1271</ele>
        <time>2022-04-14T09:49:15Z</time>
      </trkpt>
      <trkpt lat="45.94971" lon="6.71796">
        <ele>1269</ele>
        <time>2022-04-14T09:49:17Z</time>
      </trkpt>
      <trkpt lat="45.94965" lon="6.71808">
        <ele>1267</ele>
        <time>2022-04-14T09:49:22Z</time>
      </trkpt>
      <trkpt lat="45.94963" lon="6.71816">
        <ele>1266</ele>
        <time>2022-04-14T09:49:24Z</time>
      </trkpt>
      <trkpt lat="45.94963" lon="6.71823">
        <ele>1265</ele>
        <time>2022-04-14T09:49:26Z</time>
      </trkpt>
      <trkpt lat="45.94946" lon="6.71858">
        <ele>1260</ele>
        <time>2022-04-14T09:49:39Z</time>
      </trkpt>
      <trkpt lat="45.94944" lon="6.71872">
        <ele>1258</ele>
        <time>2022-04-14T09:49:43Z</time>
      </trkpt>
      <trkpt lat="45.94944" lon="6.71882">
        <ele>1257</ele>
        <time>2022-04-14T09:49:47Z</time>
      </trkpt>
      <trkpt lat="45.94943" lon="6.71891">
        <ele>1255</ele>
        <time>2022-04-14T09:49:54Z</time>
      </trkpt>
      <trkpt lat="45.94941" lon="6.71898">
        <ele>1255</ele>
        <time>2022-04-14T09:49:56Z</time>
      </trkpt>
      <trkpt lat="45.94938" lon="6.71926">
        <ele>1250</ele>
        <time>2022-04-14T09:50:08Z</time>
      </trkpt>
      <trkpt lat="45.94938" lon="6.71935">
        <ele>1247</ele>
        <time>2022-04-14T09:50:12Z</time>
      </trkpt>
      <trkpt lat="45.94937" lon="6.71959">
        <ele>1243</ele>
        <time>2022-04-14T09:50:20Z</time>
      </trkpt>
      <trkpt lat="45.94934" lon="6.71963">
        <ele>1242</ele>
        <time>2022-04-14T09:50:22Z</time>
      </trkpt>
      <trkpt lat="45.94929" lon="6.7196">
        <ele>1241</ele>
        <time>2022-04-14T09:50:24Z</time>
      </trkpt>
      <trkpt lat="45.94916" lon="6.71941">
        <ele>1236</ele>
        <time>2022-04-14T09:50:34Z</time>
      </trkpt>
      <trkpt lat="45.94906" lon="6.71929">
        <ele>1230</ele>
        <time>2022-04-14T09:50:41Z</time>
      </trkpt>
      <trkpt lat="45.94902" lon="6.71923">
        <ele>1229</ele>
        <time>2022-04-14T09:50:43Z</time>
      </trkpt>
      <trkpt lat="45.94898" lon="6.71919">
        <ele>1228</ele>
        <time>2022-04-14T09:50:45Z</time>
      </trkpt>
      <trkpt lat="45.94894" lon="6.71916">
        <ele>1226</ele>
        <time>2022-04-14T09:50:47Z</time>
      </trkpt>
      <trkpt lat="45.94889" lon="6.71919">
        <ele>1225</ele>
        <time>2022-04-14T09:50:49Z</time>
      </trkpt>
      <trkpt lat="45.94888" lon="6.71943">
        <ele>1220</ele>
        <time>2022-04-14T09:50:59Z</time>
      </trkpt>
      <trkpt lat="45.9489" lon="6.71958">
        <ele>1217</ele>
        <time>2022-04-14T09:51:04Z</time>
      </trkpt>
      <trkpt lat="45.94893" lon="6.71967">
        <ele>1215</ele>
        <time>2022-04-14T09:51:07Z</time>
      </trkpt>
      <trkpt lat="45.94892" lon="6.71974">
        <ele>1214</ele>
        <time>2022-04-14T09:51:09Z</time>
      </trkpt>
      <trkpt lat="45.94893" lon="6.71998">
        <ele>1211</ele>
        <time>2022-04-14T09:51:15Z</time>
      </trkpt>
      <trkpt lat="45.94896" lon="6.72008">
        <ele>1211</ele>
        <time>2022-04-14T09:51:18Z</time>
      </trkpt>
      <trkpt lat="45.94896" lon="6.72014">
        <ele>1211</ele>
        <time>2022-04-14T09:51:20Z</time>
      </trkpt>
      <trkpt lat="45.94893" lon="6.72034">
        <ele>1211</ele>
        <time>2022-04-14T09:51:27Z</time>
      </trkpt>
      <trkpt lat="45.94887" lon="6.72044">
        <ele>1212</ele>
        <time>2022-04-14T09:51:31Z</time>
      </trkpt>
      <trkpt lat="45.94884" lon="6.72053">
        <ele>1212</ele>
        <time>2022-04-14T09:51:34Z</time>
      </trkpt>
      <trkpt lat="45.9488" lon="6.72058">
        <ele>1212</ele>
        <time>2022-04-14T09:51:36Z</time>
      </trkpt>
      <trkpt lat="45.94879" lon="6.72064">
        <ele>1212</ele>
        <time>2022-04-14T09:51:38Z</time>
      </trkpt>
      <trkpt lat="45.94868" lon="6.72079">
        <ele>1212</ele>
        <time>2022-04-14T09:51:45Z</time>
      </trkpt>
      <trkpt lat="45.94864" lon="6.72084">
        <ele>1212</ele>
        <time>2022-04-14T09:51:48Z</time>
      </trkpt>
      <trkpt lat="45.94859" lon="6.72088">
        <ele>1212</ele>
        <time>2022-04-14T09:51:50Z</time>
      </trkpt>
      <trkpt lat="45.94852" lon="6.72099">
        <ele>1212</ele>
        <time>2022-04-14T09:51:55Z</time>
      </trkpt>
      <trkpt lat="45.94855" lon="6.72107">
        <ele>1212</ele>
        <time>2022-04-14T09:51:58Z</time>
      </trkpt>
      <trkpt lat="45.94864" lon="6.72113">
        <ele>1210</ele>
        <time>2022-04-14T09:52:04Z</time>
      </trkpt>
      <trkpt lat="45.94867" lon="6.72118">
        <ele>1210</ele>
        <time>2022-04-14T09:52:06Z</time>
      </trkpt>
      <trkpt lat="45.94865" lon="6.72114">
        <ele>1208</ele>
        <time>2022-04-14T09:52:19Z</time>
      </trkpt>
      <trkpt lat="45.94852" lon="6.72107">
        <ele>1210</ele>
        <time>2022-04-14T09:52:29Z</time>
      </trkpt>
      <trkpt lat="45.94852" lon="6.72098">
        <ele>1212</ele>
        <time>2022-04-14T09:52:37Z</time>
      </trkpt>
      <trkpt lat="45.94868" lon="6.72081">
        <ele>1211</ele>
        <time>2022-04-14T09:52:49Z</time>
      </trkpt>
      <trkpt lat="45.94872" lon="6.72075">
        <ele>1211</ele>
        <time>2022-04-14T09:52:52Z</time>
      </trkpt>
      <trkpt lat="45.94887" lon="6.72052">
        <ele>1211</ele>
        <time>2022-04-14T09:53:02Z</time>
      </trkpt>
      <trkpt lat="45.94892" lon="6.72047">
        <ele>1211</ele>
        <time>2022-04-14T09:53:05Z</time>
      </trkpt>
      <trkpt lat="45.94893" lon="6.72038">
        <ele>1211</ele>
        <time>2022-04-14T09:53:07Z</time>
      </trkpt>
      <trkpt lat="45.94896" lon="6.7202">
        <ele>1210</ele>
        <time>2022-04-14T09:53:12Z</time>
      </trkpt>
      <trkpt lat="45.94894" lon="6.72013">
        <ele>1209</ele>
        <time>2022-04-14T09:53:14Z</time>
      </trkpt>
      <trkpt lat="45.94893" lon="6.72006">
        <ele>1209</ele>
        <time>2022-04-14T09:53:16Z</time>
      </trkpt>
      <trkpt lat="45.94893" lon="6.71985">
        <ele>1211</ele>
        <time>2022-04-14T09:53:28Z</time>
      </trkpt>
      <trkpt lat="45.94893" lon="6.71978">
        <ele>1211</ele>
        <time>2022-04-14T09:53:32Z</time>
      </trkpt>
      <trkpt lat="45.94887" lon="6.71941">
        <ele>1217</ele>
        <time>2022-04-14T09:54:01Z</time>
      </trkpt>
      <trkpt lat="45.94887" lon="6.71935">
        <ele>1217</ele>
        <time>2022-04-14T09:54:06Z</time>
      </trkpt>
      <trkpt lat="45.94889" lon="6.71922">
        <ele>1220</ele>
        <time>2022-04-14T09:54:17Z</time>
      </trkpt>
      <trkpt lat="45.94893" lon="6.71916">
        <ele>1222</ele>
        <time>2022-04-14T09:54:27Z</time>
      </trkpt>
      <trkpt lat="45.94898" lon="6.71918">
        <ele>1223</ele>
        <time>2022-04-14T09:54:32Z</time>
      </trkpt>
      <trkpt lat="45.94905" lon="6.71932">
        <ele>1227</ele>
        <time>2022-04-14T09:54:57Z</time>
      </trkpt>
      <trkpt lat="45.9491" lon="6.71936">
        <ele>1229</ele>
        <time>2022-04-14T09:55:07Z</time>
      </trkpt>
      <trkpt lat="45.94919" lon="6.71945">
        <ele>1232</ele>
        <time>2022-04-14T09:55:19Z</time>
      </trkpt>
      <trkpt lat="45.94926" lon="6.71953">
        <ele>1235</ele>
        <time>2022-04-14T09:55:29Z</time>
      </trkpt>
      <trkpt lat="45.94928" lon="6.7196">
        <ele>1236</ele>
        <time>2022-04-14T09:55:34Z</time>
      </trkpt>
      <trkpt lat="45.94938" lon="6.71966">
        <ele>1237</ele>
        <time>2022-04-14T09:55:52Z</time>
      </trkpt>
      <trkpt lat="45.94941" lon="6.7197">
        <ele>1239</ele>
        <time>2022-04-14T09:55:58Z</time>
      </trkpt>
      <trkpt lat="45.94943" lon="6.71976">
        <ele>1239</ele>
        <time>2022-04-14T09:56:03Z</time>
      </trkpt>
      <trkpt lat="45.94944" lon="6.71983">
        <ele>1239</ele>
        <time>2022-04-14T09:56:08Z</time>
      </trkpt>
      <trkpt lat="45.94946" lon="6.71997">
        <ele>1236</ele>
        <time>2022-04-14T09:56:15Z</time>
      </trkpt>
      <trkpt lat="45.94945" lon="6.72004">
        <ele>1235</ele>
        <time>2022-04-14T09:56:18Z</time>
      </trkpt>
      <trkpt lat="45.94946" lon="6.7201">
        <ele>1234</ele>
        <time>2022-04-14T09:56:22Z</time>
      </trkpt>
      <trkpt lat="45.94945" lon="6.72025">
        <ele>1233</ele>
        <time>2022-04-14T09:56:58Z</time>
      </trkpt>
      <trkpt lat="45.94939" lon="6.72028">
        <ele>1233</ele>
        <time>2022-04-14T09:57:08Z</time>
      </trkpt>
      <trkpt lat="45.94939" lon="6.72017">
        <ele>1234</ele>
        <time>2022-04-14T09:57:29Z</time>
      </trkpt>
      <trkpt lat="45.9494" lon="6.72009">
        <ele>1234</ele>
        <time>2022-04-14T09:57:32Z</time>
      </trkpt>
      <trkpt lat="45.94939" lon="6.72002">
        <ele>1235</ele>
        <time>2022-04-14T09:57:36Z</time>
      </trkpt>
      <trkpt lat="45.94938" lon="6.71995">
        <ele>1235</ele>
        <time>2022-04-14T09:57:41Z</time>
      </trkpt>
      <trkpt lat="45.94938" lon="6.71988">
        <ele>1236</ele>
        <time>2022-04-14T09:57:45Z</time>
      </trkpt>
      <trkpt lat="45.94933" lon="6.71974">
        <ele>1238</ele>
        <time>2022-04-14T09:57:55Z</time>
      </trkpt>
      <trkpt lat="45.9493" lon="6.71969">
        <ele>1238</ele>
        <time>2022-04-14T09:57:59Z</time>
      </trkpt>
      <trkpt lat="45.94925" lon="6.71965">
        <ele>1237</ele>
        <time>2022-04-14T09:58:03Z</time>
      </trkpt>
      <trkpt lat="45.94919" lon="6.71953">
        <ele>1233</ele>
        <time>2022-04-14T09:58:11Z</time>
      </trkpt>
      <trkpt lat="45.94907" lon="6.71939">
        <ele>1228</ele>
        <time>2022-04-14T09:58:20Z</time>
      </trkpt>
      <trkpt lat="45.949" lon="6.71923">
        <ele>1224</ele>
        <time>2022-04-14T09:58:26Z</time>
      </trkpt>
      <trkpt lat="45.94895" lon="6.71921">
        <ele>1223</ele>
        <time>2022-04-14T09:58:28Z</time>
      </trkpt>
      <trkpt lat="45.94891" lon="6.71922">
        <ele>1222</ele>
        <time>2022-04-14T09:58:30Z</time>
      </trkpt>
      <trkpt lat="45.94889" lon="6.71928">
        <ele>1221</ele>
        <time>2022-04-14T09:58:32Z</time>
      </trkpt>
      <trkpt lat="45.94889" lon="6.71934">
        <ele>1220</ele>
        <time>2022-04-14T09:58:34Z</time>
      </trkpt>
      <trkpt lat="45.94893" lon="6.71962">
        <ele>1213</ele>
        <time>2022-04-14T09:58:47Z</time>
      </trkpt>
      <trkpt lat="45.94895" lon="6.71968">
        <ele>1212</ele>
        <time>2022-04-14T09:58:50Z</time>
      </trkpt>
      <trkpt lat="45.94899" lon="6.72007">
        <ele>1208</ele>
        <time>2022-04-14T09:59:01Z</time>
      </trkpt>
      <trkpt lat="45.94899" lon="6.72014">
        <ele>1208</ele>
        <time>2022-04-14T09:59:03Z</time>
      </trkpt>
      <trkpt lat="45.94896" lon="6.72033">
        <ele>1208</ele>
        <time>2022-04-14T09:59:09Z</time>
      </trkpt>
      <trkpt lat="45.9489" lon="6.72046">
        <ele>1209</ele>
        <time>2022-04-14T09:59:14Z</time>
      </trkpt>
      <trkpt lat="45.94872" lon="6.72075">
        <ele>1209</ele>
        <time>2022-04-14T09:59:26Z</time>
      </trkpt>
      <trkpt lat="45.94856" lon="6.72095">
        <ele>1210</ele>
        <time>2022-04-14T09:59:35Z</time>
      </trkpt>
      <trkpt lat="45.94856" lon="6.72105">
        <ele>1209</ele>
        <time>2022-04-14T09:59:38Z</time>
      </trkpt>
      <trkpt lat="45.94865" lon="6.72115">
        <ele>1207</ele>
        <time>2022-04-14T09:59:45Z</time>
      </trkpt>
      <trkpt lat="45.94866" lon="6.72121">
        <ele>1206</ele>
        <time>2022-04-14T09:59:47Z</time>
      </trkpt>
      <trkpt lat="45.94862" lon="6.72134">
        <ele>1205</ele>
        <time>2022-04-14T09:59:51Z</time>
      </trkpt>
      <trkpt lat="45.94846" lon="6.72161">
        <ele>1203</ele>
        <time>2022-04-14T10:00:01Z</time>
      </trkpt>
      <trkpt lat="45.94844" lon="6.72184">
        <ele>1201</ele>
        <time>2022-04-14T10:00:10Z</time>
      </trkpt>
      <trkpt lat="45.94845" lon="6.72193">
        <ele>1201</ele>
        <time>2022-04-14T10:00:13Z</time>
      </trkpt>
      <trkpt lat="45.94843" lon="6.72201">
        <ele>1201</ele>
        <time>2022-04-14T10:00:17Z</time>
      </trkpt>
      <trkpt lat="45.94837" lon="6.72213">
        <ele>1201</ele>
        <time>2022-04-14T10:00:23Z</time>
      </trkpt>
      <trkpt lat="45.94834" lon="6.72219">
        <ele>1201</ele>
        <time>2022-04-14T10:00:26Z</time>
      </trkpt>
      <trkpt lat="45.94829" lon="6.72222">
        <ele>1202</ele>
        <time>2022-04-14T10:00:29Z</time>
      </trkpt>
      <trkpt lat="45.94823" lon="6.72231">
        <ele>1204</ele>
        <time>2022-04-14T10:00:34Z</time>
      </trkpt>
      <trkpt lat="45.94823" lon="6.72237">
        <ele>1205</ele>
        <time>2022-04-14T10:00:38Z</time>
      </trkpt>
      <trkpt lat="45.94825" lon="6.72244">
        <ele>1205</ele>
        <time>2022-04-14T10:00:51Z</time>
      </trkpt>
      <trkpt lat="45.94833" lon="6.72253">
        <ele>1206</ele>
        <time>2022-04-14T10:01:00Z</time>
      </trkpt>
      <trkpt lat="45.94837" lon="6.72257">
        <ele>1207</ele>
        <time>2022-04-14T10:01:03Z</time>
      </trkpt>
      <trkpt lat="45.94843" lon="6.72266">
        <ele>1208</ele>
        <time>2022-04-14T10:01:09Z</time>
      </trkpt>
      <trkpt lat="45.94852" lon="6.72284">
        <ele>1210</ele>
        <time>2022-04-14T10:01:22Z</time>
      </trkpt>
      <trkpt lat="45.94865" lon="6.72298">
        <ele>1214</ele>
        <time>2022-04-14T10:01:37Z</time>
      </trkpt>
      <trkpt lat="45.94867" lon="6.72304">
        <ele>1215</ele>
        <time>2022-04-14T10:01:41Z</time>
      </trkpt>
      <trkpt lat="45.94876" lon="6.72312">
        <ele>1215</ele>
        <time>2022-04-14T10:01:48Z</time>
      </trkpt>
      <trkpt lat="45.94885" lon="6.72329">
        <ele>1217</ele>
        <time>2022-04-14T10:02:00Z</time>
      </trkpt>
      <trkpt lat="45.94884" lon="6.72335">
        <ele>1218</ele>
        <time>2022-04-14T10:02:06Z</time>
      </trkpt>
      <trkpt lat="45.94887" lon="6.72351">
        <ele>1220</ele>
        <time>2022-04-14T10:02:18Z</time>
      </trkpt>
      <trkpt lat="45.94891" lon="6.72355">
        <ele>1221</ele>
        <time>2022-04-14T10:02:25Z</time>
      </trkpt>
      <trkpt lat="45.94913" lon="6.72361">
        <ele>1224</ele>
        <time>2022-04-14T10:02:48Z</time>
      </trkpt>
      <trkpt lat="45.94932" lon="6.72357">
        <ele>1227</ele>
        <time>2022-04-14T10:03:06Z</time>
      </trkpt>
      <trkpt lat="45.94936" lon="6.72354">
        <ele>1228</ele>
        <time>2022-04-14T10:03:10Z</time>
      </trkpt>
      <trkpt lat="45.94943" lon="6.72345">
        <ele>1229</ele>
        <time>2022-04-14T10:03:19Z</time>
      </trkpt>
      <trkpt lat="45.94958" lon="6.72333">
        <ele>1232</ele>
        <time>2022-04-14T10:03:33Z</time>
      </trkpt>
      <trkpt lat="45.94962" lon="6.72332">
        <ele>1232</ele>
        <time>2022-04-14T10:03:36Z</time>
      </trkpt>
      <trkpt lat="45.94967" lon="6.72326">
        <ele>1233</ele>
        <time>2022-04-14T10:03:43Z</time>
      </trkpt>
      <trkpt lat="45.9498" lon="6.72315">
        <ele>1235</ele>
        <time>2022-04-14T10:03:53Z</time>
      </trkpt>
      <trkpt lat="45.94984" lon="6.72311">
        <ele>1236</ele>
        <time>2022-04-14T10:03:56Z</time>
      </trkpt>
      <trkpt lat="45.94987" lon="6.72305">
        <ele>1237</ele>
        <time>2022-04-14T10:04:01Z</time>
      </trkpt>
      <trkpt lat="45.94991" lon="6.72301">
        <ele>1238</ele>
        <time>2022-04-14T10:04:05Z</time>
      </trkpt>
      <trkpt lat="45.95004" lon="6.72294">
        <ele>1239</ele>
        <time>2022-04-14T10:04:16Z</time>
      </trkpt>
      <trkpt lat="45.95013" lon="6.72291">
        <ele>1241</ele>
        <time>2022-04-14T10:04:24Z</time>
      </trkpt>
      <trkpt lat="45.95017" lon="6.72287">
        <ele>1242</ele>
        <time>2022-04-14T10:04:31Z</time>
      </trkpt>
      <trkpt lat="45.95022" lon="6.72286">
        <ele>1243</ele>
        <time>2022-04-14T10:04:35Z</time>
      </trkpt>
      <trkpt lat="45.95026" lon="6.72283">
        <ele>1244</ele>
        <time>2022-04-14T10:04:40Z</time>
      </trkpt>
      <trkpt lat="45.95031" lon="6.72281">
        <ele>1245</ele>
        <time>2022-04-14T10:04:47Z</time>
      </trkpt>
      <trkpt lat="45.95036" lon="6.72278">
        <ele>1246</ele>
        <time>2022-04-14T10:04:52Z</time>
      </trkpt>
      <trkpt lat="45.95039" lon="6.72273">
        <ele>1247</ele>
        <time>2022-04-14T10:04:55Z</time>
      </trkpt>
      <trkpt lat="45.95045" lon="6.7227">
        <ele>1248</ele>
        <time>2022-04-14T10:05:00Z</time>
      </trkpt>
      <trkpt lat="45.9505" lon="6.72271">
        <ele>1249</ele>
        <time>2022-04-14T10:05:04Z</time>
      </trkpt>
      <trkpt lat="45.95058" lon="6.7228">
        <ele>1251</ele>
        <time>2022-04-14T10:05:12Z</time>
      </trkpt>
      <trkpt lat="45.95066" lon="6.72309">
        <ele>1254</ele>
        <time>2022-04-14T10:05:29Z</time>
      </trkpt>
      <trkpt lat="45.95068" lon="6.72318">
        <ele>1256</ele>
        <time>2022-04-14T10:05:37Z</time>
      </trkpt>
      <trkpt lat="45.95066" lon="6.72341">
        <ele>1260</ele>
        <time>2022-04-14T10:05:53Z</time>
      </trkpt>
      <trkpt lat="45.95071" lon="6.72381">
        <ele>1267</ele>
        <time>2022-04-14T10:06:25Z</time>
      </trkpt>
      <trkpt lat="45.95075" lon="6.72398">
        <ele>1270</ele>
        <time>2022-04-14T10:06:40Z</time>
      </trkpt>
      <trkpt lat="45.95074" lon="6.72406">
        <ele>1271</ele>
        <time>2022-04-14T10:06:46Z</time>
      </trkpt>
      <trkpt lat="45.95067" lon="6.72429">
        <ele>1271</ele>
        <time>2022-04-14T10:06:58Z</time>
      </trkpt>
      <trkpt lat="45.95066" lon="6.72467">
        <ele>1278</ele>
        <time>2022-04-14T10:07:31Z</time>
      </trkpt>
      <trkpt lat="45.95065" lon="6.72476">
        <ele>1280</ele>
        <time>2022-04-14T10:07:38Z</time>
      </trkpt>
      <trkpt lat="45.95067" lon="6.72502">
        <ele>1283</ele>
        <time>2022-04-14T10:07:55Z</time>
      </trkpt>
      <trkpt lat="45.95064" lon="6.72522">
        <ele>1286</ele>
        <time>2022-04-14T10:08:09Z</time>
      </trkpt>
      <trkpt lat="45.95066" lon="6.72531">
        <ele>1287</ele>
        <time>2022-04-14T10:08:16Z</time>
      </trkpt>
      <trkpt lat="45.95057" lon="6.72563">
        <ele>1293</ele>
        <time>2022-04-14T10:08:43Z</time>
      </trkpt>
      <trkpt lat="45.95057" lon="6.72578">
        <ele>1296</ele>
        <time>2022-04-14T10:08:55Z</time>
      </trkpt>
      <trkpt lat="45.95058" lon="6.7259">
        <ele>1299</ele>
        <time>2022-04-14T10:09:12Z</time>
      </trkpt>
      <trkpt lat="45.95059" lon="6.72601">
        <ele>1302</ele>
        <time>2022-04-14T10:09:22Z</time>
      </trkpt>
      <trkpt lat="45.95058" lon="6.72619">
        <ele>1305</ele>
        <time>2022-04-14T10:09:39Z</time>
      </trkpt>
      <trkpt lat="45.9506" lon="6.7263">
        <ele>1307</ele>
        <time>2022-04-14T10:09:48Z</time>
      </trkpt>
      <trkpt lat="45.95059" lon="6.72642">
        <ele>1309</ele>
        <time>2022-04-14T10:09:57Z</time>
      </trkpt>
      <trkpt lat="45.9506" lon="6.72652">
        <ele>1312</ele>
        <time>2022-04-14T10:10:11Z</time>
      </trkpt>
      <trkpt lat="45.95062" lon="6.72665">
        <ele>1316</ele>
        <time>2022-04-14T10:10:27Z</time>
      </trkpt>
      <trkpt lat="45.9506" lon="6.72694">
        <ele>1320</ele>
        <time>2022-04-14T10:10:46Z</time>
      </trkpt>
      <trkpt lat="45.95065" lon="6.72705">
        <ele>1322</ele>
        <time>2022-04-14T10:10:56Z</time>
      </trkpt>
      <trkpt lat="45.95066" lon="6.72712">
        <ele>1322</ele>
        <time>2022-04-14T10:11:03Z</time>
      </trkpt>
      <trkpt lat="45.95066" lon="6.7272">
        <ele>1322</ele>
        <time>2022-04-14T10:11:08Z</time>
      </trkpt>
      <trkpt lat="45.95065" lon="6.7273">
        <ele>1322</ele>
        <time>2022-04-14T10:11:14Z</time>
      </trkpt>
      <trkpt lat="45.95063" lon="6.72741">
        <ele>1322</ele>
        <time>2022-04-14T10:11:20Z</time>
      </trkpt>
      <trkpt lat="45.95058" lon="6.7275">
        <ele>1321</ele>
        <time>2022-04-14T10:11:24Z</time>
      </trkpt>
      <trkpt lat="45.9505" lon="6.72754">
        <ele>1319</ele>
        <time>2022-04-14T10:11:27Z</time>
      </trkpt>
      <trkpt lat="45.95047" lon="6.72762">
        <ele>1318</ele>
        <time>2022-04-14T10:11:34Z</time>
      </trkpt>
      <trkpt lat="45.95046" lon="6.72768">
        <ele>1319</ele>
        <time>2022-04-14T10:11:37Z</time>
      </trkpt>
      <trkpt lat="45.95041" lon="6.72763">
        <ele>1319</ele>
        <time>2022-04-14T10:11:53Z</time>
      </trkpt>
      <trkpt lat="45.95036" lon="6.72762">
        <ele>1318</ele>
        <time>2022-04-14T10:11:56Z</time>
      </trkpt>
      <trkpt lat="45.95026" lon="6.72765">
        <ele>1316</ele>
        <time>2022-04-14T10:12:02Z</time>
      </trkpt>
      <trkpt lat="45.95023" lon="6.72781">
        <ele>1314</ele>
        <time>2022-04-14T10:12:09Z</time>
      </trkpt>
      <trkpt lat="45.95025" lon="6.72797">
        <ele>1313</ele>
        <time>2022-04-14T10:12:14Z</time>
      </trkpt>
      <trkpt lat="45.95023" lon="6.72819">
        <ele>1312</ele>
        <time>2022-04-14T10:12:23Z</time>
      </trkpt>
      <trkpt lat="45.95026" lon="6.72826">
        <ele>1312</ele>
        <time>2022-04-14T10:12:26Z</time>
      </trkpt>
      <trkpt lat="45.95035" lon="6.72842">
        <ele>1309</ele>
        <time>2022-04-14T10:12:33Z</time>
      </trkpt>
      <trkpt lat="45.95036" lon="6.72867">
        <ele>1307</ele>
        <time>2022-04-14T10:12:43Z</time>
      </trkpt>
      <trkpt lat="45.95038" lon="6.72879">
        <ele>1306</ele>
        <time>2022-04-14T10:12:48Z</time>
      </trkpt>
      <trkpt lat="45.95043" lon="6.72885">
        <ele>1306</ele>
        <time>2022-04-14T10:12:51Z</time>
      </trkpt>
      <trkpt lat="45.95049" lon="6.7289">
        <ele>1305</ele>
        <time>2022-04-14T10:12:54Z</time>
      </trkpt>
      <trkpt lat="45.95058" lon="6.72902">
        <ele>1305</ele>
        <time>2022-04-14T10:13:00Z</time>
      </trkpt>
      <trkpt lat="45.95059" lon="6.72909">
        <ele>1304</ele>
        <time>2022-04-14T10:13:02Z</time>
      </trkpt>
      <trkpt lat="45.95061" lon="6.72916">
        <ele>1303</ele>
        <time>2022-04-14T10:13:04Z</time>
      </trkpt>
      <trkpt lat="45.95061" lon="6.72924">
        <ele>1302</ele>
        <time>2022-04-14T10:13:06Z</time>
      </trkpt>
      <trkpt lat="45.95061" lon="6.72935">
        <ele>1301</ele>
        <time>2022-04-14T10:13:10Z</time>
      </trkpt>
      <trkpt lat="45.95059" lon="6.72941">
        <ele>1300</ele>
        <time>2022-04-14T10:13:13Z</time>
      </trkpt>
      <trkpt lat="45.95064" lon="6.72958">
        <ele>1299</ele>
        <time>2022-04-14T10:13:24Z</time>
      </trkpt>
      <trkpt lat="45.95063" lon="6.72966">
        <ele>1299</ele>
        <time>2022-04-14T10:13:27Z</time>
      </trkpt>
      <trkpt lat="45.95065" lon="6.72971">
        <ele>1299</ele>
        <time>2022-04-14T10:13:30Z</time>
      </trkpt>
      <trkpt lat="45.95068" lon="6.72979">
        <ele>1300</ele>
        <time>2022-04-14T10:13:33Z</time>
      </trkpt>
      <trkpt lat="45.95072" lon="6.72985">
        <ele>1300</ele>
        <time>2022-04-14T10:13:36Z</time>
      </trkpt>
      <trkpt lat="45.95067" lon="6.72989">
        <ele>1301</ele>
        <time>2022-04-14T10:13:40Z</time>
      </trkpt>
      <trkpt lat="45.95063" lon="6.72991">
        <ele>1301</ele>
        <time>2022-04-14T10:13:42Z</time>
      </trkpt>
      <trkpt lat="45.95059" lon="6.72995">
        <ele>1301</ele>
        <time>2022-04-14T10:13:44Z</time>
      </trkpt>
      <trkpt lat="45.95055" lon="6.72998">
        <ele>1300</ele>
        <time>2022-04-14T10:13:46Z</time>
      </trkpt>
      <trkpt lat="45.9505" lon="6.72995">
        <ele>1300</ele>
        <time>2022-04-14T10:13:48Z</time>
      </trkpt>
      <trkpt lat="45.95039" lon="6.72993">
        <ele>1300</ele>
        <time>2022-04-14T10:13:54Z</time>
      </trkpt>
      <trkpt lat="45.95033" lon="6.72991">
        <ele>1300</ele>
        <time>2022-04-14T10:13:57Z</time>
      </trkpt>
      <trkpt lat="45.9503" lon="6.72997">
        <ele>1300</ele>
        <time>2022-04-14T10:14:00Z</time>
      </trkpt>
      <trkpt lat="45.9503" lon="6.7301">
        <ele>1298</ele>
        <time>2022-04-14T10:14:04Z</time>
      </trkpt>
      <trkpt lat="45.9503" lon="6.73017">
        <ele>1299</ele>
        <time>2022-04-14T10:14:07Z</time>
      </trkpt>
      <trkpt lat="45.9503" lon="6.73025">
        <ele>1299</ele>
        <time>2022-04-14T10:14:10Z</time>
      </trkpt>
      <trkpt lat="45.95032" lon="6.73033">
        <ele>1299</ele>
        <time>2022-04-14T10:14:13Z</time>
      </trkpt>
      <trkpt lat="45.95027" lon="6.73047">
        <ele>1299</ele>
        <time>2022-04-14T10:14:18Z</time>
      </trkpt>
      <trkpt lat="45.9502" lon="6.73069">
        <ele>1299</ele>
        <time>2022-04-14T10:14:27Z</time>
      </trkpt>
      <trkpt lat="45.95017" lon="6.73075">
        <ele>1300</ele>
        <time>2022-04-14T10:14:30Z</time>
      </trkpt>
      <trkpt lat="45.95015" lon="6.73083">
        <ele>1301</ele>
        <time>2022-04-14T10:14:33Z</time>
      </trkpt>
      <trkpt lat="45.95015" lon="6.73149">
        <ele>1301</ele>
        <time>2022-04-14T10:14:58Z</time>
      </trkpt>
      <trkpt lat="45.95012" lon="6.73167">
        <ele>1301</ele>
        <time>2022-04-14T10:15:04Z</time>
      </trkpt>
      <trkpt lat="45.95011" lon="6.73183">
        <ele>1300</ele>
        <time>2022-04-14T10:15:10Z</time>
      </trkpt>
      <trkpt lat="45.9501" lon="6.7319">
        <ele>1301</ele>
        <time>2022-04-14T10:15:15Z</time>
      </trkpt>
      <trkpt lat="45.95011" lon="6.73223">
        <ele>1300</ele>
        <time>2022-04-14T10:15:27Z</time>
      </trkpt>
      <trkpt lat="45.9501" lon="6.73231">
        <ele>1301</ele>
        <time>2022-04-14T10:15:31Z</time>
      </trkpt>
      <trkpt lat="45.95007" lon="6.73237">
        <ele>1301</ele>
        <time>2022-04-14T10:15:35Z</time>
      </trkpt>
      <trkpt lat="45.95002" lon="6.73243">
        <ele>1301</ele>
        <time>2022-04-14T10:15:38Z</time>
      </trkpt>
      <trkpt lat="45.94999" lon="6.73247">
        <ele>1301</ele>
        <time>2022-04-14T10:15:40Z</time>
      </trkpt>
      <trkpt lat="45.94995" lon="6.73253">
        <ele>1301</ele>
        <time>2022-04-14T10:15:43Z</time>
      </trkpt>
      <trkpt lat="45.94991" lon="6.73256">
        <ele>1301</ele>
        <time>2022-04-14T10:15:46Z</time>
      </trkpt>
      <trkpt lat="45.94988" lon="6.7326">
        <ele>1301</ele>
        <time>2022-04-14T10:15:51Z</time>
      </trkpt>
      <trkpt lat="45.9498" lon="6.73273">
        <ele>1301</ele>
        <time>2022-04-14T10:15:56Z</time>
      </trkpt>
      <trkpt lat="45.94978" lon="6.73278">
        <ele>1301</ele>
        <time>2022-04-14T10:15:58Z</time>
      </trkpt>
      <trkpt lat="45.94975" lon="6.73291">
        <ele>1300</ele>
        <time>2022-04-14T10:16:02Z</time>
      </trkpt>
      <trkpt lat="45.94972" lon="6.73296">
        <ele>1299</ele>
        <time>2022-04-14T10:16:04Z</time>
      </trkpt>
      <trkpt lat="45.94969" lon="6.73301">
        <ele>1299</ele>
        <time>2022-04-14T10:16:06Z</time>
      </trkpt>
      <trkpt lat="45.94965" lon="6.73313">
        <ele>1299</ele>
        <time>2022-04-14T10:16:10Z</time>
      </trkpt>
      <trkpt lat="45.94965" lon="6.73322">
        <ele>1299</ele>
        <time>2022-04-14T10:16:13Z</time>
      </trkpt>
      <trkpt lat="45.94964" lon="6.73328">
        <ele>1299</ele>
        <time>2022-04-14T10:16:15Z</time>
      </trkpt>
      <trkpt lat="45.94965" lon="6.73344">
        <ele>1297</ele>
        <time>2022-04-14T10:16:20Z</time>
      </trkpt>
      <trkpt lat="45.94955" lon="6.73361">
        <ele>1296</ele>
        <time>2022-04-14T10:16:26Z</time>
      </trkpt>
      <trkpt lat="45.94948" lon="6.7338">
        <ele>1295</ele>
        <time>2022-04-14T10:16:33Z</time>
      </trkpt>
      <trkpt lat="45.94946" lon="6.73386">
        <ele>1295</ele>
        <time>2022-04-14T10:16:35Z</time>
      </trkpt>
      <trkpt lat="45.94936" lon="6.73393">
        <ele>1295</ele>
        <time>2022-04-14T10:16:40Z</time>
      </trkpt>
      <trkpt lat="45.94922" lon="6.73399">
        <ele>1294</ele>
        <time>2022-04-14T10:16:47Z</time>
      </trkpt>
      <trkpt lat="45.94924" lon="6.73401">
        <ele>1295</ele>
        <time>2022-04-14T10:16:54Z</time>
      </trkpt>
      <trkpt lat="45.94929" lon="6.734">
        <ele>1294</ele>
        <time>2022-04-14T10:16:57Z</time>
      </trkpt>
      <trkpt lat="45.94935" lon="6.73398">
        <ele>1294</ele>
        <time>2022-04-14T10:17:00Z</time>
      </trkpt>
      <trkpt lat="45.94941" lon="6.73394">
        <ele>1294</ele>
        <time>2022-04-14T10:17:03Z</time>
      </trkpt>
      <trkpt lat="45.94944" lon="6.7339">
        <ele>1295</ele>
        <time>2022-04-14T10:17:08Z</time>
      </trkpt>
      <trkpt lat="45.94947" lon="6.73383">
        <ele>1296</ele>
        <time>2022-04-14T10:17:12Z</time>
      </trkpt>
      <trkpt lat="45.94952" lon="6.7337">
        <ele>1295</ele>
        <time>2022-04-14T10:17:18Z</time>
      </trkpt>
      <trkpt lat="45.94954" lon="6.73364">
        <ele>1295</ele>
        <time>2022-04-14T10:17:21Z</time>
      </trkpt>
      <trkpt lat="45.94956" lon="6.73358">
        <ele>1295</ele>
        <time>2022-04-14T10:17:25Z</time>
      </trkpt>
      <trkpt lat="45.9496" lon="6.73353">
        <ele>1297</ele>
        <time>2022-04-14T10:17:30Z</time>
      </trkpt>
      <trkpt lat="45.94962" lon="6.73347">
        <ele>1297</ele>
        <time>2022-04-14T10:17:32Z</time>
      </trkpt>
      <trkpt lat="45.94962" lon="6.73341">
        <ele>1297</ele>
        <time>2022-04-14T10:17:34Z</time>
      </trkpt>
      <trkpt lat="45.94963" lon="6.73332">
        <ele>1297</ele>
        <time>2022-04-14T10:17:37Z</time>
      </trkpt>
      <trkpt lat="45.94965" lon="6.73309">
        <ele>1299</ele>
        <time>2022-04-14T10:17:46Z</time>
      </trkpt>
      <trkpt lat="45.94968" lon="6.73302">
        <ele>1299</ele>
        <time>2022-04-14T10:17:49Z</time>
      </trkpt>
      <trkpt lat="45.94971" lon="6.73297">
        <ele>1299</ele>
        <time>2022-04-14T10:17:51Z</time>
      </trkpt>
      <trkpt lat="45.94973" lon="6.73292">
        <ele>1299</ele>
        <time>2022-04-14T10:17:53Z</time>
      </trkpt>
      <trkpt lat="45.94975" lon="6.73285">
        <ele>1299</ele>
        <time>2022-04-14T10:17:57Z</time>
      </trkpt>
      <trkpt lat="45.94977" lon="6.73278">
        <ele>1301</ele>
        <time>2022-04-14T10:18:02Z</time>
      </trkpt>
      <trkpt lat="45.9498" lon="6.73273">
        <ele>1301</ele>
        <time>2022-04-14T10:18:07Z</time>
      </trkpt>
      <trkpt lat="45.94986" lon="6.73264">
        <ele>1300</ele>
        <time>2022-04-14T10:18:14Z</time>
      </trkpt>
      <trkpt lat="45.94991" lon="6.7325">
        <ele>1300</ele>
        <time>2022-04-14T10:19:04Z</time>
      </trkpt>
      <trkpt lat="45.94996" lon="6.73249">
        <ele>1301</ele>
        <time>2022-04-14T10:19:13Z</time>
      </trkpt>
      <trkpt lat="45.95003" lon="6.73253">
        <ele>1303</ele>
        <time>2022-04-14T10:19:22Z</time>
      </trkpt>
      <trkpt lat="45.95008" lon="6.73259">
        <ele>1304</ele>
        <time>2022-04-14T10:19:30Z</time>
      </trkpt>
      <trkpt lat="45.95015" lon="6.7327">
        <ele>1305</ele>
        <time>2022-04-14T10:19:41Z</time>
      </trkpt>
      <trkpt lat="45.9502" lon="6.73276">
        <ele>1307</ele>
        <time>2022-04-14T10:19:48Z</time>
      </trkpt>
      <trkpt lat="45.95021" lon="6.73285">
        <ele>1307</ele>
        <time>2022-04-14T10:19:52Z</time>
      </trkpt>
      <trkpt lat="45.95033" lon="6.73312">
        <ele>1312</ele>
        <time>2022-04-14T10:20:16Z</time>
      </trkpt>
      <trkpt lat="45.95034" lon="6.7332">
        <ele>1313</ele>
        <time>2022-04-14T10:20:21Z</time>
      </trkpt>
      <trkpt lat="45.95035" lon="6.7333">
        <ele>1314</ele>
        <time>2022-04-14T10:20:28Z</time>
      </trkpt>
      <trkpt lat="45.95035" lon="6.73337">
        <ele>1314</ele>
        <time>2022-04-14T10:20:31Z</time>
      </trkpt>
      <trkpt lat="45.95033" lon="6.73342">
        <ele>1315</ele>
        <time>2022-04-14T10:20:34Z</time>
      </trkpt>
      <trkpt lat="45.95029" lon="6.73348">
        <ele>1315</ele>
        <time>2022-04-14T10:20:38Z</time>
      </trkpt>
      <trkpt lat="45.95027" lon="6.73354">
        <ele>1316</ele>
        <time>2022-04-14T10:20:42Z</time>
      </trkpt>
      <trkpt lat="45.95026" lon="6.73361">
        <ele>1317</ele>
        <time>2022-04-14T10:20:46Z</time>
      </trkpt>
      <trkpt lat="45.95024" lon="6.73369">
        <ele>1318</ele>
        <time>2022-04-14T10:20:51Z</time>
      </trkpt>
      <trkpt lat="45.95016" lon="6.73376">
        <ele>1319</ele>
        <time>2022-04-14T10:20:57Z</time>
      </trkpt>
      <trkpt lat="45.95013" lon="6.73381">
        <ele>1319</ele>
        <time>2022-04-14T10:21:01Z</time>
      </trkpt>
      <trkpt lat="45.95014" lon="6.7341">
        <ele>1323</ele>
        <time>2022-04-14T10:21:23Z</time>
      </trkpt>
      <trkpt lat="45.95026" lon="6.73441">
        <ele>1326</ele>
        <time>2022-04-14T10:21:44Z</time>
      </trkpt>
      <trkpt lat="45.95027" lon="6.73449">
        <ele>1326</ele>
        <time>2022-04-14T10:21:49Z</time>
      </trkpt>
      <trkpt lat="45.9503" lon="6.73457">
        <ele>1327</ele>
        <time>2022-04-14T10:21:54Z</time>
      </trkpt>
      <trkpt lat="45.95033" lon="6.73475">
        <ele>1326</ele>
        <time>2022-04-14T10:22:04Z</time>
      </trkpt>
      <trkpt lat="45.95032" lon="6.73487">
        <ele>1327</ele>
        <time>2022-04-14T10:22:10Z</time>
      </trkpt>
      <trkpt lat="45.95027" lon="6.73496">
        <ele>1326</ele>
        <time>2022-04-14T10:22:14Z</time>
      </trkpt>
      <trkpt lat="45.95016" lon="6.73509">
        <ele>1325</ele>
        <time>2022-04-14T10:22:20Z</time>
      </trkpt>
      <trkpt lat="45.95007" lon="6.73523">
        <ele>1324</ele>
        <time>2022-04-14T10:22:26Z</time>
      </trkpt>
      <trkpt lat="45.95" lon="6.73543">
        <ele>1324</ele>
        <time>2022-04-14T10:22:33Z</time>
      </trkpt>
      <trkpt lat="45.94997" lon="6.7355">
        <ele>1325</ele>
        <time>2022-04-14T10:22:36Z</time>
      </trkpt>
      <trkpt lat="45.94995" lon="6.73559">
        <ele>1325</ele>
        <time>2022-04-14T10:22:38Z</time>
      </trkpt>
      <trkpt lat="45.94992" lon="6.73566">
        <ele>1325</ele>
        <time>2022-04-14T10:22:41Z</time>
      </trkpt>
      <trkpt lat="45.94993" lon="6.73575">
        <ele>1326</ele>
        <time>2022-04-14T10:22:47Z</time>
      </trkpt>
      <trkpt lat="45.94999" lon="6.73579">
        <ele>1327</ele>
        <time>2022-04-14T10:22:55Z</time>
      </trkpt>
      <trkpt lat="45.95001" lon="6.73587">
        <ele>1328</ele>
        <time>2022-04-14T10:23:00Z</time>
      </trkpt>
      <trkpt lat="45.95" lon="6.73608">
        <ele>1329</ele>
        <time>2022-04-14T10:23:13Z</time>
      </trkpt>
      <trkpt lat="45.94993" lon="6.73633">
        <ele>1331</ele>
        <time>2022-04-14T10:23:26Z</time>
      </trkpt>
      <trkpt lat="45.94993" lon="6.73644">
        <ele>1332</ele>
        <time>2022-04-14T10:23:35Z</time>
      </trkpt>
      <trkpt lat="45.94997" lon="6.73656">
        <ele>1334</ele>
        <time>2022-04-14T10:23:45Z</time>
      </trkpt>
      <trkpt lat="45.94997" lon="6.73663">
        <ele>1334</ele>
        <time>2022-04-14T10:23:50Z</time>
      </trkpt>
      <trkpt lat="45.94994" lon="6.73703">
        <ele>1338</ele>
        <time>2022-04-14T10:24:14Z</time>
      </trkpt>
      <trkpt lat="45.94992" lon="6.73711">
        <ele>1339</ele>
        <time>2022-04-14T10:24:21Z</time>
      </trkpt>
      <trkpt lat="45.94991" lon="6.73739">
        <ele>1343</ele>
        <time>2022-04-14T10:24:48Z</time>
      </trkpt>
      <trkpt lat="45.94991" lon="6.73754">
        <ele>1344</ele>
        <time>2022-04-14T10:24:58Z</time>
      </trkpt>
      <trkpt lat="45.94991" lon="6.73764">
        <ele>1345</ele>
        <time>2022-04-14T10:25:05Z</time>
      </trkpt>
      <trkpt lat="45.94988" lon="6.73772">
        <ele>1346</ele>
        <time>2022-04-14T10:25:12Z</time>
      </trkpt>
      <trkpt lat="45.94976" lon="6.73784">
        <ele>1346</ele>
        <time>2022-04-14T10:25:25Z</time>
      </trkpt>
      <trkpt lat="45.94972" lon="6.738">
        <ele>1347</ele>
        <time>2022-04-14T10:25:36Z</time>
      </trkpt>
      <trkpt lat="45.94972" lon="6.73807">
        <ele>1347</ele>
        <time>2022-04-14T10:25:40Z</time>
      </trkpt>
      <trkpt lat="45.94971" lon="6.73814">
        <ele>1348</ele>
        <time>2022-04-14T10:25:43Z</time>
      </trkpt>
      <trkpt lat="45.94971" lon="6.73821">
        <ele>1348</ele>
        <time>2022-04-14T10:25:46Z</time>
      </trkpt>
      <trkpt lat="45.94968" lon="6.73835">
        <ele>1351</ele>
        <time>2022-04-14T10:25:57Z</time>
      </trkpt>
      <trkpt lat="45.94964" lon="6.73841">
        <ele>1351</ele>
        <time>2022-04-14T10:26:02Z</time>
      </trkpt>
      <trkpt lat="45.94962" lon="6.73863">
        <ele>1352</ele>
        <time>2022-04-14T10:26:13Z</time>
      </trkpt>
      <trkpt lat="45.94974" lon="6.73917">
        <ele>1355</ele>
        <time>2022-04-14T10:26:41Z</time>
      </trkpt>
      <trkpt lat="45.94974" lon="6.73926">
        <ele>1355</ele>
        <time>2022-04-14T10:26:46Z</time>
      </trkpt>
      <trkpt lat="45.94973" lon="6.73932">
        <ele>1356</ele>
        <time>2022-04-14T10:26:48Z</time>
      </trkpt>
      <trkpt lat="45.94976" lon="6.73939">
        <ele>1356</ele>
        <time>2022-04-14T10:26:53Z</time>
      </trkpt>
      <trkpt lat="45.9498" lon="6.73945">
        <ele>1356</ele>
        <time>2022-04-14T10:26:57Z</time>
      </trkpt>
      <trkpt lat="45.94989" lon="6.73952">
        <ele>1355</ele>
        <time>2022-04-14T10:27:03Z</time>
      </trkpt>
      <trkpt lat="45.94993" lon="6.73956">
        <ele>1355</ele>
        <time>2022-04-14T10:27:06Z</time>
      </trkpt>
      <trkpt lat="45.95006" lon="6.73972">
        <ele>1358</ele>
        <time>2022-04-14T10:27:16Z</time>
      </trkpt>
      <trkpt lat="45.95012" lon="6.73983">
        <ele>1357</ele>
        <time>2022-04-14T10:27:21Z</time>
      </trkpt>
      <trkpt lat="45.95015" lon="6.73989">
        <ele>1358</ele>
        <time>2022-04-14T10:27:24Z</time>
      </trkpt>
      <trkpt lat="45.95022" lon="6.74001">
        <ele>1358</ele>
        <time>2022-04-14T10:27:30Z</time>
      </trkpt>
      <trkpt lat="45.95024" lon="6.74009">
        <ele>1357</ele>
        <time>2022-04-14T10:27:33Z</time>
      </trkpt>
      <trkpt lat="45.95027" lon="6.74016">
        <ele>1357</ele>
        <time>2022-04-14T10:27:36Z</time>
      </trkpt>
      <trkpt lat="45.95038" lon="6.74043">
        <ele>1357</ele>
        <time>2022-04-14T10:27:45Z</time>
      </trkpt>
      <trkpt lat="45.95056" lon="6.74106">
        <ele>1361</ele>
        <time>2022-04-14T10:28:09Z</time>
      </trkpt>
      <trkpt lat="45.95064" lon="6.7412">
        <ele>1363</ele>
        <time>2022-04-14T10:28:16Z</time>
      </trkpt>
      <trkpt lat="45.95066" lon="6.74127">
        <ele>1363</ele>
        <time>2022-04-14T10:28:19Z</time>
      </trkpt>
      <trkpt lat="45.95067" lon="6.74135">
        <ele>1363</ele>
        <time>2022-04-14T10:28:23Z</time>
      </trkpt>
      <trkpt lat="45.95069" lon="6.74144">
        <ele>1364</ele>
        <time>2022-04-14T10:28:27Z</time>
      </trkpt>
      <trkpt lat="45.9507" lon="6.74153">
        <ele>1364</ele>
        <time>2022-04-14T10:28:31Z</time>
      </trkpt>
      <trkpt lat="45.95074" lon="6.74159">
        <ele>1364</ele>
        <time>2022-04-14T10:28:35Z</time>
      </trkpt>
      <trkpt lat="45.95093" lon="6.74196">
        <ele>1371</ele>
        <time>2022-04-14T10:29:13Z</time>
      </trkpt>
      <trkpt lat="45.95092" lon="6.74211">
        <ele>1372</ele>
        <time>2022-04-14T10:29:22Z</time>
      </trkpt>
      <trkpt lat="45.95095" lon="6.74216">
        <ele>1372</ele>
        <time>2022-04-14T10:29:27Z</time>
      </trkpt>
      <trkpt lat="45.95098" lon="6.74222">
        <ele>1374</ele>
        <time>2022-04-14T10:29:32Z</time>
      </trkpt>
      <trkpt lat="45.95102" lon="6.74226">
        <ele>1375</ele>
        <time>2022-04-14T10:29:37Z</time>
      </trkpt>
      <trkpt lat="45.95108" lon="6.74224">
        <ele>1375</ele>
        <time>2022-04-14T10:29:45Z</time>
      </trkpt>
      <trkpt lat="45.95112" lon="6.74224">
        <ele>1376</ele>
        <time>2022-04-14T10:29:49Z</time>
      </trkpt>
      <trkpt lat="45.95117" lon="6.74223">
        <ele>1377</ele>
        <time>2022-04-14T10:29:54Z</time>
      </trkpt>
      <trkpt lat="45.95123" lon="6.74225">
        <ele>1378</ele>
        <time>2022-04-14T10:30:00Z</time>
      </trkpt>
      <trkpt lat="45.95128" lon="6.74224">
        <ele>1379</ele>
        <time>2022-04-14T10:30:04Z</time>
      </trkpt>
      <trkpt lat="45.95132" lon="6.74224">
        <ele>1379</ele>
        <time>2022-04-14T10:30:08Z</time>
      </trkpt>
      <trkpt lat="45.9514" lon="6.74234">
        <ele>1382</ele>
        <time>2022-04-14T10:30:18Z</time>
      </trkpt>
      <trkpt lat="45.95144" lon="6.74239">
        <ele>1383</ele>
        <time>2022-04-14T10:30:24Z</time>
      </trkpt>
      <trkpt lat="45.95141" lon="6.74246">
        <ele>1385</ele>
        <time>2022-04-14T10:30:32Z</time>
      </trkpt>
      <trkpt lat="45.95139" lon="6.74252">
        <ele>1385</ele>
        <time>2022-04-14T10:30:38Z</time>
      </trkpt>
      <trkpt lat="45.95129" lon="6.74266">
        <ele>1388</ele>
        <time>2022-04-14T10:30:50Z</time>
      </trkpt>
      <trkpt lat="45.95126" lon="6.74271">
        <ele>1389</ele>
        <time>2022-04-14T10:30:54Z</time>
      </trkpt>
      <trkpt lat="45.95122" lon="6.74275">
        <ele>1389</ele>
        <time>2022-04-14T10:30:58Z</time>
      </trkpt>
      <trkpt lat="45.95119" lon="6.74281">
        <ele>1390</ele>
        <time>2022-04-14T10:31:02Z</time>
      </trkpt>
      <trkpt lat="45.95117" lon="6.74286">
        <ele>1390</ele>
        <time>2022-04-14T10:31:06Z</time>
      </trkpt>
      <trkpt lat="45.95112" lon="6.74298">
        <ele>1389</ele>
        <time>2022-04-14T10:31:15Z</time>
      </trkpt>
      <trkpt lat="45.95104" lon="6.74306">
        <ele>1389</ele>
        <time>2022-04-14T10:31:21Z</time>
      </trkpt>
      <trkpt lat="45.951" lon="6.74309">
        <ele>1390</ele>
        <time>2022-04-14T10:31:24Z</time>
      </trkpt>
      <trkpt lat="45.95093" lon="6.74318">
        <ele>1390</ele>
        <time>2022-04-14T10:31:31Z</time>
      </trkpt>
      <trkpt lat="45.95091" lon="6.74324">
        <ele>1391</ele>
        <time>2022-04-14T10:31:35Z</time>
      </trkpt>
      <trkpt lat="45.95088" lon="6.7433">
        <ele>1391</ele>
        <time>2022-04-14T10:31:40Z</time>
      </trkpt>
      <trkpt lat="45.95083" lon="6.74334">
        <ele>1391</ele>
        <time>2022-04-14T10:31:44Z</time>
      </trkpt>
      <trkpt lat="45.95079" lon="6.74339">
        <ele>1391</ele>
        <time>2022-04-14T10:31:50Z</time>
      </trkpt>
      <trkpt lat="45.95077" lon="6.74345">
        <ele>1390</ele>
        <time>2022-04-14T10:31:54Z</time>
      </trkpt>
      <trkpt lat="45.95073" lon="6.74351">
        <ele>1389</ele>
        <time>2022-04-14T10:32:01Z</time>
      </trkpt>
      <trkpt lat="45.95071" lon="6.74357">
        <ele>1389</ele>
        <time>2022-04-14T10:32:05Z</time>
      </trkpt>
      <trkpt lat="45.95073" lon="6.74365">
        <ele>1390</ele>
        <time>2022-04-14T10:32:10Z</time>
      </trkpt>
      <trkpt lat="45.95074" lon="6.74371">
        <ele>1390</ele>
        <time>2022-04-14T10:32:18Z</time>
      </trkpt>
      <trkpt lat="45.95073" lon="6.74378">
        <ele>1390</ele>
        <time>2022-04-14T10:32:22Z</time>
      </trkpt>
      <trkpt lat="45.95077" lon="6.74393">
        <ele>1394</ele>
        <time>2022-04-14T10:32:36Z</time>
      </trkpt>
      <trkpt lat="45.95076" lon="6.74405">
        <ele>1396</ele>
        <time>2022-04-14T10:32:45Z</time>
      </trkpt>
      <trkpt lat="45.95082" lon="6.74406">
        <ele>1398</ele>
        <time>2022-04-14T10:32:53Z</time>
      </trkpt>
      <trkpt lat="45.95091" lon="6.74424">
        <ele>1401</ele>
        <time>2022-04-14T10:33:09Z</time>
      </trkpt>
      <trkpt lat="45.95098" lon="6.74428">
        <ele>1403</ele>
        <time>2022-04-14T10:33:18Z</time>
      </trkpt>
      <trkpt lat="45.95109" lon="6.74449">
        <ele>1406</ele>
        <time>2022-04-14T10:33:35Z</time>
      </trkpt>
      <trkpt lat="45.95111" lon="6.74456">
        <ele>1406</ele>
        <time>2022-04-14T10:33:40Z</time>
      </trkpt>
      <trkpt lat="45.95117" lon="6.74468">
        <ele>1408</ele>
        <time>2022-04-14T10:33:53Z</time>
      </trkpt>
      <trkpt lat="45.95123" lon="6.74471">
        <ele>1410</ele>
        <time>2022-04-14T10:34:03Z</time>
      </trkpt>
      <trkpt lat="45.95129" lon="6.74469">
        <ele>1413</ele>
        <time>2022-04-14T10:34:14Z</time>
      </trkpt>
      <trkpt lat="45.95137" lon="6.74473">
        <ele>1414</ele>
        <time>2022-04-14T10:34:23Z</time>
      </trkpt>
      <trkpt lat="45.95146" lon="6.74482">
        <ele>1415</ele>
        <time>2022-04-14T10:34:33Z</time>
      </trkpt>
      <trkpt lat="45.95148" lon="6.74489">
        <ele>1416</ele>
        <time>2022-04-14T10:34:38Z</time>
      </trkpt>
      <trkpt lat="45.95148" lon="6.74496">
        <ele>1417</ele>
        <time>2022-04-14T10:34:43Z</time>
      </trkpt>
      <trkpt lat="45.95152" lon="6.74505">
        <ele>1418</ele>
        <time>2022-04-14T10:34:51Z</time>
      </trkpt>
      <trkpt lat="45.95158" lon="6.74511">
        <ele>1420</ele>
        <time>2022-04-14T10:35:00Z</time>
      </trkpt>
      <trkpt lat="45.95164" lon="6.74522">
        <ele>1421</ele>
        <time>2022-04-14T10:35:11Z</time>
      </trkpt>
      <trkpt lat="45.95175" lon="6.74538">
        <ele>1425</ele>
        <time>2022-04-14T10:35:27Z</time>
      </trkpt>
      <trkpt lat="45.95176" lon="6.74546">
        <ele>1426</ele>
        <time>2022-04-14T10:35:34Z</time>
      </trkpt>
      <trkpt lat="45.95176" lon="6.74557">
        <ele>1428</ele>
        <time>2022-04-14T10:35:45Z</time>
      </trkpt>
      <trkpt lat="45.95185" lon="6.74582">
        <ele>1432</ele>
        <time>2022-04-14T10:36:15Z</time>
      </trkpt>
      <trkpt lat="45.95195" lon="6.74593">
        <ele>1435</ele>
        <time>2022-04-14T10:36:33Z</time>
      </trkpt>
      <trkpt lat="45.95197" lon="6.74601">
        <ele>1436</ele>
        <time>2022-04-14T10:36:43Z</time>
      </trkpt>
      <trkpt lat="45.95203" lon="6.7461">
        <ele>1439</ele>
        <time>2022-04-14T10:36:59Z</time>
      </trkpt>
      <trkpt lat="45.95207" lon="6.74612">
        <ele>1439</ele>
        <time>2022-04-14T10:37:05Z</time>
      </trkpt>
      <trkpt lat="45.95216" lon="6.74607">
        <ele>1441</ele>
        <time>2022-04-14T10:37:17Z</time>
      </trkpt>
      <trkpt lat="45.9522" lon="6.74602">
        <ele>1442</ele>
        <time>2022-04-14T10:37:22Z</time>
      </trkpt>
      <trkpt lat="45.95222" lon="6.74596">
        <ele>1442</ele>
        <time>2022-04-14T10:37:26Z</time>
      </trkpt>
      <trkpt lat="45.95226" lon="6.74592">
        <ele>1443</ele>
        <time>2022-04-14T10:37:31Z</time>
      </trkpt>
      <trkpt lat="45.95236" lon="6.74587">
        <ele>1446</ele>
        <time>2022-04-14T10:37:44Z</time>
      </trkpt>
      <trkpt lat="45.95249" lon="6.74574">
        <ele>1449</ele>
        <time>2022-04-14T10:37:58Z</time>
      </trkpt>
      <trkpt lat="45.95254" lon="6.74571">
        <ele>1450</ele>
        <time>2022-04-14T10:38:03Z</time>
      </trkpt>
      <trkpt lat="45.95258" lon="6.74567">
        <ele>1451</ele>
        <time>2022-04-14T10:38:10Z</time>
      </trkpt>
      <trkpt lat="45.95266" lon="6.74563">
        <ele>1453</ele>
        <time>2022-04-14T10:38:20Z</time>
      </trkpt>
      <trkpt lat="45.95271" lon="6.74564">
        <ele>1454</ele>
        <time>2022-04-14T10:38:25Z</time>
      </trkpt>
      <trkpt lat="45.95277" lon="6.74562">
        <ele>1454</ele>
        <time>2022-04-14T10:38:31Z</time>
      </trkpt>
      <trkpt lat="45.95296" lon="6.7455">
        <ele>1456</ele>
        <time>2022-04-14T10:38:47Z</time>
      </trkpt>
      <trkpt lat="45.95318" lon="6.74543">
        <ele>1456</ele>
        <time>2022-04-14T10:39:02Z</time>
      </trkpt>
      <trkpt lat="45.95328" lon="6.74542">
        <ele>1457</ele>
        <time>2022-04-14T10:39:10Z</time>
      </trkpt>
      <trkpt lat="45.95336" lon="6.74543">
        <ele>1457</ele>
        <time>2022-04-14T10:39:18Z</time>
      </trkpt>
      <trkpt lat="45.95341" lon="6.74543">
        <ele>1458</ele>
        <time>2022-04-14T10:39:22Z</time>
      </trkpt>
      <trkpt lat="45.95345" lon="6.74541">
        <ele>1458</ele>
        <time>2022-04-14T10:39:26Z</time>
      </trkpt>
      <trkpt lat="45.95349" lon="6.74537">
        <ele>1459</ele>
        <time>2022-04-14T10:39:33Z</time>
      </trkpt>
      <trkpt lat="45.95354" lon="6.74537">
        <ele>1460</ele>
        <time>2022-04-14T10:39:38Z</time>
      </trkpt>
      <trkpt lat="45.95363" lon="6.74541">
        <ele>1461</ele>
        <time>2022-04-14T10:39:49Z</time>
      </trkpt>
      <trkpt lat="45.95369" lon="6.74542">
        <ele>1463</ele>
        <time>2022-04-14T10:39:56Z</time>
      </trkpt>
      <trkpt lat="45.95373" lon="6.7454">
        <ele>1464</ele>
        <time>2022-04-14T10:40:01Z</time>
      </trkpt>
      <trkpt lat="45.9538" lon="6.74541">
        <ele>1466</ele>
        <time>2022-04-14T10:40:10Z</time>
      </trkpt>
      <trkpt lat="45.95385" lon="6.7454">
        <ele>1467</ele>
        <time>2022-04-14T10:40:17Z</time>
      </trkpt>
      <trkpt lat="45.9539" lon="6.74536">
        <ele>1468</ele>
        <time>2022-04-14T10:40:22Z</time>
      </trkpt>
      <trkpt lat="45.95396" lon="6.74533">
        <ele>1469</ele>
        <time>2022-04-14T10:40:29Z</time>
      </trkpt>
      <trkpt lat="45.95399" lon="6.74528">
        <ele>1470</ele>
        <time>2022-04-14T10:40:33Z</time>
      </trkpt>
      <trkpt lat="45.95403" lon="6.74525">
        <ele>1471</ele>
        <time>2022-04-14T10:40:38Z</time>
      </trkpt>
      <trkpt lat="45.95428" lon="6.74523">
        <ele>1475</ele>
        <time>2022-04-14T10:41:12Z</time>
      </trkpt>
      <trkpt lat="45.95443" lon="6.74526">
        <ele>1479</ele>
        <time>2022-04-14T10:41:35Z</time>
      </trkpt>
      <trkpt lat="45.9545" lon="6.74524">
        <ele>1481</ele>
        <time>2022-04-14T10:41:46Z</time>
      </trkpt>
      <trkpt lat="45.95456" lon="6.7452">
        <ele>1482</ele>
        <time>2022-04-14T10:41:56Z</time>
      </trkpt>
      <trkpt lat="45.95467" lon="6.74515">
        <ele>1485</ele>
        <time>2022-04-14T10:42:12Z</time>
      </trkpt>
      <trkpt lat="45.95476" lon="6.74509">
        <ele>1488</ele>
        <time>2022-04-14T10:42:29Z</time>
      </trkpt>
      <trkpt lat="45.95483" lon="6.74508">
        <ele>1490</ele>
        <time>2022-04-14T10:42:40Z</time>
      </trkpt>
      <trkpt lat="45.95493" lon="6.74498">
        <ele>1494</ele>
        <time>2022-04-14T10:43:00Z</time>
      </trkpt>
      <trkpt lat="45.95501" lon="6.74497">
        <ele>1495</ele>
        <time>2022-04-14T10:43:10Z</time>
      </trkpt>
      <trkpt lat="45.95508" lon="6.74495">
        <ele>1497</ele>
        <time>2022-04-14T10:43:21Z</time>
      </trkpt>
      <trkpt lat="45.95515" lon="6.74497">
        <ele>1499</ele>
        <time>2022-04-14T10:43:32Z</time>
      </trkpt>
      <trkpt lat="45.9552" lon="6.74498">
        <ele>1500</ele>
        <time>2022-04-14T10:43:37Z</time>
      </trkpt>
      <trkpt lat="45.95525" lon="6.74503">
        <ele>1502</ele>
        <time>2022-04-14T10:43:45Z</time>
      </trkpt>
      <trkpt lat="45.95529" lon="6.74512">
        <ele>1504</ele>
        <time>2022-04-14T10:43:55Z</time>
      </trkpt>
      <trkpt lat="45.95541" lon="6.74524">
        <ele>1508</ele>
        <time>2022-04-14T10:44:15Z</time>
      </trkpt>
      <trkpt lat="45.95545" lon="6.74533">
        <ele>1510</ele>
        <time>2022-04-14T10:44:25Z</time>
      </trkpt>
      <trkpt lat="45.95551" lon="6.74541">
        <ele>1513</ele>
        <time>2022-04-14T10:44:45Z</time>
      </trkpt>
      <trkpt lat="45.95552" lon="6.74549">
        <ele>1515</ele>
        <time>2022-04-14T10:44:55Z</time>
      </trkpt>
      <trkpt lat="45.95556" lon="6.74553">
        <ele>1517</ele>
        <time>2022-04-14T10:45:05Z</time>
      </trkpt>
      <trkpt lat="45.95558" lon="6.74563">
        <ele>1519</ele>
        <time>2022-04-14T10:45:15Z</time>
      </trkpt>
      <trkpt lat="45.95556" lon="6.74573">
        <ele>1522</ele>
        <time>2022-04-14T10:45:25Z</time>
      </trkpt>
      <trkpt lat="45.95557" lon="6.74585">
        <ele>1525</ele>
        <time>2022-04-14T10:45:41Z</time>
      </trkpt>
      <trkpt lat="45.95547" lon="6.74597">
        <ele>1528</ele>
        <time>2022-04-14T10:45:56Z</time>
      </trkpt>
      <trkpt lat="45.95541" lon="6.74619">
        <ele>1532</ele>
        <time>2022-04-14T10:46:22Z</time>
      </trkpt>
      <trkpt lat="45.95536" lon="6.74613">
        <ele>1532</ele>
        <time>2022-04-14T10:46:54Z</time>
      </trkpt>
      <trkpt lat="45.95532" lon="6.74608">
        <ele>1531</ele>
        <time>2022-04-14T10:46:58Z</time>
      </trkpt>
      <trkpt lat="45.95534" lon="6.74603">
        <ele>1530</ele>
        <time>2022-04-14T10:47:10Z</time>
      </trkpt>
      <trkpt lat="45.95537" lon="6.74598">
        <ele>1530</ele>
        <time>2022-04-14T10:47:17Z</time>
      </trkpt>
      <trkpt lat="45.95544" lon="6.74594">
        <ele>1530</ele>
        <time>2022-04-14T10:47:32Z</time>
      </trkpt>
      <trkpt lat="45.95551" lon="6.7459">
        <ele>1530</ele>
        <time>2022-04-14T10:47:45Z</time>
      </trkpt>
      <trkpt lat="45.95558" lon="6.74574">
        <ele>1526</ele>
        <time>2022-04-14T10:47:56Z</time>
      </trkpt>
      <trkpt lat="45.95563" lon="6.74576">
        <ele>1525</ele>
        <time>2022-04-14T10:48:28Z</time>
      </trkpt>
      <trkpt lat="45.95569" lon="6.74573">
        <ele>1525</ele>
        <time>2022-04-14T10:50:05Z</time>
      </trkpt>
      <trkpt lat="45.9558" lon="6.74578">
        <ele>1525</ele>
        <time>2022-04-14T10:50:37Z</time>
      </trkpt>
      <trkpt lat="45.95578" lon="6.74567">
        <ele>1525</ele>
        <time>2022-04-14T10:50:53Z</time>
      </trkpt>
      <trkpt lat="45.95582" lon="6.74562">
        <ele>1523</ele>
        <time>2022-04-14T10:50:57Z</time>
      </trkpt>
      <trkpt lat="45.95581" lon="6.74555">
        <ele>1523</ele>
        <time>2022-04-14T10:51:01Z</time>
      </trkpt>
      <trkpt lat="45.9558" lon="6.74549">
        <ele>1523</ele>
        <time>2022-04-14T10:51:05Z</time>
      </trkpt>
      <trkpt lat="45.95579" lon="6.7455">
        <ele>1523</ele>
        <time>2022-04-14T10:51:48Z</time>
      </trkpt>
      <trkpt lat="45.95574" lon="6.74559">
        <ele>1523</ele>
        <time>2022-04-14T10:51:57Z</time>
      </trkpt>
      <trkpt lat="45.95565" lon="6.74569">
        <ele>1525</ele>
        <time>2022-04-14T10:52:09Z</time>
      </trkpt>
      <trkpt lat="45.95563" lon="6.74575">
        <ele>1526</ele>
        <time>2022-04-14T10:52:14Z</time>
      </trkpt>
      <trkpt lat="45.95557" lon="6.74579">
        <ele>1527</ele>
        <time>2022-04-14T10:52:20Z</time>
      </trkpt>
      <trkpt lat="45.95549" lon="6.74593">
        <ele>1530</ele>
        <time>2022-04-14T10:52:38Z</time>
      </trkpt>
      <trkpt lat="45.95546" lon="6.74598">
        <ele>1531</ele>
        <time>2022-04-14T10:52:45Z</time>
      </trkpt>
      <trkpt lat="45.95546" lon="6.74607">
        <ele>1532</ele>
        <time>2022-04-14T10:52:55Z</time>
      </trkpt>
      <trkpt lat="45.95547" lon="6.74614">
        <ele>1533</ele>
        <time>2022-04-14T10:53:00Z</time>
      </trkpt>
      <trkpt lat="45.95551" lon="6.7462">
        <ele>1534</ele>
        <time>2022-04-14T10:53:07Z</time>
      </trkpt>
      <trkpt lat="45.95555" lon="6.74624">
        <ele>1534</ele>
        <time>2022-04-14T10:53:11Z</time>
      </trkpt>
      <trkpt lat="45.95561" lon="6.74638">
        <ele>1536</ele>
        <time>2022-04-14T10:53:23Z</time>
      </trkpt>
      <trkpt lat="45.95566" lon="6.74642">
        <ele>1537</ele>
        <time>2022-04-14T10:53:28Z</time>
      </trkpt>
      <trkpt lat="45.95589" lon="6.74675">
        <ele>1542</ele>
        <time>2022-04-14T10:54:05Z</time>
      </trkpt>
      <trkpt lat="45.9559" lon="6.74682">
        <ele>1543</ele>
        <time>2022-04-14T10:54:54Z</time>
      </trkpt>
      <trkpt lat="45.95592" lon="6.74695">
        <ele>1544</ele>
        <time>2022-04-14T10:55:14Z</time>
      </trkpt>
      <trkpt lat="45.95596" lon="6.74706">
        <ele>1545</ele>
        <time>2022-04-14T10:55:25Z</time>
      </trkpt>
      <trkpt lat="45.9562" lon="6.74728">
        <ele>1552</ele>
        <time>2022-04-14T10:56:05Z</time>
      </trkpt>
      <trkpt lat="45.95626" lon="6.74741">
        <ele>1554</ele>
        <time>2022-04-14T10:56:17Z</time>
      </trkpt>
      <trkpt lat="45.95627" lon="6.74752">
        <ele>1557</ele>
        <time>2022-04-14T10:56:28Z</time>
      </trkpt>
      <trkpt lat="45.9562" lon="6.74773">
        <ele>1561</ele>
        <time>2022-04-14T10:56:48Z</time>
      </trkpt>
      <trkpt lat="45.95612" lon="6.74783">
        <ele>1562</ele>
        <time>2022-04-14T10:56:58Z</time>
      </trkpt>
      <trkpt lat="45.95598" lon="6.74789">
        <ele>1565</ele>
        <time>2022-04-14T10:57:15Z</time>
      </trkpt>
      <trkpt lat="45.95582" lon="6.74801">
        <ele>1569</ele>
        <time>2022-04-14T10:57:41Z</time>
      </trkpt>
      <trkpt lat="45.9557" lon="6.74821">
        <ele>1573</ele>
        <time>2022-04-14T10:58:04Z</time>
      </trkpt>
      <trkpt lat="45.95569" lon="6.74832">
        <ele>1575</ele>
        <time>2022-04-14T10:58:15Z</time>
      </trkpt>
      <trkpt lat="45.95574" lon="6.74841">
        <ele>1578</ele>
        <time>2022-04-14T10:58:32Z</time>
      </trkpt>
      <trkpt lat="45.95584" lon="6.74842">
        <ele>1580</ele>
        <time>2022-04-14T10:58:44Z</time>
      </trkpt>
      <trkpt lat="45.95603" lon="6.74856">
        <ele>1585</ele>
        <time>2022-04-14T10:59:10Z</time>
      </trkpt>
      <trkpt lat="45.95605" lon="6.74863">
        <ele>1587</ele>
        <time>2022-04-14T10:59:18Z</time>
      </trkpt>
      <trkpt lat="45.95608" lon="6.74872">
        <ele>1588</ele>
        <time>2022-04-14T10:59:28Z</time>
      </trkpt>
      <trkpt lat="45.9561" lon="6.74881">
        <ele>1590</ele>
        <time>2022-04-14T10:59:38Z</time>
      </trkpt>
      <trkpt lat="45.95618" lon="6.74898">
        <ele>1591</ele>
        <time>2022-04-14T10:59:55Z</time>
      </trkpt>
      <trkpt lat="45.95632" lon="6.74918">
        <ele>1594</ele>
        <time>2022-04-14T11:00:19Z</time>
      </trkpt>
      <trkpt lat="45.95632" lon="6.74932">
        <ele>1595</ele>
        <time>2022-04-14T11:00:29Z</time>
      </trkpt>
      <trkpt lat="45.95629" lon="6.74941">
        <ele>1596</ele>
        <time>2022-04-14T11:00:37Z</time>
      </trkpt>
      <trkpt lat="45.95628" lon="6.74951">
        <ele>1598</ele>
        <time>2022-04-14T11:00:45Z</time>
      </trkpt>
      <trkpt lat="45.9562" lon="6.74975">
        <ele>1601</ele>
        <time>2022-04-14T11:01:07Z</time>
      </trkpt>
      <trkpt lat="45.95617" lon="6.74992">
        <ele>1603</ele>
        <time>2022-04-14T11:01:21Z</time>
      </trkpt>
      <trkpt lat="45.95603" lon="6.75028">
        <ele>1606</ele>
        <time>2022-04-14T11:01:51Z</time>
      </trkpt>
      <trkpt lat="45.956" lon="6.75035">
        <ele>1607</ele>
        <time>2022-04-14T11:02:01Z</time>
      </trkpt>
      <trkpt lat="45.95598" lon="6.7505">
        <ele>1609</ele>
        <time>2022-04-14T11:02:28Z</time>
      </trkpt>
      <trkpt lat="45.95601" lon="6.75062">
        <ele>1610</ele>
        <time>2022-04-14T11:02:39Z</time>
      </trkpt>
      <trkpt lat="45.95602" lon="6.75073">
        <ele>1610</ele>
        <time>2022-04-14T11:02:49Z</time>
      </trkpt>
      <trkpt lat="45.95602" lon="6.7508">
        <ele>1610</ele>
        <time>2022-04-14T11:02:53Z</time>
      </trkpt>
      <trkpt lat="45.95602" lon="6.75092">
        <ele>1610</ele>
        <time>2022-04-14T11:03:03Z</time>
      </trkpt>
      <trkpt lat="45.95601" lon="6.751">
        <ele>1610</ele>
        <time>2022-04-14T11:03:07Z</time>
      </trkpt>
      <trkpt lat="45.95601" lon="6.75111">
        <ele>1610</ele>
        <time>2022-04-14T11:03:13Z</time>
      </trkpt>
      <trkpt lat="45.95606" lon="6.75136">
        <ele>1610</ele>
        <time>2022-04-14T11:03:25Z</time>
      </trkpt>
      <trkpt lat="45.95607" lon="6.75167">
        <ele>1612</ele>
        <time>2022-04-14T11:03:41Z</time>
      </trkpt>
      <trkpt lat="45.95606" lon="6.75183">
        <ele>1614</ele>
        <time>2022-04-14T11:03:51Z</time>
      </trkpt>
      <trkpt lat="45.9561" lon="6.75195">
        <ele>1614</ele>
        <time>2022-04-14T11:03:58Z</time>
      </trkpt>
      <trkpt lat="45.95608" lon="6.75208">
        <ele>1614</ele>
        <time>2022-04-14T11:04:03Z</time>
      </trkpt>
      <trkpt lat="45.95609" lon="6.75221">
        <ele>1614</ele>
        <time>2022-04-14T11:04:09Z</time>
      </trkpt>
      <trkpt lat="45.95609" lon="6.75271">
        <ele>1614</ele>
        <time>2022-04-14T11:04:29Z</time>
      </trkpt>
      <trkpt lat="45.9561" lon="6.75283">
        <ele>1613</ele>
        <time>2022-04-14T11:04:34Z</time>
      </trkpt>
      <trkpt lat="45.95621" lon="6.75303">
        <ele>1611</ele>
        <time>2022-04-14T11:04:43Z</time>
      </trkpt>
      <trkpt lat="45.95628" lon="6.75308">
        <ele>1612</ele>
        <time>2022-04-14T11:04:51Z</time>
      </trkpt>
      <trkpt lat="45.95632" lon="6.75309">
        <ele>1613</ele>
        <time>2022-04-14T11:04:56Z</time>
      </trkpt>
      <trkpt lat="45.95636" lon="6.75313">
        <ele>1613</ele>
        <time>2022-04-14T11:05:04Z</time>
      </trkpt>
      <trkpt lat="45.95644" lon="6.75324">
        <ele>1612</ele>
        <time>2022-04-14T11:05:24Z</time>
      </trkpt>
      <trkpt lat="45.95648" lon="6.75332">
        <ele>1612</ele>
        <time>2022-04-14T11:05:27Z</time>
      </trkpt>
      <trkpt lat="45.95649" lon="6.75341">
        <ele>1612</ele>
        <time>2022-04-14T11:05:31Z</time>
      </trkpt>
      <trkpt lat="45.95649" lon="6.75373">
        <ele>1611</ele>
        <time>2022-04-14T11:05:44Z</time>
      </trkpt>
      <trkpt lat="45.95651" lon="6.7538">
        <ele>1611</ele>
        <time>2022-04-14T11:05:47Z</time>
      </trkpt>
      <trkpt lat="45.95653" lon="6.75416">
        <ele>1611</ele>
        <time>2022-04-14T11:05:59Z</time>
      </trkpt>
      <trkpt lat="45.95654" lon="6.75445">
        <ele>1609</ele>
        <time>2022-04-14T11:06:11Z</time>
      </trkpt>
      <trkpt lat="45.95652" lon="6.75459">
        <ele>1609</ele>
        <time>2022-04-14T11:06:17Z</time>
      </trkpt>
      <trkpt lat="45.95651" lon="6.75465">
        <ele>1609</ele>
        <time>2022-04-14T11:06:20Z</time>
      </trkpt>
      <trkpt lat="45.95648" lon="6.7551">
        <ele>1610</ele>
        <time>2022-04-14T11:06:40Z</time>
      </trkpt>
      <trkpt lat="45.95645" lon="6.75532">
        <ele>1609</ele>
        <time>2022-04-14T11:06:49Z</time>
      </trkpt>
      <trkpt lat="45.95638" lon="6.7556">
        <ele>1609</ele>
        <time>2022-04-14T11:07:01Z</time>
      </trkpt>
      <trkpt lat="45.95633" lon="6.75596">
        <ele>1609</ele>
        <time>2022-04-14T11:07:15Z</time>
      </trkpt>
      <trkpt lat="45.95635" lon="6.75612">
        <ele>1610</ele>
        <time>2022-04-14T11:07:24Z</time>
      </trkpt>
      <trkpt lat="45.95623" lon="6.75662">
        <ele>1611</ele>
        <time>2022-04-14T11:07:47Z</time>
      </trkpt>
      <trkpt lat="45.95622" lon="6.75676">
        <ele>1611</ele>
        <time>2022-04-14T11:07:53Z</time>
      </trkpt>
      <trkpt lat="45.95624" lon="6.75691">
        <ele>1611</ele>
        <time>2022-04-14T11:07:59Z</time>
      </trkpt>
      <trkpt lat="45.95627" lon="6.75696">
        <ele>1611</ele>
        <time>2022-04-14T11:08:02Z</time>
      </trkpt>
      <trkpt lat="45.9563" lon="6.75701">
        <ele>1611</ele>
        <time>2022-04-14T11:08:08Z</time>
      </trkpt>
      <trkpt lat="45.95638" lon="6.75702">
        <ele>1612</ele>
        <time>2022-04-14T11:08:18Z</time>
      </trkpt>
      <trkpt lat="45.95642" lon="6.7571">
        <ele>1613</ele>
        <time>2022-04-14T11:08:26Z</time>
      </trkpt>
      <trkpt lat="45.95645" lon="6.75716">
        <ele>1613</ele>
        <time>2022-04-14T11:08:30Z</time>
      </trkpt>
      <trkpt lat="45.9565" lon="6.75725">
        <ele>1612</ele>
        <time>2022-04-14T11:08:44Z</time>
      </trkpt>
      <trkpt lat="45.95675" lon="6.75758">
        <ele>1610</ele>
        <time>2022-04-14T11:09:02Z</time>
      </trkpt>
      <trkpt lat="45.95675" lon="6.75769">
        <ele>1609</ele>
        <time>2022-04-14T11:09:05Z</time>
      </trkpt>
      <trkpt lat="45.95676" lon="6.75814">
        <ele>1606</ele>
        <time>2022-04-14T11:09:20Z</time>
      </trkpt>
      <trkpt lat="45.95673" lon="6.75821">
        <ele>1606</ele>
        <time>2022-04-14T11:09:23Z</time>
      </trkpt>
      <trkpt lat="45.95669" lon="6.75827">
        <ele>1606</ele>
        <time>2022-04-14T11:09:26Z</time>
      </trkpt>
      <trkpt lat="45.95669" lon="6.75833">
        <ele>1606</ele>
        <time>2022-04-14T11:09:30Z</time>
      </trkpt>
      <trkpt lat="45.95666" lon="6.75841">
        <ele>1605</ele>
        <time>2022-04-14T11:09:34Z</time>
      </trkpt>
      <trkpt lat="45.95663" lon="6.75847">
        <ele>1605</ele>
        <time>2022-04-14T11:09:38Z</time>
      </trkpt>
      <trkpt lat="45.95657" lon="6.75867">
        <ele>1605</ele>
        <time>2022-04-14T11:09:49Z</time>
      </trkpt>
      <trkpt lat="45.95655" lon="6.75873">
        <ele>1605</ele>
        <time>2022-04-14T11:09:52Z</time>
      </trkpt>
      <trkpt lat="45.95653" lon="6.75882">
        <ele>1605</ele>
        <time>2022-04-14T11:09:55Z</time>
      </trkpt>
      <trkpt lat="45.95652" lon="6.75891">
        <ele>1605</ele>
        <time>2022-04-14T11:09:58Z</time>
      </trkpt>
      <trkpt lat="45.95652" lon="6.75899">
        <ele>1604</ele>
        <time>2022-04-14T11:10:01Z</time>
      </trkpt>
      <trkpt lat="45.95652" lon="6.75907">
        <ele>1604</ele>
        <time>2022-04-14T11:10:04Z</time>
      </trkpt>
      <trkpt lat="45.95652" lon="6.75916">
        <ele>1604</ele>
        <time>2022-04-14T11:10:07Z</time>
      </trkpt>
      <trkpt lat="45.95652" lon="6.75932">
        <ele>1603</ele>
        <time>2022-04-14T11:10:13Z</time>
      </trkpt>
      <trkpt lat="45.95656" lon="6.75941">
        <ele>1603</ele>
        <time>2022-04-14T11:10:17Z</time>
      </trkpt>
      <trkpt lat="45.95664" lon="6.75943">
        <ele>1603</ele>
        <time>2022-04-14T11:10:22Z</time>
      </trkpt>
      <trkpt lat="45.95675" lon="6.7595">
        <ele>1601</ele>
        <time>2022-04-14T11:10:30Z</time>
      </trkpt>
      <trkpt lat="45.95687" lon="6.75964">
        <ele>1600</ele>
        <time>2022-04-14T11:10:39Z</time>
      </trkpt>
      <trkpt lat="45.95687" lon="6.75971">
        <ele>1600</ele>
        <time>2022-04-14T11:10:42Z</time>
      </trkpt>
      <trkpt lat="45.95685" lon="6.75987">
        <ele>1600</ele>
        <time>2022-04-14T11:10:48Z</time>
      </trkpt>
      <trkpt lat="45.9569" lon="6.76015">
        <ele>1598</ele>
        <time>2022-04-14T11:11:01Z</time>
      </trkpt>
      <trkpt lat="45.95693" lon="6.76024">
        <ele>1599</ele>
        <time>2022-04-14T11:11:09Z</time>
      </trkpt>
      <trkpt lat="45.9569" lon="6.76051">
        <ele>1601</ele>
        <time>2022-04-14T11:11:28Z</time>
      </trkpt>
      <trkpt lat="45.95674" lon="6.76079">
        <ele>1602</ele>
        <time>2022-04-14T11:11:44Z</time>
      </trkpt>
      <trkpt lat="45.95662" lon="6.76085">
        <ele>1602</ele>
        <time>2022-04-14T11:11:52Z</time>
      </trkpt>
      <trkpt lat="45.95647" lon="6.76094">
        <ele>1602</ele>
        <time>2022-04-14T11:12:03Z</time>
      </trkpt>
      <trkpt lat="45.95642" lon="6.76099">
        <ele>1603</ele>
        <time>2022-04-14T11:12:06Z</time>
      </trkpt>
      <trkpt lat="45.9564" lon="6.76105">
        <ele>1603</ele>
        <time>2022-04-14T11:12:09Z</time>
      </trkpt>
      <trkpt lat="45.95639" lon="6.76112">
        <ele>1603</ele>
        <time>2022-04-14T11:12:12Z</time>
      </trkpt>
      <trkpt lat="45.95635" lon="6.76127">
        <ele>1601</ele>
        <time>2022-04-14T11:12:18Z</time>
      </trkpt>
      <trkpt lat="45.95631" lon="6.76134">
        <ele>1600</ele>
        <time>2022-04-14T11:12:22Z</time>
      </trkpt>
      <trkpt lat="45.95617" lon="6.76147">
        <ele>1599</ele>
        <time>2022-04-14T11:12:33Z</time>
      </trkpt>
      <trkpt lat="45.95606" lon="6.76157">
        <ele>1599</ele>
        <time>2022-04-14T11:12:40Z</time>
      </trkpt>
      <trkpt lat="45.95603" lon="6.76162">
        <ele>1599</ele>
        <time>2022-04-14T11:12:43Z</time>
      </trkpt>
      <trkpt lat="45.95604" lon="6.76171">
        <ele>1598</ele>
        <time>2022-04-14T11:12:46Z</time>
      </trkpt>
      <trkpt lat="45.95606" lon="6.76176">
        <ele>1597</ele>
        <time>2022-04-14T11:12:49Z</time>
      </trkpt>
      <trkpt lat="45.9561" lon="6.76183">
        <ele>1597</ele>
        <time>2022-04-14T11:12:53Z</time>
      </trkpt>
      <trkpt lat="45.95612" lon="6.76191">
        <ele>1596</ele>
        <time>2022-04-14T11:12:57Z</time>
      </trkpt>
      <trkpt lat="45.95616" lon="6.76197">
        <ele>1596</ele>
        <time>2022-04-14T11:13:02Z</time>
      </trkpt>
      <trkpt lat="45.9562" lon="6.76203">
        <ele>1597</ele>
        <time>2022-04-14T11:13:06Z</time>
      </trkpt>
      <trkpt lat="45.95624" lon="6.76207">
        <ele>1597</ele>
        <time>2022-04-14T11:13:10Z</time>
      </trkpt>
      <trkpt lat="45.95635" lon="6.76227">
        <ele>1596</ele>
        <time>2022-04-14T11:13:31Z</time>
      </trkpt>
      <trkpt lat="45.95634" lon="6.76241">
        <ele>1596</ele>
        <time>2022-04-14T11:13:36Z</time>
      </trkpt>
      <trkpt lat="45.9564" lon="6.76251">
        <ele>1595</ele>
        <time>2022-04-14T11:13:40Z</time>
      </trkpt>
      <trkpt lat="45.95643" lon="6.76263">
        <ele>1595</ele>
        <time>2022-04-14T11:13:45Z</time>
      </trkpt>
      <trkpt lat="45.95649" lon="6.76273">
        <ele>1595</ele>
        <time>2022-04-14T11:13:49Z</time>
      </trkpt>
      <trkpt lat="45.95654" lon="6.76283">
        <ele>1595</ele>
        <time>2022-04-14T11:13:55Z</time>
      </trkpt>
      <trkpt lat="45.95665" lon="6.7631">
        <ele>1594</ele>
        <time>2022-04-14T11:14:04Z</time>
      </trkpt>
      <trkpt lat="45.95667" lon="6.76319">
        <ele>1594</ele>
        <time>2022-04-14T11:14:07Z</time>
      </trkpt>
      <trkpt lat="45.95659" lon="6.76323">
        <ele>1594</ele>
        <time>2022-04-14T11:14:09Z</time>
      </trkpt>
      <trkpt lat="45.95653" lon="6.76322">
        <ele>1593</ele>
        <time>2022-04-14T11:14:11Z</time>
      </trkpt>
      <trkpt lat="45.95646" lon="6.76312">
        <ele>1592</ele>
        <time>2022-04-14T11:14:15Z</time>
      </trkpt>
      <trkpt lat="45.9564" lon="6.76301">
        <ele>1591</ele>
        <time>2022-04-14T11:14:23Z</time>
      </trkpt>
      <trkpt lat="45.95615" lon="6.76261">
        <ele>1584</ele>
        <time>2022-04-14T11:14:53Z</time>
      </trkpt>
      <trkpt lat="45.95607" lon="6.7626">
        <ele>1583</ele>
        <time>2022-04-14T11:14:58Z</time>
      </trkpt>
      <trkpt lat="45.95587" lon="6.76252">
        <ele>1583</ele>
        <time>2022-04-14T11:15:07Z</time>
      </trkpt>
      <trkpt lat="45.95582" lon="6.76246">
        <ele>1582</ele>
        <time>2022-04-14T11:15:10Z</time>
      </trkpt>
      <trkpt lat="45.9557" lon="6.76241">
        <ele>1581</ele>
        <time>2022-04-14T11:15:16Z</time>
      </trkpt>
      <trkpt lat="45.95559" lon="6.76221">
        <ele>1579</ele>
        <time>2022-04-14T11:15:25Z</time>
      </trkpt>
      <trkpt lat="45.95546" lon="6.76229">
        <ele>1577</ele>
        <time>2022-04-14T11:15:32Z</time>
      </trkpt>
      <trkpt lat="45.95543" lon="6.76235">
        <ele>1577</ele>
        <time>2022-04-14T11:15:35Z</time>
      </trkpt>
      <trkpt lat="45.95527" lon="6.76244">
        <ele>1574</ele>
        <time>2022-04-14T11:15:45Z</time>
      </trkpt>
      <trkpt lat="45.95522" lon="6.76237">
        <ele>1574</ele>
        <time>2022-04-14T11:15:48Z</time>
      </trkpt>
      <trkpt lat="45.95499" lon="6.76202">
        <ele>1568</ele>
        <time>2022-04-14T11:16:07Z</time>
      </trkpt>
      <trkpt lat="45.95482" lon="6.7619">
        <ele>1565</ele>
        <time>2022-04-14T11:16:24Z</time>
      </trkpt>
      <trkpt lat="45.95476" lon="6.76186">
        <ele>1564</ele>
        <time>2022-04-14T11:16:29Z</time>
      </trkpt>
      <trkpt lat="45.9547" lon="6.76181">
        <ele>1564</ele>
        <time>2022-04-14T11:16:34Z</time>
      </trkpt>
      <trkpt lat="45.95449" lon="6.76161">
        <ele>1557</ele>
        <time>2022-04-14T11:16:53Z</time>
      </trkpt>
      <trkpt lat="45.95443" lon="6.76148">
        <ele>1556</ele>
        <time>2022-04-14T11:16:57Z</time>
      </trkpt>
      <trkpt lat="45.95441" lon="6.76136">
        <ele>1555</ele>
        <time>2022-04-14T11:17:03Z</time>
      </trkpt>
      <trkpt lat="45.95437" lon="6.76127">
        <ele>1555</ele>
        <time>2022-04-14T11:17:08Z</time>
      </trkpt>
      <trkpt lat="45.95439" lon="6.76115">
        <ele>1556</ele>
        <time>2022-04-14T11:17:13Z</time>
      </trkpt>
      <trkpt lat="45.95445" lon="6.76107">
        <ele>1555</ele>
        <time>2022-04-14T11:17:20Z</time>
      </trkpt>
      <trkpt lat="45.95442" lon="6.76094">
        <ele>1554</ele>
        <time>2022-04-14T11:17:27Z</time>
      </trkpt>
      <trkpt lat="45.95435" lon="6.7609">
        <ele>1553</ele>
        <time>2022-04-14T11:17:31Z</time>
      </trkpt>
      <trkpt lat="45.95419" lon="6.7609">
        <ele>1549</ele>
        <time>2022-04-14T11:17:41Z</time>
      </trkpt>
      <trkpt lat="45.95404" lon="6.76102">
        <ele>1545</ele>
        <time>2022-04-14T11:17:49Z</time>
      </trkpt>
      <trkpt lat="45.95396" lon="6.76119">
        <ele>1541</ele>
        <time>2022-04-14T11:17:56Z</time>
      </trkpt>
      <trkpt lat="45.95399" lon="6.76152">
        <ele>1535</ele>
        <time>2022-04-14T11:18:11Z</time>
      </trkpt>
      <trkpt lat="45.954" lon="6.76184">
        <ele>1533</ele>
        <time>2022-04-14T11:18:23Z</time>
      </trkpt>
      <trkpt lat="45.95393" lon="6.76198">
        <ele>1532</ele>
        <time>2022-04-14T11:18:29Z</time>
      </trkpt>
      <trkpt lat="45.9539" lon="6.76212">
        <ele>1532</ele>
        <time>2022-04-14T11:18:35Z</time>
      </trkpt>
      <trkpt lat="45.95391" lon="6.76224">
        <ele>1531</ele>
        <time>2022-04-14T11:18:41Z</time>
      </trkpt>
      <trkpt lat="45.95388" lon="6.76236">
        <ele>1528</ele>
        <time>2022-04-14T11:18:47Z</time>
      </trkpt>
      <trkpt lat="45.95398" lon="6.76275">
        <ele>1523</ele>
        <time>2022-04-14T11:19:04Z</time>
      </trkpt>
      <trkpt lat="45.95396" lon="6.76302">
        <ele>1519</ele>
        <time>2022-04-14T11:19:15Z</time>
      </trkpt>
      <trkpt lat="45.95392" lon="6.76313">
        <ele>1517</ele>
        <time>2022-04-14T11:19:20Z</time>
      </trkpt>
      <trkpt lat="45.95392" lon="6.76339">
        <ele>1514</ele>
        <time>2022-04-14T11:19:30Z</time>
      </trkpt>
      <trkpt lat="45.95402" lon="6.76362">
        <ele>1510</ele>
        <time>2022-04-14T11:19:43Z</time>
      </trkpt>
      <trkpt lat="45.95403" lon="6.76383">
        <ele>1507</ele>
        <time>2022-04-14T11:19:50Z</time>
      </trkpt>
      <trkpt lat="45.95399" lon="6.76408">
        <ele>1502</ele>
        <time>2022-04-14T11:20:01Z</time>
      </trkpt>
      <trkpt lat="45.95401" lon="6.76465">
        <ele>1492</ele>
        <time>2022-04-14T11:20:24Z</time>
      </trkpt>
      <trkpt lat="45.95393" lon="6.76529">
        <ele>1481</ele>
        <time>2022-04-14T11:20:52Z</time>
      </trkpt>
      <trkpt lat="45.95397" lon="6.76542">
        <ele>1477</ele>
        <time>2022-04-14T11:21:00Z</time>
      </trkpt>
      <trkpt lat="45.95397" lon="6.7655">
        <ele>1476</ele>
        <time>2022-04-14T11:21:06Z</time>
      </trkpt>
      <trkpt lat="45.95395" lon="6.7656">
        <ele>1476</ele>
        <time>2022-04-14T11:21:13Z</time>
      </trkpt>
      <trkpt lat="45.95392" lon="6.76567">
        <ele>1474</ele>
        <time>2022-04-14T11:21:22Z</time>
      </trkpt>
      <trkpt lat="45.95384" lon="6.76568">
        <ele>1473</ele>
        <time>2022-04-14T11:21:26Z</time>
      </trkpt>
      <trkpt lat="45.95371" lon="6.76554">
        <ele>1471</ele>
        <time>2022-04-14T11:21:34Z</time>
      </trkpt>
      <trkpt lat="45.95358" lon="6.76531">
        <ele>1468</ele>
        <time>2022-04-14T11:21:43Z</time>
      </trkpt>
      <trkpt lat="45.9535" lon="6.76526">
        <ele>1466</ele>
        <time>2022-04-14T11:21:48Z</time>
      </trkpt>
      <trkpt lat="45.95339" lon="6.76506">
        <ele>1462</ele>
        <time>2022-04-14T11:21:58Z</time>
      </trkpt>
      <trkpt lat="45.95324" lon="6.76484">
        <ele>1457</ele>
        <time>2022-04-14T11:22:11Z</time>
      </trkpt>
      <trkpt lat="45.95303" lon="6.76466">
        <ele>1452</ele>
        <time>2022-04-14T11:22:26Z</time>
      </trkpt>
      <trkpt lat="45.95265" lon="6.76405">
        <ele>1441</ele>
        <time>2022-04-14T11:22:54Z</time>
      </trkpt>
      <trkpt lat="45.95258" lon="6.76385">
        <ele>1439</ele>
        <time>2022-04-14T11:23:00Z</time>
      </trkpt>
      <trkpt lat="45.95252" lon="6.76364">
        <ele>1437</ele>
        <time>2022-04-14T11:23:07Z</time>
      </trkpt>
      <trkpt lat="45.95239" lon="6.76343">
        <ele>1432</ele>
        <time>2022-04-14T11:23:18Z</time>
      </trkpt>
      <trkpt lat="45.95236" lon="6.76332">
        <ele>1431</ele>
        <time>2022-04-14T11:23:22Z</time>
      </trkpt>
      <trkpt lat="45.95219" lon="6.76314">
        <ele>1429</ele>
        <time>2022-04-14T11:23:36Z</time>
      </trkpt>
      <trkpt lat="45.95196" lon="6.76283">
        <ele>1427</ele>
        <time>2022-04-14T11:23:50Z</time>
      </trkpt>
      <trkpt lat="45.95184" lon="6.76275">
        <ele>1426</ele>
        <time>2022-04-14T11:23:56Z</time>
      </trkpt>
      <trkpt lat="45.9517" lon="6.76271">
        <ele>1426</ele>
        <time>2022-04-14T11:24:03Z</time>
      </trkpt>
      <trkpt lat="45.95164" lon="6.76274">
        <ele>1425</ele>
        <time>2022-04-14T11:24:06Z</time>
      </trkpt>
      <trkpt lat="45.95158" lon="6.7628">
        <ele>1425</ele>
        <time>2022-04-14T11:24:09Z</time>
      </trkpt>
      <trkpt lat="45.9515" lon="6.76295">
        <ele>1425</ele>
        <time>2022-04-14T11:24:16Z</time>
      </trkpt>
      <trkpt lat="45.95149" lon="6.76306">
        <ele>1425</ele>
        <time>2022-04-14T11:24:19Z</time>
      </trkpt>
      <trkpt lat="45.95153" lon="6.76323">
        <ele>1424</ele>
        <time>2022-04-14T11:24:27Z</time>
      </trkpt>
      <trkpt lat="45.95146" lon="6.76344">
        <ele>1424</ele>
        <time>2022-04-14T11:24:37Z</time>
      </trkpt>
      <trkpt lat="45.95142" lon="6.76349">
        <ele>1424</ele>
        <time>2022-04-14T11:24:40Z</time>
      </trkpt>
      <trkpt lat="45.95139" lon="6.76355">
        <ele>1424</ele>
        <time>2022-04-14T11:24:43Z</time>
      </trkpt>
      <trkpt lat="45.95128" lon="6.76361">
        <ele>1422</ele>
        <time>2022-04-14T11:24:51Z</time>
      </trkpt>
      <trkpt lat="45.95118" lon="6.76358">
        <ele>1420</ele>
        <time>2022-04-14T11:24:58Z</time>
      </trkpt>
      <trkpt lat="45.95109" lon="6.76346">
        <ele>1419</ele>
        <time>2022-04-14T11:25:04Z</time>
      </trkpt>
      <trkpt lat="45.95107" lon="6.7634">
        <ele>1419</ele>
        <time>2022-04-14T11:25:07Z</time>
      </trkpt>
      <trkpt lat="45.95107" lon="6.76333">
        <ele>1418</ele>
        <time>2022-04-14T11:25:10Z</time>
      </trkpt>
      <trkpt lat="45.95103" lon="6.76325">
        <ele>1416</ele>
        <time>2022-04-14T11:25:17Z</time>
      </trkpt>
      <trkpt lat="45.95098" lon="6.76317">
        <ele>1418</ele>
        <time>2022-04-14T11:25:28Z</time>
      </trkpt>
      <trkpt lat="45.95088" lon="6.7631">
        <ele>1416</ele>
        <time>2022-04-14T11:25:36Z</time>
      </trkpt>
      <trkpt lat="45.95084" lon="6.76296">
        <ele>1412</ele>
        <time>2022-04-14T11:25:48Z</time>
      </trkpt>
      <trkpt lat="45.95086" lon="6.76285">
        <ele>1410</ele>
        <time>2022-04-14T11:25:54Z</time>
      </trkpt>
      <trkpt lat="45.95082" lon="6.76274">
        <ele>1407</ele>
        <time>2022-04-14T11:26:02Z</time>
      </trkpt>
      <trkpt lat="45.95064" lon="6.76232">
        <ele>1401</ele>
        <time>2022-04-14T11:26:20Z</time>
      </trkpt>
      <trkpt lat="45.95057" lon="6.76226">
        <ele>1400</ele>
        <time>2022-04-14T11:26:24Z</time>
      </trkpt>
      <trkpt lat="45.9505" lon="6.76233">
        <ele>1396</ele>
        <time>2022-04-14T11:26:32Z</time>
      </trkpt>
      <trkpt lat="45.95046" lon="6.76259">
        <ele>1391</ele>
        <time>2022-04-14T11:26:45Z</time>
      </trkpt>
      <trkpt lat="45.95039" lon="6.76263">
        <ele>1388</ele>
        <time>2022-04-14T11:26:51Z</time>
      </trkpt>
      <trkpt lat="45.95033" lon="6.76254">
        <ele>1385</ele>
        <time>2022-04-14T11:26:57Z</time>
      </trkpt>
      <trkpt lat="45.95029" lon="6.76245">
        <ele>1384</ele>
        <time>2022-04-14T11:27:01Z</time>
      </trkpt>
      <trkpt lat="45.95023" lon="6.76237">
        <ele>1384</ele>
        <time>2022-04-14T11:27:05Z</time>
      </trkpt>
      <trkpt lat="45.95019" lon="6.76227">
        <ele>1383</ele>
        <time>2022-04-14T11:27:09Z</time>
      </trkpt>
      <trkpt lat="45.95014" lon="6.7622">
        <ele>1381</ele>
        <time>2022-04-14T11:27:13Z</time>
      </trkpt>
      <trkpt lat="45.95001" lon="6.76211">
        <ele>1378</ele>
        <time>2022-04-14T11:27:20Z</time>
      </trkpt>
      <trkpt lat="45.94995" lon="6.76207">
        <ele>1377</ele>
        <time>2022-04-14T11:27:22Z</time>
      </trkpt>
      <trkpt lat="45.94987" lon="6.76205">
        <ele>1376</ele>
        <time>2022-04-14T11:27:25Z</time>
      </trkpt>
      <trkpt lat="45.94975" lon="6.76215">
        <ele>1374</ele>
        <time>2022-04-14T11:27:31Z</time>
      </trkpt>
      <trkpt lat="45.94971" lon="6.76212">
        <ele>1373</ele>
        <time>2022-04-14T11:27:33Z</time>
      </trkpt>
      <trkpt lat="45.94969" lon="6.76203">
        <ele>1372</ele>
        <time>2022-04-14T11:27:35Z</time>
      </trkpt>
      <trkpt lat="45.94958" lon="6.76185">
        <ele>1369</ele>
        <time>2022-04-14T11:27:42Z</time>
      </trkpt>
      <trkpt lat="45.94951" lon="6.76166">
        <ele>1366</ele>
        <time>2022-04-14T11:27:50Z</time>
      </trkpt>
      <trkpt lat="45.94946" lon="6.76146">
        <ele>1364</ele>
        <time>2022-04-14T11:27:57Z</time>
      </trkpt>
      <trkpt lat="45.94948" lon="6.7612">
        <ele>1361</ele>
        <time>2022-04-14T11:28:05Z</time>
      </trkpt>
      <trkpt lat="45.94945" lon="6.76113">
        <ele>1360</ele>
        <time>2022-04-14T11:28:09Z</time>
      </trkpt>
      <trkpt lat="45.94943" lon="6.76102">
        <ele>1358</ele>
        <time>2022-04-14T11:28:13Z</time>
      </trkpt>
      <trkpt lat="45.9494" lon="6.76093">
        <ele>1357</ele>
        <time>2022-04-14T11:28:17Z</time>
      </trkpt>
      <trkpt lat="45.94939" lon="6.76086">
        <ele>1356</ele>
        <time>2022-04-14T11:28:20Z</time>
      </trkpt>
      <trkpt lat="45.94942" lon="6.76078">
        <ele>1355</ele>
        <time>2022-04-14T11:28:23Z</time>
      </trkpt>
      <trkpt lat="45.94947" lon="6.76076">
        <ele>1354</ele>
        <time>2022-04-14T11:28:26Z</time>
      </trkpt>
      <trkpt lat="45.94962" lon="6.76052">
        <ele>1350</ele>
        <time>2022-04-14T11:28:38Z</time>
      </trkpt>
      <trkpt lat="45.94964" lon="6.76044">
        <ele>1348</ele>
        <time>2022-04-14T11:28:41Z</time>
      </trkpt>
      <trkpt lat="45.94967" lon="6.76039">
        <ele>1347</ele>
        <time>2022-04-14T11:28:44Z</time>
      </trkpt>
      <trkpt lat="45.94965" lon="6.76033">
        <ele>1346</ele>
        <time>2022-04-14T11:28:46Z</time>
      </trkpt>
      <trkpt lat="45.94961" lon="6.76031">
        <ele>1345</ele>
        <time>2022-04-14T11:28:49Z</time>
      </trkpt>
      <trkpt lat="45.94956" lon="6.76031">
        <ele>1343</ele>
        <time>2022-04-14T11:28:53Z</time>
      </trkpt>
      <trkpt lat="45.9495" lon="6.76029">
        <ele>1341</ele>
        <time>2022-04-14T11:28:58Z</time>
      </trkpt>
      <trkpt lat="45.94946" lon="6.76024">
        <ele>1340</ele>
        <time>2022-04-14T11:29:01Z</time>
      </trkpt>
      <trkpt lat="45.94941" lon="6.76018">
        <ele>1338</ele>
        <time>2022-04-14T11:29:04Z</time>
      </trkpt>
      <trkpt lat="45.94934" lon="6.76015">
        <ele>1337</ele>
        <time>2022-04-14T11:29:08Z</time>
      </trkpt>
      <trkpt lat="45.94932" lon="6.76009">
        <ele>1336</ele>
        <time>2022-04-14T11:29:10Z</time>
      </trkpt>
      <trkpt lat="45.94929" lon="6.76005">
        <ele>1335</ele>
        <time>2022-04-14T11:29:13Z</time>
      </trkpt>
      <trkpt lat="45.94928" lon="6.75996">
        <ele>1333</ele>
        <time>2022-04-14T11:29:19Z</time>
      </trkpt>
      <trkpt lat="45.94937" lon="6.7598">
        <ele>1330</ele>
        <time>2022-04-14T11:29:30Z</time>
      </trkpt>
      <trkpt lat="45.94941" lon="6.75977">
        <ele>1329</ele>
        <time>2022-04-14T11:29:34Z</time>
      </trkpt>
      <trkpt lat="45.94946" lon="6.75977">
        <ele>1329</ele>
        <time>2022-04-14T11:29:37Z</time>
      </trkpt>
      <trkpt lat="45.9495" lon="6.75977">
        <ele>1328</ele>
        <time>2022-04-14T11:29:40Z</time>
      </trkpt>
      <trkpt lat="45.94955" lon="6.75968">
        <ele>1328</ele>
        <time>2022-04-14T11:29:54Z</time>
      </trkpt>
      <trkpt lat="45.9496" lon="6.75964">
        <ele>1328</ele>
        <time>2022-04-14T11:30:03Z</time>
      </trkpt>
      <trkpt lat="45.94964" lon="6.75961">
        <ele>1328</ele>
        <time>2022-04-14T11:30:08Z</time>
      </trkpt>
      <trkpt lat="45.94981" lon="6.75936">
        <ele>1328</ele>
        <time>2022-04-14T11:30:25Z</time>
      </trkpt>
      <trkpt lat="45.94987" lon="6.75924">
        <ele>1326</ele>
        <time>2022-04-14T11:30:31Z</time>
      </trkpt>
      <trkpt lat="45.94993" lon="6.75897">
        <ele>1325</ele>
        <time>2022-04-14T11:30:40Z</time>
      </trkpt>
      <trkpt lat="45.94994" lon="6.75874">
        <ele>1323</ele>
        <time>2022-04-14T11:30:48Z</time>
      </trkpt>
      <trkpt lat="45.95005" lon="6.75844">
        <ele>1319</ele>
        <time>2022-04-14T11:31:00Z</time>
      </trkpt>
      <trkpt lat="45.95011" lon="6.75832">
        <ele>1317</ele>
        <time>2022-04-14T11:31:05Z</time>
      </trkpt>
      <trkpt lat="45.95013" lon="6.75826">
        <ele>1317</ele>
        <time>2022-04-14T11:31:07Z</time>
      </trkpt>
      <trkpt lat="45.95016" lon="6.75821">
        <ele>1316</ele>
        <time>2022-04-14T11:31:09Z</time>
      </trkpt>
      <trkpt lat="45.9502" lon="6.75809">
        <ele>1315</ele>
        <time>2022-04-14T11:31:14Z</time>
      </trkpt>
      <trkpt lat="45.95021" lon="6.75799">
        <ele>1313</ele>
        <time>2022-04-14T11:31:18Z</time>
      </trkpt>
      <trkpt lat="45.9502" lon="6.75776">
        <ele>1310</ele>
        <time>2022-04-14T11:31:26Z</time>
      </trkpt>
      <trkpt lat="45.95018" lon="6.75769">
        <ele>1309</ele>
        <time>2022-04-14T11:31:29Z</time>
      </trkpt>
      <trkpt lat="45.95012" lon="6.75748">
        <ele>1308</ele>
        <time>2022-04-14T11:31:37Z</time>
      </trkpt>
      <trkpt lat="45.95001" lon="6.75683">
        <ele>1308</ele>
        <time>2022-04-14T11:32:00Z</time>
      </trkpt>
      <trkpt lat="45.95" lon="6.75675">
        <ele>1308</ele>
        <time>2022-04-14T11:32:05Z</time>
      </trkpt>
      <trkpt lat="45.94999" lon="6.75669">
        <ele>1304</ele>
        <time>2022-04-14T11:32:10Z</time>
      </trkpt>
      <trkpt lat="45.94998" lon="6.75663">
        <ele>1309</ele>
        <time>2022-04-14T11:32:15Z</time>
      </trkpt>
      <trkpt lat="45.94985" lon="6.75616">
        <ele>1306</ele>
        <time>2022-04-14T11:32:43Z</time>
      </trkpt>
      <trkpt lat="45.94962" lon="6.75582">
        <ele>1301</ele>
        <time>2022-04-14T11:33:00Z</time>
      </trkpt>
      <trkpt lat="45.94962" lon="6.75575">
        <ele>1301</ele>
        <time>2022-04-14T11:33:02Z</time>
      </trkpt>
      <trkpt lat="45.94965" lon="6.75561">
        <ele>1300</ele>
        <time>2022-04-14T11:33:06Z</time>
      </trkpt>
      <trkpt lat="45.94968" lon="6.75541">
        <ele>1299</ele>
        <time>2022-04-14T11:33:12Z</time>
      </trkpt>
      <trkpt lat="45.94971" lon="6.75525">
        <ele>1298</ele>
        <time>2022-04-14T11:33:17Z</time>
      </trkpt>
      <trkpt lat="45.94961" lon="6.75488">
        <ele>1296</ele>
        <time>2022-04-14T11:33:34Z</time>
      </trkpt>
      <trkpt lat="45.94944" lon="6.75472">
        <ele>1292</ele>
        <time>2022-04-14T11:33:45Z</time>
      </trkpt>
      <trkpt lat="45.94934" lon="6.75467">
        <ele>1290</ele>
        <time>2022-04-14T11:33:50Z</time>
      </trkpt>
      <trkpt lat="45.94929" lon="6.75466">
        <ele>1289</ele>
        <time>2022-04-14T11:33:53Z</time>
      </trkpt>
      <trkpt lat="45.94924" lon="6.75467">
        <ele>1288</ele>
        <time>2022-04-14T11:33:55Z</time>
      </trkpt>
      <trkpt lat="45.94913" lon="6.75467">
        <ele>1286</ele>
        <time>2022-04-14T11:34:00Z</time>
      </trkpt>
      <trkpt lat="45.94906" lon="6.75459">
        <ele>1285</ele>
        <time>2022-04-14T11:34:05Z</time>
      </trkpt>
      <trkpt lat="45.94902" lon="6.75447">
        <ele>1284</ele>
        <time>2022-04-14T11:34:10Z</time>
      </trkpt>
      <trkpt lat="45.94892" lon="6.75431">
        <ele>1281</ele>
        <time>2022-04-14T11:34:18Z</time>
      </trkpt>
      <trkpt lat="45.94872" lon="6.75412">
        <ele>1277</ele>
        <time>2022-04-14T11:34:32Z</time>
      </trkpt>
      <trkpt lat="45.94873" lon="6.75402">
        <ele>1276</ele>
        <time>2022-04-14T11:34:35Z</time>
      </trkpt>
      <trkpt lat="45.94874" lon="6.75396">
        <ele>1275</ele>
        <time>2022-04-14T11:34:37Z</time>
      </trkpt>
      <trkpt lat="45.94873" lon="6.75379">
        <ele>1273</ele>
        <time>2022-04-14T11:34:42Z</time>
      </trkpt>
      <trkpt lat="45.94874" lon="6.75359">
        <ele>1273</ele>
        <time>2022-04-14T11:34:48Z</time>
      </trkpt>
      <trkpt lat="45.94874" lon="6.7535">
        <ele>1273</ele>
        <time>2022-04-14T11:34:51Z</time>
      </trkpt>
      <trkpt lat="45.94876" lon="6.75339">
        <ele>1273</ele>
        <time>2022-04-14T11:34:55Z</time>
      </trkpt>
      <trkpt lat="45.94889" lon="6.75311">
        <ele>1273</ele>
        <time>2022-04-14T11:35:08Z</time>
      </trkpt>
      <trkpt lat="45.94894" lon="6.75288">
        <ele>1274</ele>
        <time>2022-04-14T11:35:19Z</time>
      </trkpt>
      <trkpt lat="45.94897" lon="6.75282">
        <ele>1274</ele>
        <time>2022-04-14T11:35:22Z</time>
      </trkpt>
      <trkpt lat="45.94897" lon="6.75266">
        <ele>1275</ele>
        <time>2022-04-14T11:35:29Z</time>
      </trkpt>
      <trkpt lat="45.94896" lon="6.75259">
        <ele>1275</ele>
        <time>2022-04-14T11:35:32Z</time>
      </trkpt>
      <trkpt lat="45.94893" lon="6.75253">
        <ele>1275</ele>
        <time>2022-04-14T11:35:35Z</time>
      </trkpt>
      <trkpt lat="45.94884" lon="6.75243">
        <ele>1275</ele>
        <time>2022-04-14T11:35:44Z</time>
      </trkpt>
      <trkpt lat="45.94879" lon="6.7524">
        <ele>1274</ele>
        <time>2022-04-14T11:35:49Z</time>
      </trkpt>
      <trkpt lat="45.94866" lon="6.75226">
        <ele>1272</ele>
        <time>2022-04-14T11:36:01Z</time>
      </trkpt>
      <trkpt lat="45.94856" lon="6.75209">
        <ele>1271</ele>
        <time>2022-04-14T11:36:09Z</time>
      </trkpt>
      <trkpt lat="45.94853" lon="6.75195">
        <ele>1270</ele>
        <time>2022-04-14T11:36:13Z</time>
      </trkpt>
      <trkpt lat="45.94845" lon="6.75137">
        <ele>1266</ele>
        <time>2022-04-14T11:36:31Z</time>
      </trkpt>
      <trkpt lat="45.94843" lon="6.75105">
        <ele>1264</ele>
        <time>2022-04-14T11:36:41Z</time>
      </trkpt>
      <trkpt lat="45.94834" lon="6.75082">
        <ele>1262</ele>
        <time>2022-04-14T11:36:49Z</time>
      </trkpt>
      <trkpt lat="45.94827" lon="6.75073">
        <ele>1261</ele>
        <time>2022-04-14T11:36:53Z</time>
      </trkpt>
      <trkpt lat="45.94823" lon="6.75069">
        <ele>1261</ele>
        <time>2022-04-14T11:36:55Z</time>
      </trkpt>
      <trkpt lat="45.94816" lon="6.75061">
        <ele>1260</ele>
        <time>2022-04-14T11:36:59Z</time>
      </trkpt>
      <trkpt lat="45.94775" lon="6.75034">
        <ele>1256</ele>
        <time>2022-04-14T11:37:19Z</time>
      </trkpt>
      <trkpt lat="45.94769" lon="6.75024">
        <ele>1255</ele>
        <time>2022-04-14T11:37:23Z</time>
      </trkpt>
      <trkpt lat="45.94765" lon="6.74994">
        <ele>1252</ele>
        <time>2022-04-14T11:37:33Z</time>
      </trkpt>
      <trkpt lat="45.94762" lon="6.74989">
        <ele>1251</ele>
        <time>2022-04-14T11:37:35Z</time>
      </trkpt>
      <trkpt lat="45.94756" lon="6.74985">
        <ele>1251</ele>
        <time>2022-04-14T11:37:38Z</time>
      </trkpt>
      <trkpt lat="45.94746" lon="6.74986">
        <ele>1250</ele>
        <time>2022-04-14T11:37:42Z</time>
      </trkpt>
      <trkpt lat="45.94741" lon="6.74983">
        <ele>1249</ele>
        <time>2022-04-14T11:37:44Z</time>
      </trkpt>
      <trkpt lat="45.94732" lon="6.74983">
        <ele>1248</ele>
        <time>2022-04-14T11:37:48Z</time>
      </trkpt>
      <trkpt lat="45.94723" lon="6.74983">
        <ele>1247</ele>
        <time>2022-04-14T11:37:52Z</time>
      </trkpt>
      <trkpt lat="45.94714" lon="6.74977">
        <ele>1246</ele>
        <time>2022-04-14T11:37:56Z</time>
      </trkpt>
      <trkpt lat="45.94711" lon="6.74973">
        <ele>1245</ele>
        <time>2022-04-14T11:37:58Z</time>
      </trkpt>
      <trkpt lat="45.94705" lon="6.7496">
        <ele>1243</ele>
        <time>2022-04-14T11:38:03Z</time>
      </trkpt>
      <trkpt lat="45.94693" lon="6.74946">
        <ele>1241</ele>
        <time>2022-04-14T11:38:09Z</time>
      </trkpt>
      <trkpt lat="45.94689" lon="6.74935">
        <ele>1240</ele>
        <time>2022-04-14T11:38:13Z</time>
      </trkpt>
      <trkpt lat="45.94655" lon="6.7489">
        <ele>1235</ele>
        <time>2022-04-14T11:38:34Z</time>
      </trkpt>
      <trkpt lat="45.94647" lon="6.74875">
        <ele>1233</ele>
        <time>2022-04-14T11:38:40Z</time>
      </trkpt>
      <trkpt lat="45.94634" lon="6.74835">
        <ele>1230</ele>
        <time>2022-04-14T11:38:53Z</time>
      </trkpt>
      <trkpt lat="45.94611" lon="6.74787">
        <ele>1225</ele>
        <time>2022-04-14T11:39:11Z</time>
      </trkpt>
      <trkpt lat="45.94609" lon="6.74779">
        <ele>1225</ele>
        <time>2022-04-14T11:39:13Z</time>
      </trkpt>
      <trkpt lat="45.94605" lon="6.74768">
        <ele>1224</ele>
        <time>2022-04-14T11:39:17Z</time>
      </trkpt>
      <trkpt lat="45.94594" lon="6.74749">
        <ele>1224</ele>
        <time>2022-04-14T11:39:24Z</time>
      </trkpt>
      <trkpt lat="45.94571" lon="6.74703">
        <ele>1222</ele>
        <time>2022-04-14T11:39:43Z</time>
      </trkpt>
      <trkpt lat="45.9457" lon="6.74688">
        <ele>1221</ele>
        <time>2022-04-14T11:39:48Z</time>
      </trkpt>
      <trkpt lat="45.9457" lon="6.74682">
        <ele>1220</ele>
        <time>2022-04-14T11:39:50Z</time>
      </trkpt>
      <trkpt lat="45.94568" lon="6.74674">
        <ele>1219</ele>
        <time>2022-04-14T11:39:53Z</time>
      </trkpt>
      <trkpt lat="45.9457" lon="6.74663">
        <ele>1218</ele>
        <time>2022-04-14T11:39:57Z</time>
      </trkpt>
      <trkpt lat="45.94568" lon="6.74635">
        <ele>1214</ele>
        <time>2022-04-14T11:40:08Z</time>
      </trkpt>
      <trkpt lat="45.9457" lon="6.74616">
        <ele>1212</ele>
        <time>2022-04-14T11:40:15Z</time>
      </trkpt>
      <trkpt lat="45.94572" lon="6.74593">
        <ele>1212</ele>
        <time>2022-04-14T11:40:23Z</time>
      </trkpt>
      <trkpt lat="45.94573" lon="6.74587">
        <ele>1212</ele>
        <time>2022-04-14T11:40:25Z</time>
      </trkpt>
      <trkpt lat="45.94575" lon="6.74569">
        <ele>1211</ele>
        <time>2022-04-14T11:40:31Z</time>
      </trkpt>
      <trkpt lat="45.94579" lon="6.74544">
        <ele>1209</ele>
        <time>2022-04-14T11:40:39Z</time>
      </trkpt>
      <trkpt lat="45.94577" lon="6.74509">
        <ele>1208</ele>
        <time>2022-04-14T11:40:49Z</time>
      </trkpt>
      <trkpt lat="45.94577" lon="6.74502">
        <ele>1208</ele>
        <time>2022-04-14T11:40:51Z</time>
      </trkpt>
      <trkpt lat="45.94579" lon="6.74483">
        <ele>1207</ele>
        <time>2022-04-14T11:40:57Z</time>
      </trkpt>
      <trkpt lat="45.94583" lon="6.74474">
        <ele>1207</ele>
        <time>2022-04-14T11:41:01Z</time>
      </trkpt>
      <trkpt lat="45.94584" lon="6.74457">
        <ele>1207</ele>
        <time>2022-04-14T11:41:06Z</time>
      </trkpt>
      <trkpt lat="45.94586" lon="6.74447">
        <ele>1208</ele>
        <time>2022-04-14T11:41:09Z</time>
      </trkpt>
      <trkpt lat="45.94585" lon="6.7444">
        <ele>1208</ele>
        <time>2022-04-14T11:41:11Z</time>
      </trkpt>
      <trkpt lat="45.94585" lon="6.74426">
        <ele>1208</ele>
        <time>2022-04-14T11:41:17Z</time>
      </trkpt>
      <trkpt lat="45.94585" lon="6.74378">
        <ele>1205</ele>
        <time>2022-04-14T11:41:35Z</time>
      </trkpt>
      <trkpt lat="45.94592" lon="6.74343">
        <ele>1203</ele>
        <time>2022-04-14T11:41:48Z</time>
      </trkpt>
      <trkpt lat="45.94595" lon="6.74319">
        <ele>1201</ele>
        <time>2022-04-14T11:41:55Z</time>
      </trkpt>
      <trkpt lat="45.94594" lon="6.74294">
        <ele>1201</ele>
        <time>2022-04-14T11:42:03Z</time>
      </trkpt>
      <trkpt lat="45.94583" lon="6.7425">
        <ele>1200</ele>
        <time>2022-04-14T11:42:19Z</time>
      </trkpt>
      <trkpt lat="45.94583" lon="6.74244">
        <ele>1200</ele>
        <time>2022-04-14T11:42:21Z</time>
      </trkpt>
      <trkpt lat="45.94585" lon="6.74231">
        <ele>1199</ele>
        <time>2022-04-14T11:42:25Z</time>
      </trkpt>
      <trkpt lat="45.94588" lon="6.74223">
        <ele>1199</ele>
        <time>2022-04-14T11:42:28Z</time>
      </trkpt>
      <trkpt lat="45.94591" lon="6.74216">
        <ele>1199</ele>
        <time>2022-04-14T11:42:31Z</time>
      </trkpt>
      <trkpt lat="45.94636" lon="6.74144">
        <ele>1195</ele>
        <time>2022-04-14T11:43:01Z</time>
      </trkpt>
      <trkpt lat="45.94639" lon="6.74139">
        <ele>1195</ele>
        <time>2022-04-14T11:43:03Z</time>
      </trkpt>
      <trkpt lat="45.94665" lon="6.74092">
        <ele>1193</ele>
        <time>2022-04-14T11:43:22Z</time>
      </trkpt>
      <trkpt lat="45.94679" lon="6.74073">
        <ele>1193</ele>
        <time>2022-04-14T11:43:31Z</time>
      </trkpt>
      <trkpt lat="45.94694" lon="6.74036">
        <ele>1192</ele>
        <time>2022-04-14T11:43:45Z</time>
      </trkpt>
      <trkpt lat="45.947" lon="6.73999">
        <ele>1193</ele>
        <time>2022-04-14T11:43:58Z</time>
      </trkpt>
      <trkpt lat="45.94703" lon="6.73964">
        <ele>1192</ele>
        <time>2022-04-14T11:44:10Z</time>
      </trkpt>
      <trkpt lat="45.9469" lon="6.73916">
        <ele>1191</ele>
        <time>2022-04-14T11:44:28Z</time>
      </trkpt>
      <trkpt lat="45.94684" lon="6.73874">
        <ele>1191</ele>
        <time>2022-04-14T11:44:42Z</time>
      </trkpt>
      <trkpt lat="45.94681" lon="6.73797">
        <ele>1188</ele>
        <time>2022-04-14T11:45:07Z</time>
      </trkpt>
      <trkpt lat="45.94666" lon="6.73708">
        <ele>1185</ele>
        <time>2022-04-14T11:45:38Z</time>
      </trkpt>
      <trkpt lat="45.94654" lon="6.7366">
        <ele>1184</ele>
        <time>2022-04-14T11:45:54Z</time>
      </trkpt>
      <trkpt lat="45.94653" lon="6.73644">
        <ele>1183</ele>
        <time>2022-04-14T11:45:59Z</time>
      </trkpt>
      <trkpt lat="45.94655" lon="6.73635">
        <ele>1182</ele>
        <time>2022-04-14T11:46:02Z</time>
      </trkpt>
      <trkpt lat="45.94654" lon="6.73627">
        <ele>1182</ele>
        <time>2022-04-14T11:46:05Z</time>
      </trkpt>
      <trkpt lat="45.94655" lon="6.73594">
        <ele>1180</ele>
        <time>2022-04-14T11:46:16Z</time>
      </trkpt>
      <trkpt lat="45.94651" lon="6.73568">
        <ele>1178</ele>
        <time>2022-04-14T11:46:25Z</time>
      </trkpt>
      <trkpt lat="45.94648" lon="6.73563">
        <ele>1177</ele>
        <time>2022-04-14T11:46:27Z</time>
      </trkpt>
      <trkpt lat="45.94645" lon="6.73548">
        <ele>1176</ele>
        <time>2022-04-14T11:46:32Z</time>
      </trkpt>
      <trkpt lat="45.94632" lon="6.73516">
        <ele>1175</ele>
        <time>2022-04-14T11:46:42Z</time>
      </trkpt>
      <trkpt lat="45.94629" lon="6.73504">
        <ele>1174</ele>
        <time>2022-04-14T11:46:47Z</time>
      </trkpt>
      <trkpt lat="45.94619" lon="6.73457">
        <ele>1173</ele>
        <time>2022-04-14T11:47:06Z</time>
      </trkpt>
      <trkpt lat="45.9461" lon="6.73427">
        <ele>1171</ele>
        <time>2022-04-14T11:47:21Z</time>
      </trkpt>
      <trkpt lat="45.94606" lon="6.73416">
        <ele>1171</ele>
        <time>2022-04-14T11:47:29Z</time>
      </trkpt>
      <trkpt lat="45.94609" lon="6.7341">
        <ele>1171</ele>
        <time>2022-04-14T11:47:39Z</time>
      </trkpt>
      <trkpt lat="45.94605" lon="6.73405">
        <ele>1171</ele>
        <time>2022-04-14T11:47:44Z</time>
      </trkpt>
      <trkpt lat="45.94583" lon="6.73377">
        <ele>1170</ele>
        <time>2022-04-14T11:47:59Z</time>
      </trkpt>
      <trkpt lat="45.94569" lon="6.73353">
        <ele>1169</ele>
        <time>2022-04-14T11:48:09Z</time>
      </trkpt>
      <trkpt lat="45.94565" lon="6.73349">
        <ele>1168</ele>
        <time>2022-04-14T11:48:13Z</time>
      </trkpt>
      <trkpt lat="45.9456" lon="6.73345">
        <ele>1168</ele>
        <time>2022-04-14T11:48:16Z</time>
      </trkpt>
      <trkpt lat="45.94553" lon="6.73332">
        <ele>1168</ele>
        <time>2022-04-14T11:48:21Z</time>
      </trkpt>
      <trkpt lat="45.94535" lon="6.7328">
        <ele>1164</ele>
        <time>2022-04-14T11:48:39Z</time>
      </trkpt>
      <trkpt lat="45.94534" lon="6.73274">
        <ele>1163</ele>
        <time>2022-04-14T11:48:41Z</time>
      </trkpt>
      <trkpt lat="45.94531" lon="6.73242">
        <ele>1160</ele>
        <time>2022-04-14T11:48:51Z</time>
      </trkpt>
      <trkpt lat="45.94528" lon="6.73229">
        <ele>1159</ele>
        <time>2022-04-14T11:48:55Z</time>
      </trkpt>
      <trkpt lat="45.94525" lon="6.732">
        <ele>1156</ele>
        <time>2022-04-14T11:49:05Z</time>
      </trkpt>
      <trkpt lat="45.9452" lon="6.73159">
        <ele>1152</ele>
        <time>2022-04-14T11:49:18Z</time>
      </trkpt>
      <trkpt lat="45.94515" lon="6.73108">
        <ele>1148</ele>
        <time>2022-04-14T11:49:33Z</time>
      </trkpt>
      <trkpt lat="45.94517" lon="6.73093">
        <ele>1147</ele>
        <time>2022-04-14T11:49:38Z</time>
      </trkpt>
      <trkpt lat="45.94518" lon="6.73077">
        <ele>1145</ele>
        <time>2022-04-14T11:49:43Z</time>
      </trkpt>
      <trkpt lat="45.94519" lon="6.73068">
        <ele>1144</ele>
        <time>2022-04-14T11:49:46Z</time>
      </trkpt>
      <trkpt lat="45.94521" lon="6.73062">
        <ele>1144</ele>
        <time>2022-04-14T11:49:48Z</time>
      </trkpt>
      <trkpt lat="45.94524" lon="6.73056">
        <ele>1143</ele>
        <time>2022-04-14T11:49:51Z</time>
      </trkpt>
      <trkpt lat="45.94528" lon="6.73027">
        <ele>1140</ele>
        <time>2022-04-14T11:50:00Z</time>
      </trkpt>
      <trkpt lat="45.94524" lon="6.72965">
        <ele>1135</ele>
        <time>2022-04-14T11:50:19Z</time>
      </trkpt>
      <trkpt lat="45.94528" lon="6.72948">
        <ele>1133</ele>
        <time>2022-04-14T11:50:25Z</time>
      </trkpt>
      <trkpt lat="45.94537" lon="6.72906">
        <ele>1129</ele>
        <time>2022-04-14T11:50:39Z</time>
      </trkpt>
      <trkpt lat="45.94537" lon="6.72895">
        <ele>1129</ele>
        <time>2022-04-14T11:50:42Z</time>
      </trkpt>
      <trkpt lat="45.94535" lon="6.72882">
        <ele>1127</ele>
        <time>2022-04-14T11:50:46Z</time>
      </trkpt>
      <trkpt lat="45.9453" lon="6.7287">
        <ele>1126</ele>
        <time>2022-04-14T11:50:49Z</time>
      </trkpt>
      <trkpt lat="45.94517" lon="6.72845">
        <ele>1124</ele>
        <time>2022-04-14T11:51:00Z</time>
      </trkpt>
      <trkpt lat="45.94506" lon="6.7281">
        <ele>1122</ele>
        <time>2022-04-14T11:51:13Z</time>
      </trkpt>
      <trkpt lat="45.94506" lon="6.72797">
        <ele>1122</ele>
        <time>2022-04-14T11:51:17Z</time>
      </trkpt>
      <trkpt lat="45.94498" lon="6.7277">
        <ele>1122</ele>
        <time>2022-04-14T11:51:26Z</time>
      </trkpt>
      <trkpt lat="45.94487" lon="6.72743">
        <ele>1122</ele>
        <time>2022-04-14T11:51:36Z</time>
      </trkpt>
      <trkpt lat="45.94478" lon="6.72728">
        <ele>1124</ele>
        <time>2022-04-14T11:51:46Z</time>
      </trkpt>
      <trkpt lat="45.94477" lon="6.72719">
        <ele>1124</ele>
        <time>2022-04-14T11:51:51Z</time>
      </trkpt>
      <trkpt lat="45.94475" lon="6.72712">
        <ele>1124</ele>
        <time>2022-04-14T11:51:54Z</time>
      </trkpt>
      <trkpt lat="45.94451" lon="6.72632">
        <ele>1117</ele>
        <time>2022-04-14T11:52:25Z</time>
      </trkpt>
      <trkpt lat="45.94431" lon="6.7256">
        <ele>1120</ele>
        <time>2022-04-14T11:52:57Z</time>
      </trkpt>
      <trkpt lat="45.94431" lon="6.72551">
        <ele>1121</ele>
        <time>2022-04-14T11:53:03Z</time>
      </trkpt>
      <trkpt lat="45.94432" lon="6.72545">
        <ele>1121</ele>
        <time>2022-04-14T11:53:06Z</time>
      </trkpt>
      <trkpt lat="45.94427" lon="6.72543">
        <ele>1120</ele>
        <time>2022-04-14T11:53:10Z</time>
      </trkpt>
      <trkpt lat="45.94422" lon="6.72549">
        <ele>1119</ele>
        <time>2022-04-14T11:53:14Z</time>
      </trkpt>
      <trkpt lat="45.94417" lon="6.7255">
        <ele>1118</ele>
        <time>2022-04-14T11:53:27Z</time>
      </trkpt>
      <trkpt lat="45.94413" lon="6.72554">
        <ele>1117</ele>
        <time>2022-04-14T11:53:32Z</time>
      </trkpt>
      <trkpt lat="45.94415" lon="6.72563">
        <ele>1115</ele>
        <time>2022-04-14T11:53:39Z</time>
      </trkpt>
      <trkpt lat="45.94411" lon="6.72565">
        <ele>1114</ele>
        <time>2022-04-14T11:53:43Z</time>
      </trkpt>
      <trkpt lat="45.94407" lon="6.72567">
        <ele>1114</ele>
        <time>2022-04-14T11:53:47Z</time>
      </trkpt>
      <trkpt lat="45.94405" lon="6.7258">
        <ele>1112</ele>
        <time>2022-04-14T11:53:56Z</time>
      </trkpt>
      <trkpt lat="45.94406" lon="6.72586">
        <ele>1111</ele>
        <time>2022-04-14T11:54:00Z</time>
      </trkpt>
      <trkpt lat="45.944" lon="6.72591">
        <ele>1108</ele>
        <time>2022-04-14T11:54:07Z</time>
      </trkpt>
      <trkpt lat="45.944" lon="6.72598">
        <ele>1106</ele>
        <time>2022-04-14T11:54:12Z</time>
      </trkpt>
      <trkpt lat="45.94391" lon="6.726">
        <ele>1103</ele>
        <time>2022-04-14T11:54:22Z</time>
      </trkpt>
      <trkpt lat="45.94388" lon="6.72594">
        <ele>1102</ele>
        <time>2022-04-14T11:54:25Z</time>
      </trkpt>
      <trkpt lat="45.94387" lon="6.72587">
        <ele>1101</ele>
        <time>2022-04-14T11:54:28Z</time>
      </trkpt>
      <trkpt lat="45.94381" lon="6.72568">
        <ele>1099</ele>
        <time>2022-04-14T11:54:37Z</time>
      </trkpt>
      <trkpt lat="45.94378" lon="6.72564">
        <ele>1098</ele>
        <time>2022-04-14T11:54:39Z</time>
      </trkpt>
      <trkpt lat="45.94372" lon="6.72561">
        <ele>1097</ele>
        <time>2022-04-14T11:54:42Z</time>
      </trkpt>
      <trkpt lat="45.94368" lon="6.72558">
        <ele>1097</ele>
        <time>2022-04-14T11:54:45Z</time>
      </trkpt>
      <trkpt lat="45.94361" lon="6.72559">
        <ele>1098</ele>
        <time>2022-04-14T11:54:52Z</time>
      </trkpt>
      <trkpt lat="45.94355" lon="6.72562">
        <ele>1096</ele>
        <time>2022-04-14T11:55:01Z</time>
      </trkpt>
      <trkpt lat="45.94339" lon="6.72552">
        <ele>1093</ele>
        <time>2022-04-14T11:55:19Z</time>
      </trkpt>
      <trkpt lat="45.94336" lon="6.72547">
        <ele>1092</ele>
        <time>2022-04-14T11:55:22Z</time>
      </trkpt>
      <trkpt lat="45.94331" lon="6.72524">
        <ele>1089</ele>
        <time>2022-04-14T11:55:31Z</time>
      </trkpt>
      <trkpt lat="45.94328" lon="6.7252">
        <ele>1089</ele>
        <time>2022-04-14T11:55:45Z</time>
      </trkpt>
      <trkpt lat="45.94325" lon="6.72513">
        <ele>1087</ele>
        <time>2022-04-14T11:55:56Z</time>
      </trkpt>
      <trkpt lat="45.94321" lon="6.72507">
        <ele>1087</ele>
        <time>2022-04-14T11:56:05Z</time>
      </trkpt>
      <trkpt lat="45.94317" lon="6.72504">
        <ele>1085</ele>
        <time>2022-04-14T11:56:10Z</time>
      </trkpt>
      <trkpt lat="45.94305" lon="6.72474">
        <ele>1079</ele>
        <time>2022-04-14T11:56:30Z</time>
      </trkpt>
      <trkpt lat="45.943" lon="6.72469">
        <ele>1078</ele>
        <time>2022-04-14T11:56:33Z</time>
      </trkpt>
      <trkpt lat="45.94293" lon="6.72454">
        <ele>1077</ele>
        <time>2022-04-14T11:56:40Z</time>
      </trkpt>
      <trkpt lat="45.9429" lon="6.72451">
        <ele>1076</ele>
        <time>2022-04-14T11:56:42Z</time>
      </trkpt>
      <trkpt lat="45.94277" lon="6.72423">
        <ele>1073</ele>
        <time>2022-04-14T11:56:54Z</time>
      </trkpt>
      <trkpt lat="45.94274" lon="6.72418">
        <ele>1071</ele>
        <time>2022-04-14T11:56:57Z</time>
      </trkpt>
      <trkpt lat="45.94272" lon="6.72409">
        <ele>1070</ele>
        <time>2022-04-14T11:57:01Z</time>
      </trkpt>
      <trkpt lat="45.94252" lon="6.72376">
        <ele>1063</ele>
        <time>2022-04-14T11:57:19Z</time>
      </trkpt>
      <trkpt lat="45.94245" lon="6.72363">
        <ele>1061</ele>
        <time>2022-04-14T11:57:25Z</time>
      </trkpt>
      <trkpt lat="45.94244" lon="6.72355">
        <ele>1060</ele>
        <time>2022-04-14T11:57:28Z</time>
      </trkpt>
      <trkpt lat="45.94243" lon="6.72346">
        <ele>1060</ele>
        <time>2022-04-14T11:57:31Z</time>
      </trkpt>
      <trkpt lat="45.94233" lon="6.72315">
        <ele>1061</ele>
        <time>2022-04-14T11:57:43Z</time>
      </trkpt>
      <trkpt lat="45.94225" lon="6.72304">
        <ele>1061</ele>
        <time>2022-04-14T11:57:50Z</time>
      </trkpt>
      <trkpt lat="45.9422" lon="6.72282">
        <ele>1061</ele>
        <time>2022-04-14T11:57:59Z</time>
      </trkpt>
      <trkpt lat="45.94218" lon="6.72267">
        <ele>1060</ele>
        <time>2022-04-14T11:58:06Z</time>
      </trkpt>
      <trkpt lat="45.94218" lon="6.7226">
        <ele>1059</ele>
        <time>2022-04-14T11:58:09Z</time>
      </trkpt>
      <trkpt lat="45.94209" lon="6.72237">
        <ele>1057</ele>
        <time>2022-04-14T11:58:17Z</time>
      </trkpt>
      <trkpt lat="45.94203" lon="6.7219">
        <ele>1053</ele>
        <time>2022-04-14T11:58:35Z</time>
      </trkpt>
      <trkpt lat="45.94196" lon="6.7217">
        <ele>1050</ele>
        <time>2022-04-14T11:58:45Z</time>
      </trkpt>
      <trkpt lat="45.94194" lon="6.72155">
        <ele>1048</ele>
        <time>2022-04-14T11:58:51Z</time>
      </trkpt>
      <trkpt lat="45.94192" lon="6.72146">
        <ele>1047</ele>
        <time>2022-04-14T11:58:54Z</time>
      </trkpt>
      <trkpt lat="45.94189" lon="6.72141">
        <ele>1047</ele>
        <time>2022-04-14T11:58:57Z</time>
      </trkpt>
      <trkpt lat="45.94188" lon="6.72134">
        <ele>1045</ele>
        <time>2022-04-14T11:59:01Z</time>
      </trkpt>
      <trkpt lat="45.94188" lon="6.72127">
        <ele>1045</ele>
        <time>2022-04-14T11:59:03Z</time>
      </trkpt>
      <trkpt lat="45.94188" lon="6.72097">
        <ele>1044</ele>
        <time>2022-04-14T11:59:12Z</time>
      </trkpt>
      <trkpt lat="45.94186" lon="6.72091">
        <ele>1044</ele>
        <time>2022-04-14T11:59:14Z</time>
      </trkpt>
      <trkpt lat="45.94184" lon="6.7207">
        <ele>1042</ele>
        <time>2022-04-14T11:59:23Z</time>
      </trkpt>
      <trkpt lat="45.94175" lon="6.72044">
        <ele>1038</ele>
        <time>2022-04-14T11:59:35Z</time>
      </trkpt>
      <trkpt lat="45.94168" lon="6.72033">
        <ele>1037</ele>
        <time>2022-04-14T11:59:41Z</time>
      </trkpt>
      <trkpt lat="45.94158" lon="6.72023">
        <ele>1034</ele>
        <time>2022-04-14T11:59:49Z</time>
      </trkpt>
      <trkpt lat="45.94156" lon="6.72016">
        <ele>1033</ele>
        <time>2022-04-14T11:59:52Z</time>
      </trkpt>
      <trkpt lat="45.94149" lon="6.72008">
        <ele>1032</ele>
        <time>2022-04-14T11:59:58Z</time>
      </trkpt>
      <trkpt lat="45.94147" lon="6.72">
        <ele>1032</ele>
        <time>2022-04-14T12:00:02Z</time>
      </trkpt>
      <trkpt lat="45.94145" lon="6.71991">
        <ele>1032</ele>
        <time>2022-04-14T12:00:05Z</time>
      </trkpt>
      <trkpt lat="45.94142" lon="6.71986">
        <ele>1033</ele>
        <time>2022-04-14T12:00:08Z</time>
      </trkpt>
      <trkpt lat="45.94139" lon="6.71977">
        <ele>1034</ele>
        <time>2022-04-14T12:00:16Z</time>
      </trkpt>
      <trkpt lat="45.94139" lon="6.71968">
        <ele>1034</ele>
        <time>2022-04-14T12:00:26Z</time>
      </trkpt>
      <trkpt lat="45.9414" lon="6.71961">
        <ele>1035</ele>
        <time>2022-04-14T12:00:30Z</time>
      </trkpt>
      <trkpt lat="45.94137" lon="6.7194">
        <ele>1037</ele>
        <time>2022-04-14T12:00:48Z</time>
      </trkpt>
      <trkpt lat="45.94137" lon="6.71932">
        <ele>1037</ele>
        <time>2022-04-14T12:00:52Z</time>
      </trkpt>
      <trkpt lat="45.94133" lon="6.71917">
        <ele>1039</ele>
        <time>2022-04-14T12:01:02Z</time>
      </trkpt>
      <trkpt lat="45.94133" lon="6.71911">
        <ele>1040</ele>
        <time>2022-04-14T12:01:06Z</time>
      </trkpt>
      <trkpt lat="45.94134" lon="6.71904">
        <ele>1040</ele>
        <time>2022-04-14T12:01:10Z</time>
      </trkpt>
      <trkpt lat="45.94132" lon="6.71891">
        <ele>1041</ele>
        <time>2022-04-14T12:01:16Z</time>
      </trkpt>
      <trkpt lat="45.94131" lon="6.71885">
        <ele>1042</ele>
        <time>2022-04-14T12:01:19Z</time>
      </trkpt>
      <trkpt lat="45.94131" lon="6.71879">
        <ele>1042</ele>
        <time>2022-04-14T12:01:23Z</time>
      </trkpt>
      <trkpt lat="45.9413" lon="6.71871">
        <ele>1043</ele>
        <time>2022-04-14T12:01:27Z</time>
      </trkpt>
      <trkpt lat="45.94128" lon="6.71865">
        <ele>1043</ele>
        <time>2022-04-14T12:01:32Z</time>
      </trkpt>
      <trkpt lat="45.94127" lon="6.71859">
        <ele>1043</ele>
        <time>2022-04-14T12:01:35Z</time>
      </trkpt>
      <trkpt lat="45.94123" lon="6.71853">
        <ele>1042</ele>
        <time>2022-04-14T12:01:40Z</time>
      </trkpt>
      <trkpt lat="45.94124" lon="6.71852">
        <ele>1042</ele>
        <time>2022-04-14T12:01:59Z</time>
      </trkpt>
      <trkpt lat="45.94134" lon="6.71859">
        <ele>1043</ele>
        <time>2022-04-14T12:02:06Z</time>
      </trkpt>
      <trkpt lat="45.94161" lon="6.719">
        <ele>1048</ele>
        <time>2022-04-14T12:02:37Z</time>
      </trkpt>
      <trkpt lat="45.94166" lon="6.71912">
        <ele>1048</ele>
        <time>2022-04-14T12:02:45Z</time>
      </trkpt>
      <trkpt lat="45.94177" lon="6.71943">
        <ele>1051</ele>
        <time>2022-04-14T12:03:04Z</time>
      </trkpt>
      <trkpt lat="45.94182" lon="6.71946">
        <ele>1052</ele>
        <time>2022-04-14T12:03:08Z</time>
      </trkpt>
      <trkpt lat="45.94187" lon="6.71943">
        <ele>1052</ele>
        <time>2022-04-14T12:03:12Z</time>
      </trkpt>
      <trkpt lat="45.9419" lon="6.71938">
        <ele>1053</ele>
        <time>2022-04-14T12:03:16Z</time>
      </trkpt>
      <trkpt lat="45.9419" lon="6.71931">
        <ele>1053</ele>
        <time>2022-04-14T12:03:20Z</time>
      </trkpt>
      <trkpt lat="45.94181" lon="6.71908">
        <ele>1053</ele>
        <time>2022-04-14T12:03:31Z</time>
      </trkpt>
      <trkpt lat="45.94174" lon="6.71898">
        <ele>1054</ele>
        <time>2022-04-14T12:03:37Z</time>
      </trkpt>
      <trkpt lat="45.94161" lon="6.71864">
        <ele>1055</ele>
        <time>2022-04-14T12:03:57Z</time>
      </trkpt>
      <trkpt lat="45.94153" lon="6.71828">
        <ele>1057</ele>
        <time>2022-04-14T12:04:18Z</time>
      </trkpt>
      <trkpt lat="45.94144" lon="6.71791">
        <ele>1061</ele>
        <time>2022-04-14T12:04:48Z</time>
      </trkpt>
      <trkpt lat="45.94143" lon="6.71785">
        <ele>1061</ele>
        <time>2022-04-14T12:04:52Z</time>
      </trkpt>
      <trkpt lat="45.94135" lon="6.71768">
        <ele>1063</ele>
        <time>2022-04-14T12:05:03Z</time>
      </trkpt>
      <trkpt lat="45.94138" lon="6.71757">
        <ele>1063</ele>
        <time>2022-04-14T12:05:10Z</time>
      </trkpt>
      <trkpt lat="45.94142" lon="6.71751">
        <ele>1064</ele>
        <time>2022-04-14T12:05:14Z</time>
      </trkpt>
      <trkpt lat="45.94151" lon="6.71744">
        <ele>1065</ele>
        <time>2022-04-14T12:05:20Z</time>
      </trkpt>
      <trkpt lat="45.94166" lon="6.7174">
        <ele>1066</ele>
        <time>2022-04-14T12:05:29Z</time>
      </trkpt>
      <trkpt lat="45.9417" lon="6.71741">
        <ele>1066</ele>
        <time>2022-04-14T12:05:32Z</time>
      </trkpt>
      <trkpt lat="45.94198" lon="6.71736">
        <ele>1069</ele>
        <time>2022-04-14T12:05:48Z</time>
      </trkpt>
      <trkpt lat="45.94207" lon="6.71737">
        <ele>1070</ele>
        <time>2022-04-14T12:05:54Z</time>
      </trkpt>
      <trkpt lat="45.94213" lon="6.71739">
        <ele>1071</ele>
        <time>2022-04-14T12:05:57Z</time>
      </trkpt>
      <trkpt lat="45.9423" lon="6.71738">
        <ele>1072</ele>
        <time>2022-04-14T12:06:07Z</time>
      </trkpt>
      <trkpt lat="45.94275" lon="6.7172">
        <ele>1076</ele>
        <time>2022-04-14T12:06:37Z</time>
      </trkpt>
      <trkpt lat="45.9428" lon="6.71719">
        <ele>1077</ele>
        <time>2022-04-14T12:06:40Z</time>
      </trkpt>
      <trkpt lat="45.94304" lon="6.71718">
        <ele>1078</ele>
        <time>2022-04-14T12:06:53Z</time>
      </trkpt>
      <trkpt lat="45.94307" lon="6.71711">
        <ele>1078</ele>
        <time>2022-04-14T12:06:56Z</time>
      </trkpt>
      <trkpt lat="45.94307" lon="6.71704">
        <ele>1078</ele>
        <time>2022-04-14T12:06:58Z</time>
      </trkpt>
      <trkpt lat="45.94302" lon="6.71675">
        <ele>1076</ele>
        <time>2022-04-14T12:07:09Z</time>
      </trkpt>
      <trkpt lat="45.94301" lon="6.71666">
        <ele>1076</ele>
        <time>2022-04-14T12:07:12Z</time>
      </trkpt>
      <trkpt lat="45.94298" lon="6.71659">
        <ele>1076</ele>
        <time>2022-04-14T12:07:16Z</time>
      </trkpt>
      <trkpt lat="45.94289" lon="6.71651">
        <ele>1075</ele>
        <time>2022-04-14T12:07:22Z</time>
      </trkpt>
      <trkpt lat="45.94276" lon="6.71637">
        <ele>1074</ele>
        <time>2022-04-14T12:07:31Z</time>
      </trkpt>
      <trkpt lat="45.94256" lon="6.71598">
        <ele>1071</ele>
        <time>2022-04-14T12:07:49Z</time>
      </trkpt>
      <trkpt lat="45.94246" lon="6.71589">
        <ele>1070</ele>
        <time>2022-04-14T12:07:55Z</time>
      </trkpt>
      <trkpt lat="45.94244" lon="6.71582">
        <ele>1070</ele>
        <time>2022-04-14T12:07:58Z</time>
      </trkpt>
      <trkpt lat="45.94244" lon="6.71567">
        <ele>1069</ele>
        <time>2022-04-14T12:08:03Z</time>
      </trkpt>
      <trkpt lat="45.94254" lon="6.71542">
        <ele>1066</ele>
        <time>2022-04-14T12:08:14Z</time>
      </trkpt>
      <trkpt lat="45.94296" lon="6.71496">
        <ele>1062</ele>
        <time>2022-04-14T12:08:41Z</time>
      </trkpt>
      <trkpt lat="45.94305" lon="6.71491">
        <ele>1061</ele>
        <time>2022-04-14T12:08:46Z</time>
      </trkpt>
      <trkpt lat="45.94314" lon="6.71487">
        <ele>1060</ele>
        <time>2022-04-14T12:08:50Z</time>
      </trkpt>
      <trkpt lat="45.94327" lon="6.71478">
        <ele>1058</ele>
        <time>2022-04-14T12:08:57Z</time>
      </trkpt>
      <trkpt lat="45.94353" lon="6.71442">
        <ele>1056</ele>
        <time>2022-04-14T12:09:14Z</time>
      </trkpt>
      <trkpt lat="45.94355" lon="6.71435">
        <ele>1055</ele>
        <time>2022-04-14T12:09:16Z</time>
      </trkpt>
      <trkpt lat="45.94362" lon="6.71422">
        <ele>1054</ele>
        <time>2022-04-14T12:09:21Z</time>
      </trkpt>
      <trkpt lat="45.94364" lon="6.71414">
        <ele>1054</ele>
        <time>2022-04-14T12:09:24Z</time>
      </trkpt>
      <trkpt lat="45.94362" lon="6.71407">
        <ele>1054</ele>
        <time>2022-04-14T12:09:27Z</time>
      </trkpt>
      <trkpt lat="45.94362" lon="6.71401">
        <ele>1054</ele>
        <time>2022-04-14T12:09:29Z</time>
      </trkpt>
      <trkpt lat="45.94355" lon="6.71388">
        <ele>1053</ele>
        <time>2022-04-14T12:09:34Z</time>
      </trkpt>
      <trkpt lat="45.94343" lon="6.71382">
        <ele>1053</ele>
        <time>2022-04-14T12:09:40Z</time>
      </trkpt>
      <trkpt lat="45.94338" lon="6.71381">
        <ele>1053</ele>
        <time>2022-04-14T12:09:42Z</time>
      </trkpt>
      <trkpt lat="45.94334" lon="6.71378">
        <ele>1053</ele>
        <time>2022-04-14T12:09:45Z</time>
      </trkpt>
      <trkpt lat="45.9432" lon="6.71354">
        <ele>1053</ele>
        <time>2022-04-14T12:09:56Z</time>
      </trkpt>
      <trkpt lat="45.94299" lon="6.71309">
        <ele>1050</ele>
        <time>2022-04-14T12:10:14Z</time>
      </trkpt>
      <trkpt lat="45.94292" lon="6.71285">
        <ele>1049</ele>
        <time>2022-04-14T12:10:22Z</time>
      </trkpt>
      <trkpt lat="45.94288" lon="6.71277">
        <ele>1048</ele>
        <time>2022-04-14T12:10:25Z</time>
      </trkpt>
      <trkpt lat="45.94268" lon="6.71219">
        <ele>1045</ele>
        <time>2022-04-14T12:10:45Z</time>
      </trkpt>
      <trkpt lat="45.94262" lon="6.71209">
        <ele>1044</ele>
        <time>2022-04-14T12:10:49Z</time>
      </trkpt>
      <trkpt lat="45.94257" lon="6.71205">
        <ele>1043</ele>
        <time>2022-04-14T12:10:52Z</time>
      </trkpt>
      <trkpt lat="45.94248" lon="6.71212">
        <ele>1042</ele>
        <time>2022-04-14T12:11:02Z</time>
      </trkpt>
      <trkpt lat="45.94247" lon="6.71209">
        <ele>1041</ele>
        <time>2022-04-14T12:11:26Z</time>
      </trkpt>
      <trkpt lat="45.94247" lon="6.71214">
        <ele>1041</ele>
        <time>2022-04-14T12:11:53Z</time>
      </trkpt>
    </trkseg>
  </trk>
</gpx>